ECMWFNIL_sfc_thetae_000.txt.gz
Theta_e
320 319 320 319 320 319 319 319 321 320 319 320 318 319 319 321 321 321 320 319 319 318 317 317 317 317 319 318 319 319 318 319 320 321 321 323 323 324 327 328 327 328
319 319 318 318 317 319 319 320 320 319 319 319 319 319 320 320 320 320 319 318 318 316 316 316 315 315 316 316 317 317 317 318 318 321 320 321 321 322 323 326 328 329
318 318 318 317 317 318 318 319 320 320 319 319 320 320 320 319 319 319 319 318 316 315 315 314 313 313 313 314 314 316 316 317 318 319 319 320 321 321 322 323 325 327
317 317 316 317 318 318 318 318 318 318 318 318 318 319 318 320 319 317 317 315 314 313 313 313 313 312 312 312 313 313 313 314 316 317 317 318 319 320 321 322 322 325
316 315 316 316 317 318 317 316 315 316 317 317 318 318 317 316 316 315 315 315 314 312 312 311 311 311 311 310 311 311 311 312 313 315 315 315 317 319 320 321 321 321
316 315 314 314 315 315 315 314 314 315 316 316 316 316 316 315 314 313 311 311 311 311 309 309 309 309 309 309 309 309 310 310 310 312 312 313 315 317 318 319 319 320
315 315 314 314 315 315 314 314 315 315 315 316 316 314 315 313 311 309 308 309 308 308 307 307 307 307 308 308 307 307 308 309 309 309 309 310 312 313 315 316 317 317
316 315 315 314 314 314 314 313 314 314 315 315 313 313 313 310 308 309 309 308 306 306 306 306 306 306 307 307 306 306 306 308 308 307 307 308 309 310 312 313 314 315
316 314 314 314 314 313 313 313 313 314 313 312 312 311 311 310 309 309 308 307 306 306 306 305 306 306 306 306 305 305 304 305 306 306 306 306 306 307 309 310 311 313
314 314 314 313 313 313 313 313 313 313 313 312 311 312 310 310 309 308 307 306 306 305 305 305 305 306 306 305 305 304 304 304 304 305 305 305 305 306 306 308 309 310
314 314 313 313 313 313 313 313 313 313 313 310 311 310 309 309 308 308 307 306 305 304 304 304 305 305 305 305 305 305 304 304 304 303 304 304 305 305 306 306 307 308
314 314 313 312 312 313 313 313 313 312 312 312 310 309 308 308 308 306 306 304 304 304 304 304 304 304 304 304 304 304 304 304 303 303 303 303 304 305 305 306 306 307
313 313 312 312 312 313 313 312 311 311 310 309 310 309 308 307 306 305 305 304 304 304 303 303 303 303 303 303 303 303 303 303 302 302 303 303 303 304 304 305 306 306
313 313 313 312 313 313 312 312 311 312 311 311 310 309 307 305 304 304 304 304 304 303 304 303 303 302 302 302 302 302 302 302 302 302 302 302 303 303 304 304 305 306
313 312 312 312 312 311 311 310 310 310 311 310 309 307 306 305 304 304 303 303 303 304 303 303 303 303 303 303 302 302 302 302 302 302 302 302 302 303 304 304 305 306
311 312 311 311 311 310 309 309 309 310 309 308 306 305 305 304 303 303 303 302 302 302 302 303 303 303 302 300 299 302 302 301 301 301 301 301 302 302 303 304 305 305
310 310 310 309 309 309 309 308 307 308 309 307 306 305 304 303 303 302 302 302 301 301 301 302 302 302 298 296 295 296 299 300 300 300 300 300 300 300 300 301 303 305
309 309 309 308 308 307 307 307 308 307 306 305 304 303 304 304 303 301 301 301 301 300 300 300 301 299 295 295 295 295 296 299 300 300 300 300 300 300 300 300 301 302
308 308 307 307 307 307 309 309 307 306 304 304 303 304 305 302 301 301 300 300 300 299 298 299 299 297 295 295 294 293 293 295 297 299 299 299 299 299 299 299 300 300
308 306 306 307 309 309 308 306 305 304 305 304 303 304 304 302 301 300 300 300 299 299 298 298 298 297 294 294 294 293 293 293 296 297 297 298 298 298 299 299 299 299
306 306 306 307 307 306 306 304 305 305 303 303 303 303 302 300 299 299 299 300 299 299 298 297 298 295 293 293 293 292 292 293 296 296 296 296 297 297 298 298 299 299
306 307 308 307 306 305 304 303 304 303 302 304 303 302 302 301 300 300 299 299 298 298 297 296 297 294 293 292 292 292 292 295 295 296 296 296 296 297 297 297 298 298
306 307 307 307 305 304 303 304 303 303 302 303 301 301 300 299 298 298 298 298 297 297 296 296 296 295 293 292 292 292 292 294 295 295 295 294 295 296 296 297 297 297
306 304 304 304 304 303 304 304 304 303 301 301 300 298 298 298 298 298 298 298 297 296 296 295 295 295 293 292 292 292 293 293 294 294 294 294 294 295 296 296 297 298
307 307 307 306 305 304 305 303 302 302 301 301 300 299 298 297 297 296 296 296 296 296 297 295 294 294 293 292 292 292 293 294 294 293 292 293 293 293 295 296 296 297
308 306 307 306 305 304 304 303 302 301 301 299 299 298 296 296 296 296 295 295 295 295 294 294 293 293 294 292 292 292 292 293 294 292 292 292 293 293 293 294 295 296

ECMWFNIL_sfc_thetae_003.txt.gz
Theta_e
313 313 311 311 310 311 310 310 310 310 308 309 308 309 308 310 312 310 311 310 311 310 311 310 310 310 312 311 311 313 313 314 314 315 315 315 315 316 317 320 323 325
313 313 313 312 311 311 310 309 309 309 309 308 308 308 309 310 311 310 310 310 311 310 310 310 310 310 309 308 309 309 310 311 311 315 314 314 315 315 315 316 317 321
311 311 311 310 309 308 310 310 309 308 308 309 308 308 310 310 309 309 310 309 309 309 309 309 308 308 308 308 308 308 309 308 309 310 311 311 313 314 314 315 316 317
310 310 310 309 309 309 309 309 308 308 308 308 308 309 309 312 309 308 309 314 308 308 308 308 308 307 308 307 307 306 307 307 309 309 309 310 311 312 313 314 315 315
310 309 309 309 309 309 309 308 308 307 307 307 308 308 308 306 307 307 307 307 307 306 306 306 306 305 306 305 305 304 305 306 307 307 307 307 308 309 311 313 313 314
309 309 309 308 308 309 308 308 308 308 307 307 307 307 306 307 306 306 306 305 305 305 305 305 305 305 304 304 304 303 304 305 305 305 306 305 306 308 309 310 310 310
309 308 308 308 308 308 308 307 308 308 306 306 307 306 306 306 305 304 304 304 304 304 304 303 303 303 303 303 303 303 303 303 303 304 304 304 305 305 306 307 308 308
309 308 308 308 307 307 307 307 307 306 306 306 304 305 305 304 304 303 304 304 303 302 302 302 303 302 302 302 303 302 301 304 304 303 303 303 304 304 304 306 305 305
309 308 308 307 307 307 307 307 307 306 307 305 304 304 305 304 304 303 304 303 302 302 301 301 302 302 302 302 302 301 301 302 303 302 302 303 303 304 304 304 303 304
309 308 307 307 307 306 306 306 306 306 307 305 305 305 305 305 304 303 303 302 302 301 301 301 301 301 301 302 302 301 301 302 302 302 302 302 303 303 304 304 303 303
308 308 307 307 306 306 306 306 306 306 306 305 305 304 304 303 304 304 302 302 302 301 300 300 300 301 300 300 301 301 301 302 302 302 303 303 303 304 304 304 304 304
308 307 307 306 306 306 306 306 306 305 305 305 305 304 303 303 302 302 303 301 300 300 299 299 300 300 300 300 300 301 301 301 302 302 303 303 303 303 303 304 304 304
308 307 307 307 307 306 306 306 306 305 305 304 305 303 302 301 301 300 300 301 300 299 299 299 299 300 299 300 300 300 301 301 302 302 302 303 303 303 303 303 303 303
308 307 307 307 307 306 306 306 305 304 304 303 303 301 301 300 300 300 299 300 299 299 300 300 299 299 299 299 300 300 301 301 302 302 302 302 302 303 303 303 303 303
308 307 307 307 307 306 305 304 304 303 302 302 301 300 302 301 301 300 299 298 298 299 299 299 300 300 300 300 299 299 300 301 301 302 302 301 301 302 303 303 303 303
308 307 306 306 306 305 304 303 302 302 301 300 300 300 299 300 299 299 298 298 298 297 297 299 299 300 301 299 298 299 299 300 300 300 300 300 300 300 300 301 301 301
307 306 305 305 304 303 302 302 302 302 300 300 299 299 298 298 299 297 297 297 297 296 296 297 298 299 297 294 294 295 296 297 297 297 297 298 298 299 299 299 300 300
305 305 304 303 303 302 301 301 300 300 299 298 298 298 298 298 297 297 296 296 297 296 295 296 296 298 295 294 294 294 295 296 295 295 295 295 296 296 297 298 299 300
304 304 303 302 302 301 301 300 299 299 297 297 297 297 297 296 295 296 295 295 295 294 294 296 296 296 294 294 294 293 293 294 295 294 294 294 294 295 295 296 296 297
304 303 302 301 300 300 299 298 298 296 296 296 296 296 294 294 294 295 294 294 294 294 295 295 296 296 294 294 294 293 292 293 294 294 294 294 294 294 294 294 295 295
302 301 300 299 298 298 297 296 296 295 296 295 295 294 292 293 293 293 292 294 294 294 294 295 296 295 293 293 293 292 292 292 292 293 293 293 293 294 294 295 295 295
301 299 299 298 298 297 296 296 295 295 295 295 294 292 293 292 292 293 292 291 293 293 293 293 294 293 292 292 292 291 291 293 292 292 292 292 292 293 294 294 295 295
300 299 298 297 297 296 295 295 295 295 294 293 292 291 291 292 292 292 292 291 292 292 292 292 292 293 292 292 291 291 291 292 291 291 292 292 292 293 294 294 295 295
300 299 298 297 296 296 294 294 294 292 292 292 292 290 290 291 291 290 290 291 291 292 292 292 292 293 292 291 291 291 292 291 291 291 290 290 291 292 293 293 294 296
299 298 297 296 295 295 294 293 292 292 292 292 291 290 291 290 291 289 289 290 291 292 296 294 292 292 292 291 291 291 292 291 290 290 289 290 290 290 291 292 292 294
298 297 295 296 295 294 294 293 292 291 291 290 289 289 290 289 290 289 288 289 290 291 292 292 291 291 292 291 291 291 291 291 291 290 289 289 290 290 290 291 292 292

ECMWFNIL_sfc_thetae_006.txt.gz
Theta_e
310 309 309 307 307 307 308 306 307 307 307 306 306 307 308 308 310 308 308 306 306 306 307 306 307 306 308 306 306 306 307 308 308 309 309 309 308 309 310 311 312 313
309 310 310 308 308 309 309 308 307 307 307 306 307 306 307 308 308 308 307 307 308 306 306 306 307 307 306 306 306 306 306 305 306 310 308 307 307 308 308 308 310 311
309 309 309 308 308 308 308 308 308 307 307 306 306 307 308 308 308 306 306 306 305 306 305 305 305 306 306 305 305 304 304 304 304 306 306 306 306 307 307 307 308 309
310 310 309 309 308 308 307 307 306 307 307 307 307 308 309 309 307 306 307 311 305 305 304 305 305 305 305 305 304 303 303 303 304 304 304 304 305 306 305 306 307 307
310 309 309 308 307 308 307 307 306 307 307 307 307 307 309 307 306 306 305 305 303 303 303 303 303 302 303 302 303 301 302 303 302 302 302 302 303 304 305 306 305 304
310 309 309 308 307 307 307 306 306 306 306 305 306 307 305 305 304 304 304 303 302 302 302 301 301 302 302 302 300 300 300 302 301 301 302 301 302 303 304 304 303 303
309 308 307 308 307 306 306 306 306 307 306 306 305 304 304 304 303 303 302 302 301 303 301 300 300 300 300 300 300 301 300 300 300 301 301 301 302 302 302 303 303 303
308 308 307 306 306 306 306 306 306 306 305 305 304 303 303 303 302 301 301 301 300 300 300 300 300 300 300 300 299 299 298 301 301 300 299 300 300 300 301 302 302 302
308 307 306 305 305 305 305 305 305 305 305 304 303 302 302 302 302 301 301 300 300 300 299 299 300 299 299 299 299 299 298 298 300 299 299 300 300 300 300 301 301 302
307 307 305 305 305 305 305 305 305 304 305 304 303 302 302 302 301 301 301 300 299 300 299 299 298 299 299 299 299 299 298 299 298 298 299 300 300 300 300 300 301 301
307 306 305 305 304 304 304 305 304 304 304 303 303 302 301 301 303 300 299 298 299 298 297 297 298 298 298 298 298 298 298 298 298 298 299 299 300 300 302 302 302 302
307 306 305 305 305 304 304 304 304 304 304 303 303 302 300 300 300 299 300 298 297 297 297 297 297 297 297 297 297 297 298 298 298 298 299 300 301 302 302 303 302 302
307 306 305 305 305 304 304 304 304 303 303 303 303 302 301 299 298 299 299 297 297 297 297 297 297 297 297 296 297 297 297 297 298 298 299 299 301 302 302 302 302 302
307 306 305 305 305 304 304 304 304 302 302 301 302 300 299 298 298 297 297 297 297 297 297 298 297 297 296 296 296 296 296 297 297 298 298 299 300 301 302 302 302 302
306 306 305 305 305 304 304 303 303 302 301 301 300 299 300 298 297 297 296 296 296 296 296 297 297 297 297 296 296 296 295 296 296 296 296 296 296 297 298 299 300 301
307 306 305 305 304 303 303 302 302 301 301 299 298 298 298 297 296 296 296 296 296 295 295 296 296 296 300 299 298 297 295 295 295 295 295 295 295 295 295 296 297 297
306 305 305 304 304 303 301 301 301 301 299 298 297 296 297 298 296 295 294 294 295 294 294 294 295 297 297 294 294 295 296 295 294 294 294 294 294 293 293 294 295 295
307 306 305 303 303 302 301 301 300 299 297 296 296 296 296 296 295 294 293 293 294 293 293 294 294 297 294 294 294 294 295 296 295 294 294 293 293 293 293 293 293 294
306 305 304 303 302 302 301 300 298 297 296 295 295 295 295 295 292 293 293 293 293 293 292 293 293 295 294 294 294 293 293 294 293 293 293 293 292 292 292 292 293 293
306 305 303 302 301 301 300 298 297 296 294 294 294 293 291 291 291 292 292 291 292 292 292 292 293 295 293 294 293 293 292 292 293 292 292 292 292 292 292 292 292 292
305 304 303 302 301 300 298 297 295 293 294 292 292 291 292 290 290 291 291 292 291 291 290 291 293 294 292 292 292 292 292 291 291 291 291 291 291 291 291 291 291 292
304 302 302 300 299 298 297 295 294 294 293 292 291 290 289 289 289 290 290 289 289 288 288 289 291 292 292 292 292 291 291 292 290 290 290 290 290 290 291 291 291 291
303 302 300 299 298 297 296 295 293 292 292 292 291 290 289 289 289 288 289 288 288 289 287 288 289 291 291 291 291 291 291 290 290 290 289 289 289 290 290 290 291 291
301 300 299 298 297 296 294 293 293 292 292 292 291 289 289 289 288 287 287 287 288 287 288 289 290 291 292 291 291 291 291 290 290 289 288 288 289 289 289 290 291 294
301 300 299 297 296 295 294 293 292 292 291 290 290 289 289 288 290 286 286 285 286 287 294 292 290 291 292 291 291 291 291 290 289 288 288 288 288 288 289 289 289 291
300 299 298 297 295 294 293 292 292 291 290 290 289 288 289 286 288 286 285 285 286 287 289 289 289 289 291 291 291 291 291 291 290 288 287 287 288 288 288 288 289 289

ECMWFNIL_sfc_thetae_009.txt.gz
Theta_e
309 310 307 307 306 307 306 306 305 306 306 305 306 307 306 307 307 305 305 304 304 303 304 304 304 303 305 303 303 304 306 305 305 305 304 305 303 304 306 305 305 306
307 309 310 308 306 307 306 306 307 306 306 305 306 306 305 305 305 305 304 305 305 303 304 304 304 303 302 303 302 303 302 301 301 307 303 302 303 302 302 303 304 304
307 307 308 307 306 306 306 305 307 306 306 305 304 304 306 305 305 303 304 304 303 303 302 302 302 303 303 302 302 301 301 301 300 301 303 302 302 301 302 303 302 303
308 307 308 307 307 306 306 305 305 306 304 305 304 306 307 308 305 303 304 309 302 301 301 302 302 301 301 301 301 300 299 300 301 300 300 301 302 302 301 302 303 302
308 308 307 307 307 307 307 306 305 305 305 305 303 305 308 306 304 303 303 302 301 300 301 301 300 301 302 300 300 300 301 301 300 300 300 300 300 301 302 302 300 300
308 308 308 307 307 307 306 306 306 305 305 303 304 307 305 305 304 304 303 301 300 300 300 299 300 300 300 299 298 299 299 300 300 299 299 299 300 300 302 301 300 299
308 308 307 307 306 307 306 306 306 306 305 305 305 304 304 303 303 302 301 301 300 302 299 299 299 299 298 298 298 297 298 298 298 299 299 299 300 300 300 300 301 300
308 308 308 306 306 306 306 305 305 305 305 305 305 303 303 303 302 300 300 299 299 300 299 299 298 298 297 298 298 297 296 298 299 297 297 298 298 298 299 300 300 299
308 307 307 306 305 305 305 305 305 304 305 305 304 302 302 302 301 301 300 299 298 298 298 297 298 298 297 298 297 297 296 296 298 296 297 298 297 298 298 299 298 299
306 307 306 306 305 304 304 304 304 304 305 304 303 302 302 301 301 301 300 298 299 297 296 296 297 298 298 297 297 297 296 297 296 296 296 297 297 297 298 298 298 298
304 304 305 305 305 304 303 303 303 303 303 303 302 302 301 301 301 299 298 298 298 297 296 296 296 296 296 295 295 296 296 296 296 295 296 296 297 297 300 299 299 299
305 304 303 302 304 303 303 303 303 303 303 302 302 301 299 300 300 299 300 297 297 296 296 295 295 295 295 295 295 295 295 295 295 296 296 296 297 297 298 299 299 300
307 306 305 304 304 304 304 304 303 303 302 302 302 301 300 298 297 299 298 297 297 296 296 296 295 294 294 294 294 294 294 295 295 295 296 296 296 297 298 298 299 299
308 307 306 305 305 305 304 304 303 302 302 301 301 300 299 298 298 298 297 297 296 296 296 296 294 294 293 293 294 294 294 295 295 296 296 295 296 296 297 297 297 297
307 306 305 305 305 305 304 304 304 303 301 301 300 300 300 298 297 297 297 295 294 295 295 296 295 295 294 294 294 294 293 294 295 295 294 294 294 294 294 295 295 295
306 305 305 305 305 304 304 304 303 302 302 301 299 299 298 297 296 296 296 295 294 293 292 295 294 294 299 298 297 296 295 295 294 294 294 293 294 293 293 293 294 294
306 305 305 304 305 304 304 304 303 302 301 300 298 298 297 298 296 295 293 293 294 293 292 293 294 295 296 293 293 294 294 293 293 293 293 293 293 292 292 293 293 293
306 305 304 305 304 304 304 304 303 302 300 299 298 297 297 296 294 293 293 293 292 291 291 292 293 296 293 293 293 293 294 294 293 292 293 292 292 292 292 292 292 292
304 304 304 303 303 303 303 302 302 301 299 298 298 298 296 294 293 293 293 292 292 291 290 292 292 294 293 293 293 292 292 293 292 291 291 291 291 291 291 291 291 292
305 304 304 303 303 303 302 301 300 300 299 299 297 295 294 293 293 293 292 292 290 290 290 290 289 293 292 293 293 292 291 291 291 291 290 290 290 290 291 290 290 290
304 304 303 303 303 302 302 301 299 297 297 296 296 294 293 293 293 292 291 291 291 289 288 288 290 293 291 291 291 291 291 291 290 290 290 290 290 290 290 290 290 290
301 300 299 299 301 300 299 298 297 296 295 294 293 292 292 292 291 292 292 291 290 287 288 287 287 290 290 291 291 290 291 291 289 289 288 289 289 289 289 289 289 289
301 299 299 298 298 298 296 296 295 293 293 293 293 292 292 291 291 291 291 290 288 287 286 285 285 289 290 290 290 290 290 289 288 288 288 288 288 288 289 289 289 289
301 301 301 301 300 298 296 295 294 294 293 293 293 291 290 291 290 290 289 289 288 287 286 285 285 289 291 290 290 290 291 289 288 288 287 287 287 288 288 288 289 292
302 302 301 300 299 297 296 295 294 294 293 292 292 291 291 289 291 289 288 287 288 287 293 290 285 287 291 290 290 290 290 289 288 287 287 287 287 287 287 288 288 290
301 301 300 298 297 295 295 294 293 293 292 291 290 290 289 288 290 288 288 288 287 289 288 287 285 284 287 289 290 290 291 290 288 287 286 286 287 287 287 288 289 289

ECMWFNIL_sfc_thetae_012.txt.gz
Theta_e
307 307 306 306 305 306 306 305 304 306 306 306 307 307 308 308 308 307 307 305 306 306 306 305 305 306 305 305 305 306 306 305 307 305 305 306 305 305 305 305 306 307
307 308 309 307 306 307 306 306 306 306 306 306 307 307 306 307 307 307 306 307 307 305 305 305 306 304 304 304 304 304 303 303 304 308 304 304 304 304 304 304 305 305
307 307 307 305 305 305 305 305 306 306 306 307 306 306 307 307 307 305 305 306 305 304 304 304 304 304 304 303 303 303 302 302 303 303 306 303 303 303 303 304 304 304
307 308 308 307 305 305 305 305 305 305 304 305 305 307 308 308 307 305 306 310 305 304 303 304 304 303 303 302 302 302 302 302 302 303 302 302 304 304 303 305 305 303
307 307 308 308 306 305 305 305 305 305 305 305 304 305 308 307 305 305 306 304 304 303 303 303 302 303 302 301 301 301 303 301 301 301 301 301 302 304 304 304 302 302
307 307 307 307 307 305 305 305 305 305 305 304 304 307 306 306 305 306 305 304 303 303 302 301 301 300 300 300 300 300 301 301 301 301 301 301 301 302 302 302 301 301
308 307 307 306 306 306 306 305 305 306 305 305 305 305 305 305 305 305 304 304 303 304 302 301 300 299 300 300 301 299 300 300 300 300 300 300 302 300 301 301 301 301
308 307 307 306 305 305 306 305 305 305 305 305 305 305 305 305 304 304 303 302 302 301 300 299 300 300 300 300 300 299 299 300 300 299 299 299 299 299 299 300 300 299
308 307 307 306 305 305 305 305 305 305 305 305 305 304 304 305 304 303 302 301 301 299 299 299 300 299 299 299 299 299 298 298 299 298 298 298 298 298 298 299 299 299
308 308 307 306 306 305 305 305 305 305 306 305 304 304 303 303 303 302 301 300 300 299 299 299 299 299 299 299 299 299 299 298 297 298 298 298 298 298 298 298 299 298
308 308 307 306 306 306 305 305 304 305 305 305 303 303 303 302 302 301 300 300 300 299 298 298 299 298 298 298 297 298 298 298 297 297 297 297 298 298 300 300 299 299
307 307 307 307 306 305 305 305 304 304 304 304 304 303 302 302 301 301 301 300 299 298 298 298 298 297 297 297 297 297 297 297 297 297 298 297 298 298 298 299 299 299
307 307 307 307 307 306 306 305 304 304 304 303 304 303 302 301 301 301 301 300 298 298 298 298 298 297 297 296 296 296 296 296 296 296 297 297 297 297 298 298 298 299
307 307 307 307 307 307 306 305 305 304 304 304 303 302 302 301 300 300 299 299 298 298 298 298 297 296 294 295 296 296 297 296 296 297 297 296 296 297 297 297 297 297
308 307 306 306 306 305 305 305 305 304 304 303 303 302 302 301 301 299 298 297 297 297 297 297 296 296 296 296 296 295 295 296 295 295 295 295 295 295 295 296 296 296
308 307 306 305 305 305 305 305 304 303 303 303 302 302 301 300 299 299 298 298 296 296 296 297 296 296 301 297 298 298 296 295 295 295 294 294 294 294 294 295 295 295
307 306 306 304 305 305 305 305 303 303 303 302 301 301 300 299 299 298 297 297 296 296 296 296 295 297 296 293 293 294 295 294 294 294 294 293 293 293 293 294 294 295
306 306 305 305 304 304 303 303 302 302 301 300 300 299 299 299 298 297 296 296 296 295 295 295 295 297 293 293 293 292 294 296 294 293 293 292 292 292 292 293 293 293
305 305 305 304 303 303 303 303 302 302 302 300 300 299 298 298 297 296 295 295 295 294 294 296 295 295 293 293 292 292 292 293 292 292 292 292 291 292 291 292 292 292
305 305 304 303 303 303 303 302 302 301 300 300 299 298 297 296 296 296 295 294 294 295 294 294 294 294 292 292 292 291 290 291 292 291 291 291 291 291 291 291 291 291
303 303 303 302 302 303 303 302 302 300 300 299 298 297 296 295 295 294 294 294 295 294 293 293 293 293 292 291 291 290 290 291 291 290 290 290 290 291 291 291 291 291
303 302 302 302 302 302 302 301 300 301 299 297 297 296 295 295 294 295 294 293 293 292 292 291 291 291 290 290 290 290 290 292 290 289 289 289 289 290 290 290 291 290
302 302 302 302 302 302 301 301 300 298 297 297 295 294 294 294 293 294 294 292 291 291 290 290 289 290 290 290 290 290 290 289 289 289 289 288 288 289 290 290 290 290
301 302 302 302 302 301 301 300 298 297 296 296 295 293 294 294 294 293 292 292 291 290 290 289 288 289 290 290 290 290 291 289 289 288 287 288 288 289 289 289 290 292
301 301 302 302 302 301 299 297 296 295 295 295 295 295 294 293 293 291 289 289 290 290 293 290 287 289 290 289 290 289 291 290 288 287 287 287 287 287 288 288 289 290
301 301 302 302 301 299 297 296 296 295 295 295 294 295 293 291 291 290 289 289 289 290 291 291 288 287 290 289 290 290 290 291 289 287 286 286 287 287 287 288 289 289

ECMWFNIL_sfc_thetae_015.txt.gz
Theta_e
321 321 321 320 320 320 321 320 320 321 321 321 321 321 321 322 321 321 319 319 318 318 317 317 316 315 314 314 313 311 312 312 311 312 311 311 311 311 309 309 310 309
320 320 320 321 320 319 320 321 321 320 321 322 322 322 323 322 322 321 319 319 318 317 317 317 315 314 313 312 313 312 311 312 311 312 311 311 311 311 310 310 309 309
319 319 319 319 319 319 319 320 321 321 321 322 323 323 322 323 321 321 319 319 317 317 317 316 315 313 313 313 312 311 311 311 311 311 311 310 310 309 309 309 308 308
318 319 319 320 320 319 320 318 318 319 320 320 320 322 322 322 321 319 319 319 317 316 316 315 315 313 312 313 313 311 311 310 310 311 309 309 309 308 308 309 308 308
319 319 319 319 319 319 319 318 318 318 318 319 321 321 321 321 320 319 318 318 318 316 315 314 314 314 313 313 312 311 311 309 310 309 308 308 308 308 308 308 307 306
318 317 318 318 319 318 317 317 318 318 318 319 319 319 321 321 320 318 318 317 317 316 314 314 313 313 312 312 312 311 310 308 308 308 307 306 306 307 306 307 306 305
317 317 317 318 319 318 317 318 318 318 318 319 319 319 320 320 319 319 317 317 316 314 313 313 312 312 312 312 311 309 309 308 308 307 305 305 306 306 306 306 304 304
318 319 318 318 318 318 317 317 318 317 318 318 317 318 319 319 319 319 318 317 315 314 313 311 311 311 311 311 309 308 308 308 307 306 305 305 305 304 305 305 305 303
318 319 319 318 318 318 317 317 318 318 317 317 317 318 318 319 319 318 317 316 315 313 312 311 311 310 311 310 309 308 306 307 307 306 305 305 304 304 303 303 304 303
319 319 320 318 317 318 318 318 318 318 317 316 317 317 316 318 318 317 316 315 313 312 311 311 310 310 310 309 308 307 306 306 306 306 305 305 304 303 303 304 303 303
319 319 319 319 318 318 318 318 318 317 317 316 317 316 316 317 316 317 315 314 313 311 310 310 310 309 309 308 308 308 307 306 305 305 305 304 304 304 303 303 303 302
318 319 319 319 318 318 318 318 317 317 316 316 316 315 316 316 315 315 314 313 312 311 311 310 310 309 308 307 307 307 306 306 305 305 304 303 303 303 302 303 303 302
318 319 319 319 319 318 318 317 316 316 316 315 315 315 315 314 314 314 314 313 312 311 310 310 309 309 308 307 306 306 305 305 304 304 303 303 302 301 301 302 302 301
318 319 319 319 319 318 318 317 316 316 315 316 315 314 314 313 312 313 313 313 312 311 310 310 309 308 307 307 306 306 305 303 302 301 301 301 301 301 301 300 300 300
318 318 319 318 318 317 317 316 316 315 315 315 314 313 314 313 314 313 312 311 311 311 310 310 308 307 307 306 305 304 302 301 300 299 300 299 299 299 300 300 300 300
315 317 317 317 317 316 316 316 315 315 315 313 310 311 311 311 310 311 310 310 310 309 309 309 307 307 303 299 300 301 300 299 300 300 299 299 298 298 298 299 299 299
313 314 316 316 317 316 316 315 315 314 313 311 310 310 309 307 307 306 309 310 309 308 307 307 306 304 295 294 295 297 300 300 299 299 299 298 298 298 297 297 298 297
311 313 314 315 316 315 315 315 314 312 311 310 310 310 309 309 308 307 307 307 307 307 306 306 305 298 293 293 293 293 297 299 299 299 299 298 297 297 297 297 297 297
311 312 313 314 314 315 315 314 312 310 310 309 309 310 310 309 307 307 307 306 306 305 305 305 304 294 293 293 292 292 292 296 298 298 297 297 297 297 297 296 296 296
310 310 311 313 314 314 313 312 311 310 310 310 310 309 308 308 308 307 306 306 306 305 304 303 302 295 292 292 292 291 290 293 298 297 297 297 296 296 297 296 296 296
308 309 310 312 312 313 312 311 310 310 310 310 309 307 307 307 306 306 306 306 305 305 303 302 300 293 292 291 291 291 289 292 298 297 297 297 297 297 296 296 296 296
307 308 309 311 311 311 311 310 309 309 307 308 307 307 307 306 305 305 304 304 304 303 301 299 298 291 291 291 290 290 290 297 297 297 296 296 296 296 296 296 296 295
307 308 309 310 311 310 310 309 309 308 307 305 304 304 303 303 303 304 304 303 301 301 300 298 297 293 290 290 290 289 292 296 296 296 296 296 296 296 295 295 296 295
307 307 308 309 310 310 310 310 310 309 307 305 303 301 301 302 301 302 302 300 299 299 299 298 297 295 290 290 290 289 293 296 296 295 295 295 295 296 296 295 295 293
306 307 308 309 309 310 310 309 308 306 304 304 302 301 301 301 300 299 299 300 300 299 298 298 298 295 290 290 290 290 293 297 295 295 294 295 295 294 295 295 295 294
307 308 308 309 309 310 310 309 306 303 301 301 301 300 300 299 298 298 298 299 299 298 297 297 296 296 296 289 290 290 290 295 296 294 294 293 294 293 293 294 294 294

ECMWFNIL_sfc_thetae_018.txt.gz
Theta_e
328 329 327 324 322 322 324 322 322 323 321 321 320 322 322 323 321 320 321 322 322 320 319 319 318 318 317 318 318 317 317 318 318 318 317 317 317 317 315 314 315 315
329 329 327 326 324 323 324 324 324 323 322 322 322 322 324 324 322 322 322 322 321 321 320 319 319 318 318 317 317 316 316 317 317 317 317 317 316 316 316 315 315 314
329 329 329 327 326 327 327 327 326 324 322 323 323 324 324 326 323 323 323 322 322 321 321 319 319 318 317 317 317 317 317 316 317 317 317 316 316 315 315 315 314 314
329 329 329 329 328 329 329 327 326 324 323 323 323 325 326 326 325 323 323 322 322 321 321 319 318 317 317 316 317 316 316 316 315 316 315 315 314 314 314 314 313 313
329 329 329 329 329 329 329 327 325 324 324 324 325 325 325 325 324 323 323 322 322 321 320 319 318 317 317 317 317 316 316 315 316 316 314 313 313 313 312 313 312 311
328 327 327 327 329 329 328 327 325 324 324 324 325 324 324 324 323 323 323 322 321 321 320 319 318 317 317 317 317 316 315 314 314 314 313 313 312 312 310 312 312 311
327 327 327 327 328 329 328 327 326 326 325 325 325 324 323 323 322 322 322 322 321 320 319 319 318 317 317 317 316 315 314 314 313 312 311 311 312 311 311 311 309 309
325 326 327 327 328 328 328 326 326 325 327 325 325 324 323 322 321 322 322 322 321 320 319 318 317 316 316 316 314 314 314 313 313 311 311 310 311 309 310 310 311 309
324 324 325 326 326 326 327 326 326 326 326 325 324 324 323 323 321 322 322 322 321 320 319 318 317 316 316 315 314 313 312 313 313 312 311 311 310 309 308 309 309 309
325 324 325 325 325 325 326 327 326 326 326 325 324 324 323 324 323 322 322 321 320 320 319 318 317 316 315 315 314 313 312 311 311 312 311 310 309 309 307 308 308 307
324 324 324 325 324 325 326 326 326 326 326 324 324 323 324 324 322 323 322 321 320 319 319 318 317 316 315 314 314 313 312 312 311 311 311 310 309 309 307 308 306 307
323 324 323 324 325 325 326 326 325 325 325 325 323 322 323 324 323 323 322 320 320 320 319 317 317 316 315 314 313 313 313 312 311 311 310 309 308 307 306 306 306 305
323 324 324 325 324 325 326 326 325 325 324 324 324 323 323 323 323 322 322 320 320 319 318 317 316 316 315 314 313 312 312 311 311 310 309 308 306 305 305 305 304 304
317 320 323 325 324 325 324 325 324 324 324 325 324 323 322 322 322 322 321 319 319 319 318 318 316 315 315 314 313 312 312 311 311 309 307 307 306 305 305 304 304 304
313 314 317 320 322 323 324 324 324 324 324 323 323 323 323 322 323 322 320 319 319 319 317 316 316 315 314 313 313 312 312 310 308 306 306 305 305 304 304 304 304 304
313 314 314 315 317 319 321 323 323 323 323 323 323 323 323 322 322 322 320 317 316 315 315 315 315 314 310 303 306 311 310 308 307 306 305 304 303 303 303 303 303 303
312 313 315 314 315 316 318 319 321 323 323 322 322 323 322 322 321 319 319 317 316 315 315 315 314 311 296 295 295 299 307 307 306 305 304 303 303 302 302 302 303 302
309 310 311 313 316 316 316 317 319 321 322 322 321 321 321 322 320 320 319 318 317 315 315 313 313 299 293 293 294 295 299 306 305 305 303 303 302 302 301 301 302 302
308 309 309 311 313 315 317 318 318 319 320 321 321 322 321 320 319 317 317 317 317 315 314 313 310 294 293 293 293 293 293 299 304 304 302 302 302 301 301 301 301 301
308 309 309 310 312 314 316 316 317 317 319 320 320 320 320 320 319 318 317 316 315 314 313 312 304 294 292 292 292 291 290 295 303 302 301 301 300 301 301 301 301 301
308 308 309 310 311 312 314 315 315 316 317 318 318 318 318 318 318 317 317 315 314 312 310 307 301 292 292 291 291 291 289 293 302 301 301 301 302 302 301 301 301 301
308 308 309 310 311 312 313 314 315 316 316 317 317 316 318 319 318 317 315 313 312 311 308 302 298 291 291 291 291 290 289 300 301 301 301 301 301 301 301 301 301 301
309 308 308 309 311 311 311 313 315 315 316 316 316 315 315 316 317 316 314 312 309 307 302 298 296 293 290 290 290 289 292 300 301 300 300 300 301 301 301 301 301 301
309 308 308 309 310 310 312 313 315 316 316 316 315 314 314 315 314 313 311 309 306 303 301 298 297 294 290 290 290 289 294 299 299 299 299 300 300 301 302 301 301 299
308 309 309 309 309 311 312 313 314 315 315 315 314 315 314 314 312 310 307 305 304 301 298 297 296 294 290 290 290 289 295 300 299 298 298 299 300 300 301 301 300 299
309 309 309 310 310 311 312 313 314 314 314 313 314 314 313 311 308 307 304 302 302 300 299 298 296 295 294 289 290 290 290 298 298 297 297 298 299 298 298 298 298 299

ECMWFNIL_sfc_thetae_021.txt.gz
Theta_e
325 325 323 322 322 323 324 322 323 323 322 322 321 323 322 323 321 322 323 323 323 321 319 320 319 320 320 320 320 318 319 321 320 320 320 320 319 319 318 316 317 317
327 326 325 324 321 322 324 324 325 324 322 323 323 323 325 324 322 322 323 323 321 321 320 319 320 319 319 318 319 318 318 319 318 319 318 318 318 318 317 317 317 317
327 328 328 326 323 323 325 325 325 325 323 322 325 325 325 325 322 322 323 323 321 321 321 320 320 319 319 319 318 318 318 318 318 319 319 318 319 317 317 317 315 316
328 328 328 328 326 325 325 326 324 324 324 323 323 324 325 326 323 322 323 322 322 322 321 320 320 319 319 318 319 318 318 319 318 319 317 317 317 316 316 316 315 315
328 328 328 328 327 327 328 327 325 323 323 323 324 324 324 326 323 323 322 321 323 322 322 320 320 319 319 318 318 317 317 317 317 318 316 315 316 316 315 315 314 314
330 328 327 326 327 327 327 327 326 324 323 324 324 324 325 327 323 323 322 322 321 321 321 321 319 319 318 318 318 318 317 316 317 317 315 314 314 314 313 314 313 313
328 329 328 327 327 327 327 327 327 326 323 323 324 325 325 326 323 322 322 322 321 321 321 320 319 319 318 319 318 318 317 317 316 315 314 314 314 313 313 313 312 311
325 326 328 328 328 327 327 327 326 324 326 325 323 325 324 325 323 323 322 322 321 320 321 320 319 318 318 318 316 317 317 317 315 314 314 314 314 313 313 312 312 311
326 325 325 326 327 327 327 327 326 327 325 324 325 323 324 324 323 323 323 322 321 321 320 320 319 318 319 318 316 317 316 316 315 314 313 313 312 312 311 313 312 312
325 325 325 325 324 324 323 321 326 327 325 324 325 323 323 324 324 323 323 323 322 321 321 320 319 319 318 317 316 316 315 314 314 314 314 313 313 312 310 311 311 311
325 325 325 327 327 326 327 326 325 325 326 323 325 324 323 325 324 322 323 322 322 321 321 320 320 319 318 317 317 317 315 315 314 313 313 313 312 312 313 310 310 309
324 325 326 327 327 328 326 324 324 325 325 324 323 324 322 322 323 323 322 322 322 322 322 321 321 320 318 317 317 316 316 315 314 314 313 312 312 312 310 310 310 308
323 324 324 324 324 325 326 325 325 327 326 324 323 323 322 320 321 322 322 323 322 323 322 322 321 320 319 318 317 316 315 314 314 314 313 313 312 310 310 309 308 307
315 316 318 321 323 325 325 326 325 326 326 326 324 324 322 322 321 320 322 321 323 323 322 322 321 320 319 318 317 317 315 314 313 313 312 312 311 309 309 308 307 307
314 315 315 316 317 319 321 323 325 326 325 325 324 325 324 324 323 323 323 323 323 323 322 322 321 320 319 318 317 316 315 314 314 313 312 311 309 308 308 307 307 307
312 314 314 314 315 315 316 318 320 321 322 324 324 324 324 323 323 324 323 323 323 323 322 322 322 321 315 307 309 315 315 314 314 313 311 310 308 307 307 307 306 307
309 310 312 312 314 315 314 315 315 318 320 321 322 323 324 324 323 322 323 322 322 321 320 321 320 319 302 299 301 303 313 315 313 311 310 309 308 307 306 306 306 305
308 309 309 310 311 312 314 315 315 315 316 318 320 321 321 323 323 322 322 323 323 322 320 321 320 303 297 299 299 299 304 313 311 310 309 308 307 306 306 305 305 305
307 308 308 309 310 310 311 313 313 315 315 315 317 320 321 320 320 321 321 322 321 320 319 319 318 296 296 296 296 296 298 305 310 309 308 307 306 306 305 304 304 304
308 308 308 308 309 310 311 310 311 312 314 317 318 318 319 319 320 320 321 321 320 320 318 318 314 296 294 295 294 294 293 299 310 308 307 306 305 305 304 304 303 303
308 308 308 308 309 309 310 310 311 312 312 314 315 316 317 318 319 319 319 320 320 319 318 318 307 294 293 293 293 292 291 296 307 306 304 304 304 304 303 303 303 303
309 309 309 308 308 309 309 309 310 312 313 314 314 314 316 317 317 318 319 319 319 318 318 307 302 292 292 292 292 291 291 303 304 303 301 302 302 303 303 304 304 303
308 308 308 309 308 308 308 309 310 311 312 314 314 314 314 315 316 316 317 318 318 317 315 304 300 293 291 291 291 290 294 302 303 301 301 301 302 303 303 304 304 303
308 307 307 307 307 307 307 309 310 311 311 313 313 313 313 314 315 315 316 317 317 317 311 303 299 294 290 291 290 290 296 301 301 300 300 301 301 303 303 303 303 304
308 308 308 308 308 307 308 308 309 311 311 312 313 314 314 314 314 314 315 316 316 313 301 301 298 293 290 290 290 290 295 302 300 299 299 300 300 300 302 303 302 302
308 308 308 309 309 309 310 310 310 311 311 312 313 312 312 313 312 313 314 310 305 302 301 299 296 294 293 289 290 290 289 296 300 298 298 298 299 299 300 301 300 300

ECMWFNIL_sfc_thetae_024.txt.gz
Theta_e
327 326 326 327 327 326 325 327 325 326 326 326 324 323 323 323 322 325 325 324 323 322 323 322 321 322 323 322 322 318 319 320 320 320 318 317 317 317 316 316 315 314
326 327 324 326 327 326 327 330 327 326 327 328 326 326 324 323 322 325 324 324 323 323 322 322 322 321 321 320 321 320 319 320 317 318 318 318 317 316 316 316 315 316
327 327 325 325 325 328 326 329 332 327 328 329 330 327 325 324 322 325 324 324 322 321 322 322 322 321 321 320 321 320 318 319 319 320 319 316 317 316 316 317 316 315
328 329 328 327 325 329 328 326 330 329 329 328 330 328 326 324 323 324 324 324 322 321 322 322 321 321 321 319 321 320 318 319 319 319 317 317 318 316 315 315 314 314
329 329 332 331 330 330 328 326 327 330 329 327 329 328 326 324 322 323 324 323 323 321 321 320 321 321 321 318 320 319 318 318 317 318 317 315 316 316 316 316 314 314
329 328 329 331 331 332 331 329 329 329 331 329 330 328 328 325 322 322 322 321 321 321 320 319 318 319 319 318 319 318 317 317 316 317 315 314 312 314 314 315 312 313
330 331 331 329 327 331 326 330 329 329 329 331 327 325 328 326 324 322 321 321 320 320 319 319 318 318 317 317 316 317 315 317 314 315 314 313 313 313 313 314 313 312
329 332 331 328 329 329 328 325 323 327 328 329 331 326 321 323 323 324 323 321 319 319 319 319 319 317 317 317 315 316 315 318 315 313 313 312 313 310 312 315 312 310
328 329 327 326 326 326 327 325 325 323 325 327 327 326 328 325 322 322 322 321 320 320 319 319 318 317 317 317 316 316 314 316 315 313 312 313 311 311 310 311 311 311
326 324 326 323 323 324 325 324 323 323 324 325 325 328 325 327 328 326 321 320 320 320 319 319 319 318 317 316 316 315 315 314 313 313 313 313 311 311 310 311 310 311
326 328 327 326 324 322 325 325 323 322 322 323 326 326 326 326 326 325 323 321 320 320 319 319 319 318 317 317 317 317 316 315 313 312 312 312 312 312 314 310 310 310
326 326 327 326 326 326 326 325 324 323 322 322 323 322 323 326 321 321 321 321 320 319 319 319 319 319 318 317 316 316 316 315 314 313 313 312 312 312 311 311 311 309
323 326 326 328 329 328 328 325 323 322 321 321 322 321 320 321 320 320 320 321 321 320 320 320 320 320 319 318 317 316 315 315 314 313 313 312 312 311 311 309 309 309
321 323 325 327 327 328 327 327 326 324 323 324 323 321 320 321 320 320 320 321 321 321 320 323 320 320 319 319 318 316 315 314 314 313 312 312 313 311 311 310 309 309
318 321 320 320 319 323 325 325 325 325 325 325 323 322 324 324 324 322 320 318 320 320 320 323 322 320 319 319 318 316 316 314 314 313 312 311 311 310 310 309 308 308
318 319 318 320 320 320 321 322 322 324 324 325 325 324 322 321 321 321 320 320 320 320 320 320 321 322 315 309 308 316 315 314 314 313 312 311 310 308 308 307 308 307
317 319 318 316 319 320 320 318 316 321 323 323 324 322 321 321 320 320 320 320 319 317 318 319 320 320 308 303 301 305 314 314 313 312 312 311 309 308 306 306 307 305
313 315 315 315 317 316 316 318 319 319 318 318 320 322 322 323 322 322 321 321 321 321 320 319 320 311 305 300 298 300 307 313 313 312 312 310 308 308 307 305 305 305
314 314 313 314 315 315 317 317 316 316 315 317 318 320 322 321 321 321 320 321 321 320 321 320 319 301 300 299 297 298 302 308 312 311 309 308 308 307 306 305 305 305
313 314 313 314 315 315 314 313 313 313 315 316 317 318 318 318 320 319 320 319 320 319 319 319 317 300 298 298 297 297 298 304 310 310 309 308 307 307 307 307 306 305
313 312 313 313 313 313 313 312 311 313 314 315 314 314 315 315 316 316 317 318 318 319 318 316 311 297 296 296 296 296 296 300 310 309 307 307 308 307 306 308 307 306
312 314 314 314 313 313 312 311 313 314 313 314 314 314 313 313 314 315 316 317 318 318 317 312 305 293 294 294 294 294 297 305 305 304 303 303 303 305 305 305 306 305
313 312 312 313 312 311 310 311 312 313 314 314 312 313 313 313 312 314 315 315 316 316 315 306 302 294 293 293 293 294 298 303 302 300 301 301 303 305 305 305 305 304
311 308 311 311 310 309 310 311 312 312 311 313 310 310 311 312 313 312 314 314 315 315 310 304 299 294 291 292 293 295 299 302 301 301 301 300 302 304 304 303 304 307
311 311 310 311 309 309 311 310 310 310 309 311 310 310 310 312 311 311 312 312 308 306 303 301 296 293 291 291 291 293 299 302 301 300 299 300 300 300 302 302 303 304
310 310 309 308 307 309 311 311 312 310 309 309 310 309 308 310 310 311 308 303 304 302 301 298 295 294 293 290 290 290 291 298 301 302 300 300 301 300 300 302 300 299

ECMWFNIL_sfc_thetae_027.txt.gz
Theta_e
316 317 317 316 317 317 316 315 316 316 316 315 315 315 314 314 315 313 314 313 312 312 312 311 312 312 315 314 314 314 314 313 312 311 311 311 309 309 310 309 309 309
317 319 319 317 317 318 317 316 317 316 317 316 316 315 315 314 315 316 315 314 313 312 312 312 312 312 312 312 312 312 311 309 309 314 310 309 309 309 308 307 308 308
317 317 318 317 317 316 318 318 317 316 318 317 317 316 315 314 315 316 315 313 313 313 312 312 311 312 312 311 312 312 310 309 309 311 311 310 309 308 308 308 307 308
317 316 316 317 318 316 317 319 316 316 319 318 317 317 316 316 315 316 315 320 313 312 312 312 311 312 311 311 312 311 311 311 311 310 309 309 310 308 307 307 308 307
318 317 317 315 318 318 316 318 317 316 316 319 318 317 316 314 314 316 316 315 314 312 312 312 312 311 311 310 311 310 310 310 310 309 308 307 308 308 309 308 307 305
321 320 319 317 319 317 316 317 318 318 316 317 318 318 315 314 315 316 316 315 314 313 313 312 311 312 310 309 309 309 311 310 309 310 309 307 307 308 311 308 306 304
320 321 320 319 319 319 319 318 318 319 318 317 319 318 316 315 315 316 316 315 315 315 314 313 312 311 310 308 309 309 308 309 308 309 308 306 306 306 309 307 308 307
322 321 320 319 319 319 317 316 317 319 319 319 317 317 318 317 315 316 316 316 315 315 314 314 313 312 310 310 308 309 307 312 309 308 307 307 306 305 305 309 304 304
321 320 318 317 316 317 317 317 317 315 317 319 317 318 317 318 317 317 316 316 315 315 315 314 314 312 311 311 309 310 307 309 309 307 307 306 305 305 306 307 304 305
317 318 318 318 318 318 317 317 317 317 318 318 320 319 318 318 318 317 317 316 315 314 314 314 314 313 312 312 312 311 310 310 309 307 307 308 307 306 306 306 305 305
317 318 317 317 317 317 315 315 316 316 317 317 318 319 318 318 318 318 316 315 315 314 314 314 314 313 313 312 312 312 311 311 309 308 308 308 307 307 310 306 306 306
318 319 319 319 319 318 316 314 314 315 315 315 318 319 319 319 318 317 318 316 315 314 314 314 315 314 313 313 313 312 311 311 310 309 309 308 307 308 307 307 306 306
317 317 317 317 317 318 318 317 315 314 315 315 315 317 315 315 317 317 317 318 318 317 315 315 316 317 316 316 315 313 312 311 310 309 309 308 308 308 307 306 306 305
316 315 315 317 318 320 320 318 316 315 314 314 315 314 314 314 315 315 314 315 316 316 316 316 316 315 316 316 316 315 312 311 310 309 308 308 308 307 306 305 305 305
310 311 311 313 316 317 317 317 317 317 316 315 315 316 316 315 315 314 315 314 315 315 315 315 316 316 316 316 315 315 313 311 310 310 309 308 307 306 305 305 304 304
308 306 306 309 311 313 315 316 316 316 317 317 317 317 316 315 314 314 315 314 314 314 314 315 316 317 315 309 310 315 315 314 311 310 309 308 307 306 304 304 303 303
304 305 305 305 306 307 306 313 315 316 315 315 316 316 316 316 315 315 315 315 315 315 314 315 316 317 306 302 302 305 313 312 311 309 309 308 307 305 303 302 302 303
302 302 302 303 303 304 305 306 306 306 309 314 316 315 316 313 313 315 315 315 315 314 313 313 314 310 302 301 301 300 304 312 311 309 309 308 307 305 304 303 302 303
300 300 302 302 303 304 304 303 303 303 303 305 306 306 310 313 314 314 314 314 314 314 314 313 313 307 301 301 300 299 298 304 311 310 308 307 307 306 305 303 302 303
301 300 300 302 304 304 304 303 304 304 305 305 305 304 304 305 305 307 308 309 312 313 314 314 314 308 300 300 300 298 296 299 310 309 307 306 306 306 305 303 302 302
301 300 301 300 301 301 301 302 303 304 306 305 305 305 306 306 305 305 307 309 309 310 309 310 314 305 299 299 298 296 295 301 306 307 304 304 304 304 303 302 302 303
300 300 299 300 300 301 301 301 301 301 301 301 303 302 304 305 304 304 304 305 308 307 308 306 309 302 298 297 296 294 297 304 304 303 302 302 301 302 301 301 301 301
300 300 300 300 300 300 300 300 300 300 301 302 302 299 300 300 302 302 303 303 303 304 304 300 301 295 294 294 293 294 298 301 301 300 299 299 299 299 299 300 301 302
299 299 299 300 299 299 298 298 299 299 300 300 301 299 299 299 300 302 301 300 302 303 303 298 291 292 292 292 294 295 297 299 298 298 298 298 298 298 299 300 303 307
300 300 300 300 299 299 299 299 299 299 298 300 299 299 298 299 300 300 297 297 297 299 301 295 291 292 292 293 294 295 297 297 298 297 297 296 297 297 299 300 298 294
299 299 299 299 298 298 298 300 299 300 300 299 298 299 300 298 298 297 296 294 294 295 295 292 291 290 292 292 293 294 296 298 298 296 296 296 296 296 297 295 293 292

ECMWFNIL_sfc_thetae_030.txt.gz
Theta_e
316 315 314 313 313 313 313 314 313 312 311 310 309 309 308 309 311 309 308 308 308 308 309 309 311 311 313 311 311 312 310 309 307 306 307 308 305 306 307 306 305 304
316 316 316 314 314 314 313 315 314 313 312 311 311 310 310 311 311 311 309 309 309 307 307 308 310 310 310 311 310 308 307 307 307 311 308 307 305 305 305 304 303 303
318 317 316 314 315 315 313 314 314 313 313 312 312 311 312 312 312 310 309 309 308 308 308 308 308 309 309 308 309 309 307 307 308 307 309 306 305 305 303 303 303 302
318 317 317 316 316 316 314 314 314 314 313 313 312 312 313 314 313 311 310 315 309 308 307 306 307 307 308 308 308 307 306 307 307 306 307 306 306 305 304 305 304 303
318 317 317 317 317 317 316 315 314 315 314 314 313 312 313 313 312 311 312 310 309 308 308 308 307 307 308 308 307 307 307 306 306 305 305 304 305 306 306 305 303 302
317 317 317 318 317 316 316 315 315 316 315 314 313 313 312 313 313 312 312 310 309 310 309 308 308 308 308 308 307 308 308 307 305 305 305 304 305 305 307 304 303 302
317 317 317 318 317 316 316 316 315 316 316 315 314 313 312 312 313 313 312 312 311 311 310 309 308 308 307 308 308 306 307 307 306 306 306 303 304 304 305 303 304 303
317 317 317 317 317 316 316 316 314 314 316 315 314 313 312 312 314 314 313 312 311 311 311 310 310 309 308 307 309 306 306 308 307 307 305 304 303 303 303 305 302 303
317 315 315 314 314 314 315 316 316 315 315 315 314 313 312 312 314 314 314 313 312 311 311 311 310 310 309 307 308 308 307 307 307 306 306 305 303 303 304 304 301 303
314 314 315 315 315 315 315 314 315 314 316 315 315 314 313 313 312 313 313 312 313 312 311 311 311 310 310 309 308 308 307 308 307 305 305 305 305 303 304 304 302 302
312 313 314 315 316 316 317 316 316 316 315 315 314 314 314 315 314 312 312 312 313 313 312 312 312 311 310 310 309 309 308 308 308 306 306 306 306 304 307 305 303 303
312 312 313 313 314 314 314 315 315 316 315 314 313 314 313 314 314 314 314 313 312 312 313 313 313 312 311 310 310 309 309 308 308 307 307 307 306 305 306 305 304 304
312 313 314 315 315 315 315 314 313 314 315 314 313 313 312 312 312 313 313 314 314 314 313 313 313 312 311 311 311 310 309 308 308 307 307 306 306 306 306 305 305 304
313 315 315 315 315 315 315 314 314 314 314 312 312 311 311 312 313 313 312 311 313 313 313 313 313 313 313 313 312 311 310 309 309 308 307 306 306 306 306 306 305 305
313 313 314 315 315 315 313 312 311 311 311 309 310 310 312 311 310 310 310 311 310 311 311 311 312 313 314 313 313 312 310 309 309 309 308 307 306 306 305 305 305 305
309 308 309 309 310 311 312 311 311 311 311 310 311 310 309 309 309 309 309 309 310 309 309 309 311 312 312 308 309 313 312 311 310 310 309 308 307 306 304 303 304 304
304 305 303 305 307 309 309 311 311 311 311 310 310 310 310 309 310 309 308 309 310 310 309 311 312 314 306 301 301 305 312 312 310 309 309 308 307 306 305 304 303 302
302 302 301 301 302 303 303 305 306 307 308 308 308 309 309 309 309 310 309 308 309 308 309 310 310 308 304 300 299 299 304 312 311 309 308 308 308 307 306 304 303 302
298 298 299 299 299 300 299 299 299 300 302 303 304 305 307 307 309 308 309 309 307 308 309 309 309 306 302 300 299 298 297 305 310 309 308 307 307 307 305 303 302 302
297 297 298 298 299 298 298 297 298 299 299 299 300 300 302 303 302 303 304 304 305 306 309 309 308 305 301 299 299 298 296 299 307 308 307 307 307 306 304 303 303 302
297 297 297 298 297 297 297 297 298 299 299 299 300 300 300 299 299 299 299 301 301 303 304 307 310 304 300 298 297 297 297 297 304 307 307 306 306 305 304 303 303 303
297 297 297 296 297 296 297 298 297 297 298 295 298 295 295 296 297 298 298 298 299 300 301 303 303 295 299 298 297 296 295 300 302 302 301 300 301 301 300 300 301 301
296 297 297 296 296 297 297 296 296 296 296 297 298 294 294 294 295 296 296 296 298 298 299 298 294 291 295 296 294 293 296 300 298 298 298 297 297 298 299 300 300 299
296 296 296 297 295 296 296 295 294 294 295 296 297 296 296 294 294 295 293 293 293 296 297 298 291 291 293 292 292 294 298 298 296 297 296 296 296 297 298 298 301 305
295 296 295 295 296 295 295 294 295 296 295 295 295 295 296 293 294 291 290 292 292 292 299 291 288 292 292 292 293 294 297 296 296 296 295 294 295 295 294 292 292 296
295 296 295 295 295 294 294 295 295 295 295 296 295 293 293 291 292 292 290 289 289 289 290 288 288 289 291 292 293 294 295 297 296 295 294 294 294 294 292 290 290 291

ECMWFNIL_sfc_thetae_033.txt.gz
Theta_e
314 313 313 313 314 314 312 310 308 306 305 305 305 305 305 305 307 305 306 306 306 307 307 308 309 310 311 309 309 309 308 306 306 305 305 305 303 304 305 303 303 303
314 314 315 314 314 314 312 310 310 309 307 306 306 305 304 307 307 306 305 306 307 305 306 307 307 307 307 307 306 306 305 306 307 308 305 304 303 303 302 301 302 301
314 313 313 313 314 313 313 313 311 309 308 308 306 306 307 309 307 306 306 306 305 305 306 307 306 307 307 305 305 306 306 305 306 304 306 303 302 302 300 301 301 302
315 315 314 314 315 314 313 313 311 309 309 308 308 308 308 310 308 306 306 312 305 305 304 305 306 305 306 305 305 304 305 304 304 304 305 303 304 303 302 302 302 300
316 315 315 315 316 316 314 314 312 311 310 310 308 308 309 309 307 306 306 307 305 305 305 305 305 305 305 305 305 304 304 304 303 303 303 302 302 303 302 302 301 300
316 316 315 315 316 315 314 314 313 312 311 309 310 309 308 309 308 307 307 305 305 305 305 304 304 305 305 304 305 306 306 305 302 302 303 302 302 302 303 301 300 300
314 314 315 316 315 315 314 314 314 313 312 312 310 309 309 309 309 308 307 307 306 307 306 305 305 305 304 304 304 304 303 304 302 303 303 301 302 302 302 300 301 300
313 314 315 316 315 316 314 314 314 314 314 312 311 311 311 311 312 311 309 308 307 307 306 306 306 306 304 304 305 304 303 304 304 302 302 301 301 301 301 302 300 300
314 314 315 316 315 313 313 313 312 312 313 313 312 311 311 311 312 312 312 310 308 308 307 307 307 306 305 305 305 305 305 303 304 302 302 301 301 301 301 300 300 301
311 312 314 314 314 314 314 313 312 312 313 313 313 313 311 310 310 312 312 311 310 309 308 308 308 307 307 306 306 305 305 305 304 303 303 303 303 302 302 301 300 300
310 312 312 313 314 315 315 314 314 314 313 314 313 314 313 311 311 311 311 310 310 310 309 309 309 308 307 307 306 305 306 306 305 304 304 304 303 302 306 302 301 302
312 312 312 312 313 312 312 313 314 313 312 313 314 315 314 314 314 313 313 312 311 311 310 310 309 309 309 308 308 306 306 305 306 305 304 304 304 303 304 303 302 302
311 312 313 314 314 313 312 312 311 310 311 311 312 311 311 312 313 314 314 314 314 313 311 311 310 309 309 308 307 306 306 305 305 305 305 304 305 305 304 304 303 303
312 312 313 313 313 313 313 312 312 310 311 311 311 311 311 311 312 313 314 313 314 314 314 312 310 309 309 308 308 308 307 306 306 306 306 304 304 304 304 304 304 303
311 311 311 312 312 312 311 312 312 311 312 311 311 311 311 311 313 313 312 312 312 311 310 310 311 311 312 311 310 309 308 307 307 307 307 306 305 305 304 304 304 304
309 309 310 311 312 312 311 311 311 311 311 311 311 311 311 312 312 310 310 311 311 309 307 306 308 310 311 307 307 311 309 309 308 308 308 307 306 306 305 305 306 306
306 307 308 309 310 309 310 310 311 310 310 310 310 310 311 310 309 310 309 309 308 307 307 307 309 311 305 301 300 302 310 309 309 309 308 308 307 306 306 306 305 306
303 303 303 305 306 309 309 309 309 309 310 310 310 309 309 309 308 308 307 305 304 304 305 308 308 307 302 300 298 297 302 310 309 308 308 308 307 306 306 305 305 305
298 298 297 297 298 299 298 299 302 305 305 305 305 303 302 303 305 302 302 303 303 305 305 306 307 304 301 299 298 297 296 301 308 307 307 306 307 307 307 306 305 304
296 296 296 296 296 296 296 296 297 297 296 296 298 297 297 297 297 298 298 299 301 301 301 302 304 303 299 298 297 296 295 296 305 305 305 305 305 306 306 305 303 302
295 296 296 295 295 294 294 294 295 295 296 297 295 295 296 297 298 297 297 297 296 297 298 302 304 298 293 294 294 295 294 294 302 302 302 302 303 303 303 303 301 302
295 294 295 294 294 294 294 294 294 294 294 294 293 292 293 293 292 293 294 294 295 295 296 296 298 292 292 295 294 293 293 298 298 299 300 300 301 299 300 299 300 300
295 294 295 294 293 294 294 294 296 295 294 293 293 290 291 292 292 292 291 291 292 293 293 295 295 292 291 294 293 292 295 297 296 296 297 295 293 294 295 297 298 299
294 294 294 295 293 294 294 293 292 293 293 295 296 294 293 293 292 290 289 290 290 291 292 293 292 291 292 292 293 292 297 296 295 294 293 293 293 292 293 295 299 304
294 294 294 295 295 294 293 293 293 294 293 292 291 291 291 291 291 289 288 288 288 288 296 289 287 290 292 291 292 292 295 294 295 294 293 291 291 290 290 290 292 295
295 297 296 296 296 295 294 294 293 293 293 292 290 290 291 288 290 288 288 286 285 285 287 286 287 287 290 291 293 294 295 295 295 294 292 290 289 291 290 289 290 290

ECMWFNIL_sfc_thetae_036.txt.gz
Theta_e
315 314 313 313 312 312 310 309 307 306 304 304 305 304 304 306 308 305 306 307 309 307 308 309 309 310 310 309 309 309 308 307 307 306 306 307 306 306 306 305 306 306
314 315 315 314 314 313 311 311 309 307 305 305 305 305 305 306 307 306 305 306 306 306 307 307 308 308 307 307 307 307 307 306 307 308 305 305 304 305 304 304 304 305
314 314 314 313 313 312 312 312 311 308 306 305 305 305 307 309 306 305 306 306 305 306 307 307 307 307 306 306 306 307 306 306 306 305 306 304 304 304 303 304 304 305
313 314 314 314 314 313 313 313 311 309 307 308 307 308 309 311 306 306 306 312 305 306 306 307 307 307 306 305 306 306 305 305 305 305 305 305 306 304 304 304 304 303
313 313 314 315 315 315 314 314 313 310 309 308 307 308 311 308 307 306 306 306 305 305 305 306 306 306 307 306 306 306 308 306 305 305 304 304 305 305 304 304 303 303
314 314 315 315 315 314 314 315 313 311 309 308 307 310 307 308 308 307 307 306 305 306 305 304 305 305 305 305 305 305 306 305 304 304 305 305 304 304 303 303 303 303
315 315 315 314 315 314 313 313 314 313 311 310 309 309 308 308 309 308 307 307 306 309 307 306 306 306 305 305 306 305 304 304 304 304 304 304 305 303 303 303 303 303
313 314 314 314 314 314 313 312 314 314 312 311 310 310 309 309 310 309 309 308 307 307 307 307 307 307 306 306 307 306 306 306 304 303 304 303 303 303 303 304 303 303
312 312 312 313 312 312 312 312 311 312 313 311 311 310 311 310 310 310 310 309 309 309 308 307 307 307 306 306 306 306 306 306 306 304 304 304 304 304 303 303 304 305
310 310 312 312 312 312 313 311 311 311 313 312 312 312 311 310 310 310 310 310 309 309 308 308 308 308 308 307 307 307 307 306 306 305 304 305 305 304 303 303 304 303
310 310 311 312 312 312 311 312 312 313 314 313 313 312 312 311 311 311 310 311 311 310 310 310 309 309 309 309 308 307 307 308 307 306 306 305 305 304 306 304 304 305
309 309 310 311 312 312 312 313 313 314 313 313 314 314 314 314 313 313 313 312 312 312 312 312 312 311 310 309 309 309 308 307 308 307 307 307 306 305 306 305 305 305
310 311 312 313 313 312 312 312 313 313 313 313 313 314 313 312 313 313 313 313 312 313 313 313 313 313 311 310 309 309 308 307 307 307 307 306 307 307 306 306 305 305
311 312 312 312 312 313 312 312 312 312 312 312 312 311 310 312 313 313 313 313 313 313 314 314 313 313 312 312 311 310 309 308 307 307 307 307 307 306 306 306 306 306
311 312 312 311 311 311 310 311 311 311 311 311 311 311 311 311 311 311 312 312 311 311 312 312 312 312 312 312 312 311 310 309 308 308 307 307 307 307 307 306 306 306
308 309 309 310 310 310 310 310 310 309 310 309 310 311 311 309 310 310 311 311 311 310 309 310 310 311 311 306 306 312 311 310 309 309 308 308 308 307 307 307 307 307
307 306 307 308 309 308 308 308 309 309 309 309 309 309 309 309 309 309 309 309 310 310 309 309 310 311 304 301 300 300 308 310 309 309 309 308 308 307 307 307 307 308
305 306 307 307 307 308 308 309 308 308 308 308 307 308 308 308 307 308 308 307 308 308 308 309 310 307 302 300 298 297 300 309 310 309 309 308 308 308 308 307 307 308
302 303 304 304 306 306 306 305 307 307 306 306 306 307 307 307 307 307 307 306 307 307 307 308 308 302 298 296 295 294 294 300 308 309 308 309 308 308 309 308 308 307
299 300 300 299 299 300 302 304 305 305 304 303 301 300 303 303 303 304 303 304 304 304 304 303 303 298 292 293 293 292 292 295 306 307 308 308 308 308 307 307 307 307
296 296 295 295 296 296 298 299 300 298 297 297 298 299 300 300 300 299 298 298 298 298 299 300 300 292 290 290 292 292 292 293 303 304 306 306 305 304 305 305 305 305
295 295 295 294 294 295 296 296 296 297 297 296 295 294 294 295 295 295 296 296 296 296 296 297 298 293 291 291 290 291 292 298 301 302 303 303 302 300 301 302 303 304
297 297 295 295 295 296 297 297 296 294 294 294 294 293 294 294 294 293 292 294 294 293 294 295 294 293 291 291 290 290 294 300 301 301 299 296 294 295 296 298 300 301
296 296 297 296 294 295 296 296 295 294 295 296 294 293 294 295 293 291 290 292 292 293 295 294 292 291 292 291 292 291 297 300 298 296 294 294 293 292 293 295 299 303
296 296 295 296 295 295 295 294 294 296 295 294 293 294 296 295 293 291 289 289 290 292 296 291 290 292 292 290 292 292 296 296 297 295 294 292 292 292 291 292 292 295
296 297 296 295 295 295 294 294 294 294 292 293 292 293 294 292 292 290 290 288 288 288 289 290 291 290 292 290 293 293 294 297 296 296 294 291 292 292 291 291 291 292

ECMWFNIL_sfc_thetae_039.txt.gz
Theta_e
324 324 323 323 324 324 323 322 322 321 321 321 320 320 320 321 321 323 323 324 324 324 324 323 323 322 321 321 322 321 321 321 320 320 321 321 320 320 319 319 321 318
323 323 323 323 322 322 323 323 322 321 321 322 321 320 321 322 322 323 323 323 323 323 323 323 322 321 321 320 321 321 319 320 318 318 320 319 319 319 319 319 319 318
323 323 323 323 323 323 323 323 323 322 322 321 322 322 321 323 322 322 322 323 323 323 323 323 322 321 320 320 320 320 319 319 318 318 319 317 319 318 318 318 318 319
323 324 324 325 325 324 324 322 321 320 321 320 321 321 322 322 323 322 323 322 323 322 323 322 322 320 319 319 320 319 319 318 317 319 318 317 318 317 317 318 317 317
323 322 324 324 324 326 324 323 321 320 318 321 322 321 322 322 321 321 321 321 322 321 322 321 321 321 320 320 320 319 319 317 317 319 317 316 317 317 317 317 316 315
323 321 322 323 324 325 324 322 322 320 320 321 322 321 323 323 321 320 321 320 320 321 321 321 321 320 320 320 321 319 318 317 317 318 315 315 315 316 314 317 315 314
323 322 322 322 323 324 324 323 323 321 321 323 322 322 322 322 321 320 320 320 319 319 319 321 320 320 321 321 321 320 319 318 317 316 314 315 315 315 314 316 314 313
323 323 323 323 324 324 324 323 324 323 322 321 321 321 321 322 321 322 320 319 319 318 319 318 318 319 319 320 319 319 320 320 318 316 315 315 316 313 314 314 316 314
323 323 322 323 323 323 323 323 324 324 322 322 322 320 320 320 321 321 320 320 319 319 318 318 318 319 319 319 319 318 318 319 319 318 316 315 314 314 312 313 314 313
323 323 323 323 323 325 325 324 324 324 323 323 322 321 320 321 321 320 320 321 320 319 319 319 319 319 319 319 318 318 318 317 317 318 317 317 315 314 313 314 315 314
324 324 323 323 324 325 325 325 325 325 324 323 324 323 322 321 321 321 321 320 321 320 320 320 320 320 320 320 320 320 319 319 318 317 318 316 316 316 316 316 315 315
323 323 323 323 323 324 324 325 326 326 325 325 324 323 323 323 322 321 321 320 321 321 321 321 321 321 321 321 320 320 320 320 320 319 318 317 317 318 316 316 315 314
322 322 323 323 323 324 325 324 324 326 325 324 325 324 322 322 322 321 322 322 322 322 322 322 321 321 322 322 321 320 320 319 320 319 318 318 317 317 318 317 317 316
323 323 323 324 324 324 323 324 325 325 325 326 324 323 322 321 320 320 321 321 323 322 323 322 321 321 321 322 321 322 322 321 320 320 319 318 318 317 318 320 318 317
323 323 324 324 323 323 323 323 323 324 324 323 322 322 323 322 323 323 321 320 321 322 322 322 321 322 321 322 321 321 321 321 321 319 319 319 318 317 317 317 318 317
321 322 321 322 322 322 322 322 322 322 323 323 322 321 321 323 322 322 321 321 321 321 321 322 319 319 316 308 310 319 321 320 320 320 319 319 318 318 318 317 317 318
319 319 320 320 321 321 322 322 322 322 322 322 321 322 322 322 322 319 321 321 321 321 321 321 320 319 306 301 299 299 313 321 321 321 320 319 318 317 317 318 318 317
318 318 318 319 320 320 321 321 321 321 321 321 319 320 321 322 322 321 320 320 321 320 321 321 321 306 298 298 297 296 300 318 322 322 321 319 319 318 318 318 318 318
318 318 318 319 319 320 321 320 319 319 320 320 319 320 320 320 320 319 319 319 319 318 319 320 321 294 293 292 293 294 293 302 320 322 321 321 321 321 320 320 320 319
316 318 319 319 319 319 319 318 318 318 319 319 318 317 317 317 316 315 315 315 315 318 320 318 318 296 291 291 292 292 292 295 317 321 322 322 321 321 321 321 320 320
311 312 315 316 316 316 317 317 317 317 317 317 318 317 315 315 315 316 316 316 316 316 316 315 310 291 291 290 291 292 291 293 315 316 319 321 320 319 319 319 318 318
306 307 308 309 310 313 315 316 316 317 316 314 314 314 314 314 313 315 314 313 314 314 315 314 309 291 291 290 290 291 292 310 313 315 317 319 318 315 315 316 316 316
307 307 306 305 305 307 308 309 309 309 311 312 312 312 312 313 313 313 312 313 312 314 314 314 314 297 290 290 291 291 299 312 312 313 313 315 312 311 311 311 312 312
306 306 306 306 305 307 309 309 309 309 309 309 310 309 310 311 310 309 309 311 312 313 314 313 312 300 291 292 291 292 302 314 315 316 313 311 309 308 308 308 304 299
307 308 308 309 308 308 309 308 307 309 309 307 308 309 309 308 308 309 308 307 308 308 300 310 311 302 291 292 291 292 305 316 315 315 312 309 308 306 305 306 304 299
306 306 307 308 308 309 308 309 308 307 307 306 305 307 308 308 307 308 308 306 304 304 305 308 310 309 299 290 292 293 296 313 314 313 310 308 307 306 304 304 303 301

ECMWFNIL_sfc_thetae_042.txt.gz
Theta_e
333 332 330 328 325 325 324 323 323 322 322 322 322 322 322 324 325 325 326 325 324 324 324 326 325 326 325 325 325 321 322 322 322 323 322 322 323 324 323 322 323 320
334 333 330 329 326 326 325 324 323 321 322 322 323 323 324 325 325 325 325 324 323 323 322 323 323 324 323 323 324 321 320 322 321 320 321 321 320 321 321 322 321 320
333 332 330 328 325 326 327 326 324 322 321 322 324 325 325 326 326 326 325 324 324 323 323 322 322 322 322 323 323 322 320 320 319 319 319 318 319 319 320 319 319 320
332 332 330 328 327 327 327 326 324 323 323 322 323 324 325 326 326 326 325 324 324 324 324 323 322 321 320 321 321 319 320 320 320 320 319 319 319 318 319 320 320 319
331 331 331 329 327 327 327 326 324 325 324 323 324 324 323 324 324 323 324 324 324 324 324 323 322 322 322 321 320 320 319 319 321 320 318 318 319 320 320 320 319 318
330 329 329 328 327 328 327 326 325 324 324 325 325 323 323 323 322 322 322 323 323 323 323 323 322 323 323 322 321 321 320 318 320 320 317 317 317 319 317 319 319 317
329 329 329 329 329 329 327 329 327 323 322 323 324 324 324 323 321 321 320 321 321 322 322 323 322 323 324 324 322 321 319 319 319 318 316 316 316 317 318 319 316 316
330 330 330 330 330 328 328 329 327 325 326 326 326 326 325 322 321 322 321 321 320 321 322 322 322 322 323 324 322 322 322 322 320 318 316 316 318 315 315 316 318 316
330 330 330 331 331 329 327 326 325 328 327 327 326 326 326 324 323 324 323 322 323 323 322 322 322 322 324 323 323 323 321 322 323 322 320 319 318 316 315 316 316 316
329 329 329 330 330 329 329 326 325 328 327 327 326 325 324 326 325 324 324 324 324 323 324 323 323 324 324 323 322 322 322 322 322 322 322 321 320 318 316 316 318 317
328 329 329 328 328 328 329 327 326 326 327 327 328 327 326 326 326 326 325 325 325 324 324 324 324 325 325 325 325 325 324 324 323 322 322 321 321 321 319 320 319 318
328 328 328 327 326 327 329 330 327 326 326 326 327 327 327 327 327 326 325 325 325 324 325 325 325 325 325 325 325 326 326 326 325 325 324 323 322 322 321 322 322 321
327 327 327 328 327 327 330 328 328 328 326 324 325 326 327 327 326 325 326 325 325 326 325 325 325 326 326 326 326 326 325 324 325 324 324 324 324 323 323 323 323 322
326 327 327 327 327 327 327 327 326 327 327 325 325 325 326 325 325 326 327 327 326 326 325 326 326 326 325 326 325 326 326 325 325 326 324 324 325 325 325 325 325 324
326 326 327 326 326 324 325 325 325 326 326 328 327 328 328 327 328 327 327 326 326 327 326 327 327 326 326 325 325 325 325 325 325 324 325 325 325 325 326 325 324 325
326 326 326 326 324 323 324 324 324 327 329 328 327 327 328 327 327 327 326 326 326 326 327 328 327 328 319 307 309 325 326 324 326 325 326 326 324 324 325 325 324 324
324 324 324 324 324 324 323 323 326 327 328 327 326 326 326 327 327 326 326 325 325 326 326 327 328 325 301 301 300 300 320 325 324 326 327 326 326 326 325 325 326 323
324 323 323 324 324 324 324 325 325 326 326 325 326 326 327 328 327 325 325 326 326 326 327 327 328 300 296 297 297 296 301 323 327 327 327 327 326 325 325 325 325 325
323 322 322 323 323 323 323 324 325 325 324 325 324 325 327 327 326 326 326 326 326 324 325 326 326 294 294 293 296 294 294 305 327 328 326 324 323 323 321 321 322 322
324 324 323 323 323 323 323 323 324 324 326 326 325 324 323 323 325 325 325 325 324 325 325 325 321 294 292 292 293 293 293 298 324 322 321 320 320 320 321 320 320 320
318 320 323 325 323 323 323 323 324 325 325 322 322 322 322 321 322 321 323 324 322 319 318 317 314 288 291 290 291 291 292 296 324 325 321 320 321 322 322 321 321 322
312 314 317 319 320 321 321 321 322 324 324 324 322 323 323 322 321 320 319 318 317 316 316 313 313 288 290 291 291 293 291 320 321 321 319 319 320 322 321 321 320 320
311 311 312 314 315 317 318 319 321 322 323 323 322 322 320 319 318 317 317 316 316 316 314 312 314 297 289 290 293 291 297 319 319 316 317 318 320 322 320 320 317 318
310 311 310 311 313 313 316 318 319 320 320 319 318 316 315 316 317 315 315 313 312 311 311 311 313 300 289 291 292 291 300 317 314 315 316 317 319 320 319 315 307 298
310 310 311 311 310 312 315 315 316 316 317 317 316 315 315 314 312 312 311 312 313 314 308 311 313 304 290 292 291 292 308 317 314 315 315 316 316 316 317 315 310 303
311 310 310 311 311 312 313 313 314 314 315 314 314 313 312 311 310 310 310 311 314 313 315 315 313 315 306 290 293 293 294 318 315 313 313 314 314 313 314 313 311 307

ECMWFNIL_sfc_thetae_045.txt.gz
Theta_e
330 330 328 326 325 325 325 323 324 324 324 324 323 323 321 323 324 324 324 324 324 324 324 325 325 325 324 325 324 320 322 323 322 323 322 321 321 323 322 321 322 320
331 329 328 328 325 325 325 325 325 324 324 324 323 322 323 324 323 323 322 322 322 322 322 323 324 323 323 323 323 321 321 322 320 320 322 321 320 321 321 321 321 320
331 331 329 326 325 326 325 326 326 325 323 323 324 323 324 325 324 324 323 322 321 321 322 322 322 322 322 322 322 321 320 319 319 319 320 319 320 320 321 321 320 320
331 331 329 326 326 326 326 325 324 324 325 323 323 324 324 324 325 324 323 322 321 321 322 322 322 321 320 321 321 320 320 319 319 320 319 320 320 319 320 321 321 320
332 330 330 326 327 328 327 324 324 323 323 323 324 324 323 325 324 322 323 323 322 320 321 321 322 322 321 321 320 319 320 319 320 319 318 318 320 321 321 321 321 320
331 330 330 326 325 326 325 324 324 323 323 323 324 323 323 323 322 321 323 322 322 321 321 321 321 322 322 321 322 321 320 319 320 320 318 318 319 320 318 320 320 319
331 330 330 328 324 324 322 324 326 325 326 325 323 323 323 322 321 321 321 322 321 321 321 322 322 322 323 323 322 320 320 321 320 318 316 315 316 319 319 319 316 316
330 331 331 329 326 324 323 325 325 324 326 325 324 323 323 320 319 321 322 321 321 321 321 321 322 323 323 323 320 321 321 321 320 318 318 318 318 316 317 317 319 317
330 329 330 328 328 325 323 326 324 322 322 323 325 322 322 321 320 321 321 321 322 322 321 321 322 322 325 324 322 322 321 322 321 320 319 319 318 317 316 317 317 317
331 332 331 330 330 326 325 327 325 323 323 324 325 324 321 322 322 321 321 321 321 322 322 322 322 324 324 323 323 322 321 321 322 322 321 320 319 317 316 317 319 318
329 330 330 330 329 328 325 326 325 326 324 324 325 324 324 324 323 322 322 322 323 322 322 322 323 323 324 324 325 325 324 323 322 322 323 322 321 321 321 319 319 319
328 328 330 329 329 328 328 324 324 326 325 324 324 322 324 325 323 324 323 323 323 322 323 323 323 324 324 324 324 325 326 325 325 325 324 323 323 323 320 322 322 320
328 328 329 330 328 328 329 329 324 323 324 323 325 324 324 324 324 323 324 323 323 323 324 324 324 325 326 328 328 325 326 326 326 325 325 325 325 324 324 323 323 323
328 329 329 328 327 327 327 328 328 324 323 323 323 323 324 323 323 323 324 324 324 324 325 325 325 325 326 327 328 328 327 325 325 325 324 324 325 324 326 325 325 325
328 328 328 328 326 326 326 326 326 328 327 325 325 324 325 324 323 323 323 323 324 326 326 326 326 326 326 326 326 324 327 327 327 325 325 324 325 324 325 326 326 326
327 328 328 327 327 326 326 327 327 327 327 327 328 328 325 324 322 323 323 324 324 326 325 326 327 327 316 304 307 326 327 326 327 327 325 325 325 325 326 326 326 326
326 326 325 325 326 326 326 327 326 327 326 326 326 326 323 323 327 325 326 326 325 323 323 325 327 325 300 301 303 299 320 327 326 326 325 325 324 322 323 323 325 325
326 325 325 325 325 324 325 325 326 325 325 323 323 323 323 324 324 324 324 323 322 322 322 322 323 301 299 300 299 298 300 321 325 325 324 322 318 320 319 322 323 324
325 324 325 324 325 325 325 325 324 324 323 323 322 322 324 324 323 324 323 323 323 322 324 323 320 296 296 295 298 296 295 303 322 323 322 319 319 315 317 317 319 322
324 324 324 325 325 324 324 323 323 322 323 323 323 322 320 320 322 324 321 322 322 323 321 320 318 295 295 294 296 294 294 298 323 324 322 321 318 319 320 319 319 318
322 323 324 325 325 324 325 322 322 322 322 323 323 321 320 321 324 325 324 324 324 321 319 319 315 289 292 291 292 292 293 294 323 324 322 321 320 319 319 319 319 319
314 315 318 320 321 322 322 323 323 322 321 324 324 323 324 325 322 325 323 323 322 321 317 316 312 289 291 291 292 292 291 310 323 319 318 317 318 319 318 319 319 319
312 312 313 314 315 316 317 319 320 323 325 325 323 323 323 323 321 322 323 322 320 319 317 316 314 295 290 291 292 292 295 320 318 317 316 316 317 318 318 321 318 319
312 311 312 312 312 313 314 316 318 320 322 323 323 323 323 321 321 321 321 319 318 317 317 315 314 302 290 292 293 292 301 319 316 314 315 315 316 317 318 315 309 301
312 312 311 312 312 313 315 315 316 316 317 319 319 318 318 318 318 317 316 317 317 317 312 313 313 305 289 292 291 293 298 317 314 312 314 314 315 315 317 315 310 303
312 312 312 312 312 313 315 314 315 316 316 317 316 315 315 315 315 315 315 314 315 315 313 312 311 314 305 290 293 293 292 311 319 314 313 314 313 315 315 314 311 307

ECMWFNIL_sfc_thetae_048.txt.gz
Theta_e
331 331 329 328 328 329 328 328 328 329 330 328 325 325 326 326 325 327 328 327 326 324 326 327 327 326 326 324 322 319 320 321 321 321 320 320 320 320 320 320 321 322
331 331 328 328 328 326 329 330 330 330 329 328 327 326 326 326 325 323 323 324 325 326 327 327 327 325 323 322 323 322 320 320 319 321 321 320 320 321 320 320 320 319
332 332 330 330 327 328 328 331 332 330 328 327 326 326 326 328 326 327 325 322 322 324 324 322 324 324 324 323 322 320 320 320 319 320 320 319 321 320 321 322 319 318
331 333 332 330 328 327 328 329 330 329 328 325 325 326 326 327 328 326 323 323 323 324 326 326 325 323 321 323 323 321 321 319 320 321 321 320 319 320 320 320 319 318
332 332 330 328 328 328 328 327 327 328 326 326 326 327 325 326 325 323 324 324 323 322 324 324 324 324 323 320 320 321 321 320 321 319 318 317 319 320 321 321 321 321
333 330 327 327 327 327 326 326 325 326 328 327 326 326 327 326 324 323 323 322 322 322 322 323 324 324 322 324 325 322 322 321 321 321 320 320 320 321 319 321 318 317
331 331 329 325 326 327 325 326 326 323 327 328 326 327 327 326 324 323 321 322 320 320 320 323 323 324 325 324 323 322 323 323 320 316 313 315 318 318 318 318 316 316
331 331 332 328 326 326 324 325 325 324 327 325 325 326 325 324 322 325 323 322 319 319 321 321 322 323 325 322 319 322 323 325 323 320 319 319 317 315 317 319 318 314
330 329 329 331 325 323 323 324 326 327 327 326 325 325 326 326 324 326 324 322 322 322 320 321 322 322 325 323 321 321 321 323 323 320 319 318 319 316 315 317 317 317
330 329 328 329 326 323 323 326 324 324 324 325 324 323 322 325 325 322 323 323 322 320 321 321 322 325 324 322 321 321 321 321 322 322 321 320 320 318 314 317 318 317
329 329 329 327 328 324 325 325 322 322 321 322 325 322 321 323 322 321 322 321 324 320 320 321 322 323 323 324 325 324 323 323 322 320 322 322 322 321 321 320 319 319
328 327 327 328 328 327 326 325 322 322 321 322 323 323 323 323 321 320 319 320 321 320 320 321 322 324 323 323 323 326 326 324 324 324 323 323 323 323 320 321 321 320
325 323 325 327 329 329 328 325 324 324 322 322 324 323 325 325 323 322 324 322 320 324 323 322 322 323 325 326 325 324 326 324 325 325 325 325 325 324 323 323 322 322
326 326 328 328 327 327 331 326 325 326 326 325 327 324 325 323 322 322 326 326 326 325 324 325 324 323 322 323 324 325 327 326 326 326 325 325 325 325 325 323 323 322
324 324 322 320 321 323 323 322 321 324 326 324 327 326 328 324 324 324 325 323 324 326 324 324 323 321 320 318 321 324 327 326 326 324 322 321 321 323 321 319 318 319
323 321 322 323 324 322 320 322 320 323 322 321 324 324 326 326 325 326 324 323 323 323 323 321 321 323 316 305 300 315 323 325 324 319 320 319 319 321 319 319 319 322
323 321 322 323 323 321 320 320 322 323 321 322 324 324 324 325 325 323 322 321 321 320 318 317 319 319 306 294 296 298 315 323 323 321 320 318 319 318 317 319 320 322
324 323 323 324 323 321 322 323 322 321 321 322 322 323 323 323 324 324 323 323 321 321 321 320 319 313 300 297 296 296 299 313 322 321 319 318 319 318 320 320 320 320
324 324 323 323 323 323 323 322 321 320 322 322 320 323 324 324 323 324 323 322 322 320 321 322 319 308 301 299 295 295 294 305 320 322 320 320 319 318 318 318 318 317
323 322 322 322 323 321 324 322 321 321 321 322 323 323 322 321 321 321 321 321 321 319 319 318 318 308 301 298 296 295 293 301 318 323 321 319 318 318 319 318 318 316
320 321 321 321 322 322 322 321 322 321 321 322 322 321 320 319 320 319 319 319 320 321 317 317 319 304 297 295 295 294 294 296 314 321 322 322 320 319 321 320 319 319
315 319 323 321 321 321 321 320 320 322 321 321 320 320 320 321 321 319 319 318 318 319 318 317 314 294 293 293 293 293 292 305 314 319 321 320 320 319 321 319 319 318
311 312 314 315 315 319 318 321 322 321 321 321 320 320 319 319 319 319 320 319 318 317 317 317 316 294 291 292 292 292 295 310 317 319 318 317 317 317 314 310 309 311
311 311 311 312 313 313 315 319 320 321 321 321 320 319 320 320 320 317 318 319 317 317 317 316 316 301 290 291 292 291 298 314 317 316 314 314 315 314 311 307 304 304
311 312 312 312 311 312 315 314 317 319 320 321 320 320 320 319 317 316 317 317 318 318 315 315 314 304 291 292 291 292 294 305 313 313 313 312 313 313 310 307 302 298
310 310 310 310 310 311 313 314 313 314 318 320 318 316 315 317 316 316 316 316 317 316 316 314 313 309 297 291 292 292 292 302 311 311 311 312 311 311 309 306 303 299

ECMWFNIL_sfc_thetae_051.txt.gz
Theta_e
322 321 320 320 320 321 319 320 320 320 319 317 315 316 316 316 317 318 318 316 316 316 317 316 316 316 317 315 315 315 316 314 314 314 314 315 314 314 315 313 312 311
322 321 321 321 320 320 319 319 320 320 316 316 316 316 317 317 316 315 315 316 317 317 317 317 316 314 314 314 313 312 312 312 313 318 314 314 313 314 313 312 312 312
323 321 320 319 318 319 319 319 320 318 317 317 317 316 316 315 314 315 315 315 315 313 313 314 314 314 313 312 313 313 312 311 312 313 314 313 312 312 312 311 310 310
322 321 321 319 319 318 319 320 319 318 317 316 316 318 318 318 316 315 317 319 313 313 314 316 315 314 314 313 312 310 311 312 313 312 312 313 315 314 312 312 312 312
322 322 321 319 319 319 319 319 318 316 316 316 317 317 318 317 314 313 313 314 314 314 314 314 314 313 313 313 313 312 313 313 313 312 312 312 312 314 314 314 312 312
323 322 320 319 319 318 318 318 318 317 317 316 316 317 317 316 314 315 314 313 313 314 313 314 314 313 312 313 313 312 311 312 311 311 311 310 312 313 315 313 311 311
323 320 319 320 319 318 317 317 317 318 317 317 318 317 317 316 316 315 313 314 313 314 313 313 313 313 315 315 313 312 312 312 311 311 311 311 311 311 312 311 311 310
323 320 319 319 318 317 317 317 316 316 318 317 317 317 317 317 316 315 314 314 313 313 314 314 314 314 314 313 313 313 313 314 311 311 311 310 309 309 309 311 308 308
324 323 320 319 318 316 317 317 316 317 317 316 317 316 317 317 316 316 316 314 314 314 314 314 315 315 313 313 312 312 313 312 312 309 308 308 309 309 309 309 309 309
323 322 322 319 317 317 318 319 318 317 317 317 317 316 317 317 317 317 317 315 315 315 315 315 316 317 315 314 315 315 313 312 311 311 312 310 310 309 310 311 309 309
322 321 321 319 316 317 318 318 318 317 317 318 316 315 316 317 316 316 316 316 317 315 315 316 317 317 316 314 315 315 314 315 313 312 313 313 312 310 316 311 310 309
321 321 321 319 318 319 317 317 317 317 316 316 317 314 314 316 315 315 316 316 316 315 315 316 316 316 316 316 317 317 315 314 314 314 315 315 314 313 313 313 312 312
319 319 319 317 318 318 319 318 317 316 316 316 317 315 314 314 314 314 315 316 316 315 315 316 317 317 317 317 317 318 316 317 317 316 317 318 318 317 317 316 315 315
319 319 320 318 317 319 319 319 320 318 317 317 318 317 317 317 315 315 316 316 317 317 317 317 316 315 316 316 317 317 319 319 318 316 316 315 317 317 317 316 315 315
318 318 317 317 318 318 318 317 318 319 319 320 319 318 319 317 316 317 318 317 318 319 318 318 318 317 317 316 316 317 319 317 316 316 316 315 315 316 315 316 314 314
318 318 319 319 317 316 317 316 316 317 317 318 319 319 318 318 319 319 318 317 317 316 315 317 317 315 309 305 309 314 316 319 316 315 316 315 315 313 312 313 314 315
316 317 319 319 317 315 313 316 317 316 315 317 316 316 317 318 318 317 317 317 315 313 313 314 316 315 297 293 294 301 314 316 315 315 314 314 314 313 312 312 312 316
318 318 319 319 317 315 316 317 317 315 315 316 314 316 316 316 317 317 316 315 315 313 313 313 313 308 294 294 294 296 305 315 315 315 314 312 313 313 312 313 313 315
319 318 318 318 317 318 317 316 315 315 315 315 313 315 314 316 316 316 315 315 315 314 313 313 312 304 297 294 293 294 297 309 317 315 314 312 313 313 314 314 313 313
319 318 317 317 318 317 316 316 315 314 314 314 313 313 313 312 312 313 313 313 313 313 314 313 312 309 297 294 294 293 292 300 313 316 314 315 315 314 315 314 314 313
316 316 315 315 316 316 315 315 314 313 314 312 311 311 311 310 312 310 311 311 311 311 310 311 314 306 298 295 294 293 292 297 309 312 314 314 314 314 314 314 314 314
315 314 313 314 315 315 315 315 314 313 311 311 309 309 309 309 309 309 310 309 310 310 309 307 310 298 295 295 294 292 292 303 308 310 311 312 313 312 313 314 314 314
306 306 306 305 307 310 313 313 312 312 311 309 311 308 309 310 309 308 310 310 308 308 308 309 311 299 292 293 293 292 295 306 309 311 311 310 310 308 305 304 306 311
305 305 304 304 303 305 307 310 312 312 313 311 310 310 309 311 309 308 308 310 309 309 311 311 311 304 292 293 292 292 299 307 309 311 309 308 307 304 303 302 305 311
303 304 303 303 303 303 303 304 306 309 310 311 310 310 310 309 311 310 308 307 309 310 312 312 310 307 294 293 292 292 297 304 309 309 305 307 305 302 300 300 299 302
302 303 303 302 302 303 304 304 304 304 306 310 311 312 312 311 310 310 308 310 311 310 311 312 310 306 296 291 292 292 293 301 303 304 303 306 304 302 299 297 296 295

ECMWFNIL_sfc_thetae_054.txt.gz
Theta_e
318 317 317 317 316 316 317 317 316 315 314 313 313 312 313 313 314 314 314 314 313 313 313 313 313 313 314 313 313 313 312 312 312 310 312 313 311 312 312 310 311 314
317 318 318 317 316 317 318 318 316 315 314 314 315 313 313 313 313 313 312 313 314 313 312 313 313 312 312 311 310 311 310 310 311 314 311 311 310 310 309 309 310 311
317 317 317 316 316 316 318 318 317 315 315 316 316 315 315 313 311 311 311 312 313 312 311 311 310 310 310 309 309 310 310 309 310 310 311 309 308 308 308 308 309 309
317 318 318 318 318 317 318 318 316 315 316 316 315 315 314 313 311 311 313 316 310 310 310 310 310 309 309 308 308 308 308 309 309 310 311 310 310 310 309 310 309 308
317 317 317 318 318 319 319 317 316 316 315 315 315 314 315 312 311 311 310 309 310 310 311 310 309 309 309 308 308 308 309 309 309 310 310 309 309 311 309 310 309 309
318 318 317 318 318 319 318 317 317 316 315 315 314 314 313 312 310 310 310 310 310 311 310 309 309 309 309 308 308 309 309 310 308 309 309 308 308 308 311 309 308 308
318 318 318 318 318 319 318 317 316 316 316 316 316 314 312 311 311 311 310 311 310 311 310 309 308 308 309 308 308 308 308 308 308 309 309 307 308 308 308 307 308 307
318 318 318 318 318 318 317 317 316 316 316 316 315 315 313 313 312 311 311 311 311 311 310 309 309 309 310 309 308 307 308 310 308 308 307 307 307 307 306 308 306 307
319 318 318 318 317 317 316 318 317 316 317 316 316 315 315 315 314 313 312 310 311 312 312 310 311 311 309 310 308 308 308 308 308 307 306 306 306 305 306 306 307 307
320 320 318 317 317 317 317 317 317 317 317 317 316 316 316 315 315 314 312 311 312 312 311 311 312 311 310 310 311 310 309 308 306 306 306 306 306 306 307 307 306 306
320 319 317 316 317 318 317 318 317 317 317 317 316 316 316 316 315 315 313 312 313 312 312 312 313 312 311 311 311 310 309 308 307 307 307 307 307 307 312 307 307 306
318 318 317 316 317 317 317 318 317 317 316 316 315 315 315 315 314 314 314 313 313 313 313 314 314 312 311 311 312 310 310 310 308 309 309 308 308 309 309 308 307 307
316 316 316 316 316 317 317 317 316 316 316 315 314 313 314 314 314 313 314 314 314 314 314 315 314 313 312 312 313 312 311 311 312 313 312 312 311 311 311 310 310 311
317 317 317 317 317 317 317 317 317 314 316 316 314 312 313 314 314 313 312 314 314 313 313 314 314 313 313 313 314 314 313 313 314 314 314 313 312 311 311 311 311 311
315 317 317 317 317 317 316 315 316 315 315 316 315 315 314 313 313 312 314 314 314 315 315 315 315 315 316 316 316 316 315 315 315 315 314 314 312 312 311 311 311 311
316 316 317 316 316 315 314 314 315 315 316 316 316 315 315 316 314 315 316 316 315 314 314 315 315 314 314 311 313 316 316 316 314 312 312 312 312 310 310 311 312 311
314 315 316 315 314 312 312 313 314 314 314 313 313 313 314 314 315 315 315 315 315 314 313 312 313 311 298 299 304 308 315 313 312 312 310 310 311 310 310 309 309 312
314 315 314 313 313 313 313 314 312 312 313 312 311 313 313 313 314 314 314 314 313 312 313 313 313 303 294 297 300 303 308 313 312 312 311 311 311 310 310 309 309 311
315 314 313 312 312 313 313 312 311 311 311 312 311 311 311 313 312 312 311 311 312 312 312 311 311 295 294 295 295 296 300 309 313 312 311 310 310 311 310 310 309 310
316 314 313 312 312 312 311 311 310 308 308 308 309 310 310 310 309 310 310 310 310 311 308 308 310 297 294 295 295 296 295 301 312 312 312 311 311 312 312 312 311 311
313 312 312 312 312 311 311 309 309 308 309 308 307 309 310 309 310 309 310 309 309 308 306 309 311 296 294 294 294 294 294 295 308 312 312 311 312 312 312 312 312 312
305 304 305 306 310 310 309 308 307 307 307 308 306 305 305 306 306 307 308 308 307 306 306 306 306 293 293 293 293 293 293 301 306 307 309 310 311 311 311 311 312 312
302 302 302 303 304 308 309 308 308 307 307 307 308 306 307 307 309 309 308 308 308 306 306 308 306 296 293 293 293 292 294 304 306 306 306 308 310 310 310 310 311 311
301 301 301 301 301 303 303 305 305 305 306 307 308 307 306 306 306 308 307 308 308 309 309 309 310 300 293 293 293 292 297 305 306 306 306 308 305 303 302 304 309 311
299 299 299 299 299 300 301 301 301 301 302 305 307 307 307 305 306 306 307 306 307 309 310 310 309 306 294 293 293 293 295 303 305 306 306 305 303 300 298 299 301 308
300 300 299 298 298 298 299 300 301 301 301 300 300 302 304 305 304 307 306 307 306 306 308 309 308 307 300 291 293 293 294 302 305 305 305 303 301 301 300 297 297 301

ECMWFNIL_sfc_thetae_057.txt.gz
Theta_e
317 316 316 315 315 317 316 314 313 313 312 311 312 310 312 312 313 311 311 311 312 312 311 311 312 312 313 310 310 311 310 310 310 310 312 314 312 314 315 313 312 315
316 317 317 315 316 317 316 315 314 313 312 311 311 311 310 311 311 310 311 312 311 310 309 309 310 310 310 309 308 309 308 309 310 312 310 309 307 308 309 310 313 312
316 316 316 315 316 316 315 314 314 313 312 311 311 311 313 311 309 308 310 310 310 309 309 309 308 309 308 308 308 308 308 307 308 307 309 307 306 308 307 309 311 313
316 316 316 316 317 316 316 315 314 314 313 313 312 313 313 312 309 310 312 313 308 307 307 307 307 307 307 306 307 306 305 306 306 307 308 307 307 307 307 308 308 309
317 317 317 317 318 318 317 315 314 314 313 312 312 311 313 310 309 308 307 307 307 307 307 307 306 306 306 305 306 307 307 306 306 306 308 307 306 308 307 307 307 306
317 318 318 318 318 318 316 315 314 314 313 312 311 311 310 310 309 308 308 308 307 307 307 306 306 306 305 305 305 305 305 307 305 306 307 306 305 305 308 306 306 305
317 316 316 317 317 317 315 314 314 313 313 313 312 310 309 308 309 309 309 308 308 308 306 305 305 305 305 304 305 304 304 305 305 306 307 304 305 305 305 305 306 305
316 315 316 316 316 314 314 314 313 313 313 315 313 309 308 309 309 309 309 309 308 308 306 305 305 306 306 304 305 305 305 306 305 305 304 304 304 304 304 306 305 305
316 315 316 315 315 314 314 314 314 313 314 314 312 310 309 309 310 309 310 309 309 309 308 306 306 306 306 305 305 305 305 305 305 304 304 304 304 304 304 304 305 305
316 316 316 315 315 314 314 313 313 314 315 314 313 310 311 310 310 309 308 308 310 309 308 307 307 307 307 306 306 306 306 306 305 304 304 304 304 304 305 304 303 304
316 316 315 315 315 314 314 314 314 314 315 314 312 311 310 310 311 310 309 309 310 309 309 308 308 307 307 307 307 306 306 305 304 304 304 304 304 304 312 304 305 304
315 315 316 315 316 315 315 316 315 315 314 314 313 312 311 311 311 310 310 309 310 310 310 309 308 307 308 308 308 306 306 305 305 305 305 305 305 305 306 304 304 304
316 316 316 316 316 316 315 315 316 315 314 313 313 312 312 311 311 310 310 309 310 310 309 310 310 308 308 308 309 307 307 307 307 308 308 306 306 307 307 306 305 305
316 317 316 316 315 316 316 316 315 313 313 313 312 312 312 312 312 311 309 309 309 309 309 309 309 308 307 308 308 307 307 307 308 308 308 309 308 308 308 308 308 308
316 317 317 317 316 317 316 316 315 314 313 312 311 311 312 310 311 311 310 309 310 309 309 310 310 310 309 309 309 309 308 308 309 308 308 308 310 310 309 309 310 308
314 315 316 316 316 316 315 314 314 314 314 313 313 312 310 309 310 310 311 311 311 309 309 310 311 310 312 309 310 312 310 312 310 309 310 310 310 309 310 310 310 309
313 313 314 313 312 313 313 313 313 312 311 311 311 312 312 311 311 310 310 312 312 312 311 311 311 313 307 302 302 306 313 312 312 311 310 310 310 310 310 309 308 310
312 313 313 312 312 312 313 312 312 312 311 309 308 310 311 310 310 310 310 310 311 311 312 313 312 309 299 299 300 301 308 312 311 311 310 308 310 309 310 308 308 309
314 313 312 313 313 313 311 311 310 310 310 310 309 308 309 309 308 310 308 308 309 309 308 308 310 300 295 296 297 297 301 308 312 311 310 310 310 310 309 309 308 307
314 314 312 311 311 311 311 309 309 307 306 306 307 308 308 308 308 309 309 308 308 308 306 306 309 298 293 295 296 296 296 302 312 311 312 312 311 311 311 310 309 309
305 309 311 311 311 309 308 308 307 306 306 304 305 308 308 307 307 308 309 309 308 306 306 310 308 299 293 294 294 294 294 295 308 310 311 310 310 310 310 310 310 310
300 301 303 307 310 309 308 307 306 306 306 306 304 304 303 303 304 305 305 307 308 307 306 307 306 296 294 294 293 293 293 301 304 305 306 308 309 309 309 309 309 309
298 298 298 299 300 301 301 302 302 302 304 304 304 303 304 305 305 305 305 306 306 305 305 302 304 302 294 293 293 293 296 302 304 304 304 305 308 308 308 308 308 309
297 297 297 296 296 297 298 298 299 299 300 303 304 303 303 302 303 303 302 304 305 306 306 305 304 303 296 293 293 293 296 304 306 305 305 304 305 305 305 305 306 310
297 297 296 296 296 295 296 296 297 298 297 297 300 302 301 301 301 301 301 301 302 303 308 306 304 304 296 294 294 293 295 302 305 305 305 304 304 304 300 300 300 305
296 296 296 296 296 295 296 296 296 296 296 296 296 297 297 297 298 299 301 301 301 301 302 303 303 304 301 294 294 294 294 301 304 305 305 305 303 304 304 299 298 299

ECMWFNIL_sfc_thetae_060.txt.gz
Theta_e
318 318 318 318 316 316 315 314 313 313 312 312 314 312 312 312 314 313 313 313 314 313 313 313 314 314 313 312 313 313 313 313 313 313 316 317 316 317 317 316 318 319
317 318 318 317 316 316 316 315 314 313 312 313 314 313 312 312 312 313 313 314 314 312 311 311 312 312 311 311 310 311 311 312 313 315 314 315 314 316 316 316 317 317
316 316 316 316 316 315 314 314 314 313 313 313 313 313 313 312 310 311 312 313 312 311 311 310 310 310 310 310 309 310 310 310 310 310 312 309 310 313 312 314 316 317
316 316 316 316 316 315 314 313 312 313 312 313 313 314 313 313 311 311 313 316 311 310 309 309 309 309 309 308 309 309 308 308 308 309 310 310 311 310 311 313 314 316
315 315 316 316 316 315 314 313 313 312 312 312 311 312 313 311 310 309 309 308 309 308 309 308 308 308 308 309 309 310 310 308 308 309 309 309 309 310 310 312 313 314
314 315 316 316 316 315 314 313 313 313 312 311 312 312 310 310 309 309 309 308 308 308 307 307 307 307 308 308 308 307 308 308 308 308 308 308 308 308 308 309 311 312
314 315 315 316 316 315 314 313 313 313 312 312 311 310 310 309 309 309 309 309 308 310 308 307 307 307 307 308 309 307 307 307 307 308 308 307 309 307 308 308 309 309
315 315 316 316 315 314 314 313 313 312 312 312 312 310 310 310 309 310 309 309 308 307 307 306 307 307 307 308 308 308 308 308 307 307 307 306 307 307 307 307 308 308
315 315 316 316 315 314 313 313 313 312 313 312 311 310 310 310 310 310 309 309 309 307 307 307 308 307 306 307 307 308 308 307 307 307 307 307 307 307 307 307 308 308
315 315 315 315 314 314 313 313 312 312 313 312 312 311 310 310 310 310 310 309 310 309 307 308 308 308 307 307 307 308 308 307 306 306 306 306 307 307 307 307 307 308
314 315 314 314 314 314 313 313 312 313 313 312 312 312 310 311 310 309 309 310 310 309 308 308 309 308 308 308 307 307 307 307 306 306 306 306 306 307 312 308 309 309
314 314 314 314 314 313 313 313 313 312 313 313 314 312 311 311 310 310 310 309 310 310 310 309 309 308 308 308 308 307 307 306 307 307 306 306 306 307 308 307 309 308
314 314 314 313 313 313 314 314 314 313 314 314 314 313 311 310 309 310 311 309 310 310 310 310 309 309 309 309 309 308 308 308 308 308 308 308 308 309 309 308 308 308
315 315 314 314 313 312 312 312 314 314 313 313 313 312 312 311 310 310 310 309 309 310 309 310 309 309 308 309 309 308 309 309 310 310 310 310 310 310 311 310 310 310
315 314 314 314 314 313 313 312 313 313 313 313 313 312 312 311 311 310 310 310 309 310 310 310 310 309 309 309 310 308 308 310 311 311 310 311 311 311 311 311 311 310
314 314 314 313 313 312 313 313 313 313 313 313 313 312 311 311 310 310 311 310 310 310 310 311 310 310 311 308 308 310 309 310 310 310 310 310 311 312 312 311 309 309
312 313 313 312 312 312 312 313 313 313 312 312 313 313 312 311 310 311 311 311 311 310 310 310 310 312 306 302 301 305 310 310 311 310 310 310 310 310 310 311 309 308
312 312 312 311 312 312 312 311 310 310 310 309 309 309 309 310 310 310 310 311 312 311 311 311 311 308 300 299 297 298 305 311 311 311 310 311 311 312 311 311 311 311
313 312 311 311 311 311 310 310 310 309 309 310 309 307 308 308 308 309 308 308 310 311 311 310 310 301 296 296 295 294 296 308 312 312 312 313 313 312 312 312 311 311
313 312 311 310 310 309 309 309 309 308 308 307 308 308 307 307 307 307 307 307 308 308 306 306 308 300 295 295 294 293 293 298 313 311 312 313 313 313 313 312 312 311
308 310 310 309 309 308 308 307 306 306 307 306 306 307 307 305 305 305 307 308 307 305 305 307 308 295 294 293 293 294 293 297 308 309 311 312 313 314 314 313 313 312
300 300 301 302 303 304 304 304 304 304 305 304 304 303 303 303 303 303 304 306 306 306 305 305 306 295 295 294 293 293 295 304 306 308 309 309 311 312 313 312 312 312
298 298 298 299 299 298 299 299 300 301 304 304 305 302 303 304 304 304 304 305 306 305 304 303 305 304 297 294 293 292 297 302 304 305 305 306 309 310 310 311 311 311
297 297 297 297 297 297 297 297 297 298 299 301 303 303 303 303 304 305 304 303 304 306 305 305 306 306 297 297 294 293 298 306 307 307 307 306 307 308 307 308 309 308
296 296 296 296 296 296 297 296 296 296 297 298 298 298 298 299 301 301 300 302 303 302 306 306 305 304 298 297 295 294 297 304 306 307 307 307 306 306 307 306 307 307
295 295 295 295 295 295 296 296 297 297 296 296 296 296 297 297 297 298 298 299 298 299 301 302 303 304 302 296 295 295 294 302 305 306 305 306 307 306 306 307 305 305

ECMWFNIL_sfc_thetae_063.txt.gz
Theta_e
331 329 328 329 330 331 330 329 330 330 330 329 328 329 329 330 330 332 331 331 332 332 332 333 333 334 333 334 334 333 334 334 334 333 333 333 332 332 331 331 332 332
330 329 327 328 327 327 329 330 330 329 329 330 330 329 328 328 329 331 330 330 330 330 330 330 330 330 330 331 331 333 332 333 332 330 333 333 333 333 332 332 332 332
328 328 327 325 324 326 328 329 329 329 328 327 328 329 327 327 328 330 331 330 329 328 328 327 326 326 326 327 328 330 331 331 331 330 332 331 331 332 332 332 331 332
326 327 326 326 326 327 327 326 325 326 326 325 326 326 326 326 328 328 328 328 329 327 326 325 325 324 323 324 326 326 326 327 326 329 328 328 329 330 331 332 331 331
325 326 328 327 327 327 326 325 324 324 326 327 326 325 325 326 326 326 326 326 327 326 325 324 324 324 324 324 325 324 324 323 323 325 325 325 326 329 329 331 331 330
325 326 326 325 325 326 326 325 325 325 325 326 326 324 325 326 326 325 325 325 325 325 324 324 323 323 325 324 324 324 323 322 323 324 323 324 324 326 326 330 330 329
323 325 326 326 326 326 327 326 326 325 326 327 324 323 324 324 325 324 324 324 323 323 323 323 323 323 325 325 323 322 323 322 321 321 320 321 322 323 325 328 328 327
323 325 326 326 326 326 326 325 325 325 326 325 325 323 324 323 323 324 324 323 322 322 322 321 322 322 323 323 321 323 323 323 323 321 320 320 322 320 324 325 327 326
323 323 324 324 325 325 325 324 325 325 325 326 324 323 324 324 323 324 323 322 322 322 321 321 321 322 324 323 323 322 321 322 323 323 322 322 321 320 320 323 325 325
322 323 324 323 324 324 325 325 324 324 324 325 324 323 322 323 324 323 322 322 321 320 320 320 320 321 321 321 321 321 321 320 321 322 321 322 321 318 318 322 324 324
323 324 324 323 324 323 324 324 324 323 324 323 324 323 323 323 322 323 322 321 322 319 319 319 320 320 320 320 322 323 322 322 321 320 321 321 322 321 322 321 322 323
323 323 324 324 323 323 322 323 323 323 323 323 323 322 322 323 322 322 321 321 320 320 319 319 319 320 319 320 320 322 322 323 323 322 321 320 321 321 320 324 324 322
323 323 324 324 323 323 323 322 322 323 322 321 321 321 321 321 321 321 322 322 321 322 321 321 321 321 322 322 321 321 322 322 322 323 322 322 321 321 321 322 321 322
322 323 323 323 323 322 322 323 324 323 323 323 322 321 320 320 320 321 321 322 322 322 323 323 323 322 322 323 322 322 322 322 322 323 322 322 323 323 324 322 322 322
319 320 321 321 321 320 321 322 322 323 322 321 322 322 322 320 319 321 321 320 321 322 322 323 324 324 324 325 324 323 325 323 323 322 323 323 322 323 325 325 324 325
318 319 320 321 321 321 320 321 321 320 320 320 319 320 322 320 319 320 320 321 320 321 322 324 325 326 318 308 312 323 324 322 324 324 324 323 323 323 324 325 325 327
319 319 320 320 318 318 319 319 318 319 320 320 321 321 319 317 319 320 320 321 320 321 322 324 325 320 299 299 299 302 319 324 323 324 325 324 324 324 323 325 325 324
318 317 316 316 316 315 313 314 317 318 319 320 320 320 318 317 318 320 321 321 322 322 323 323 323 300 294 294 295 295 301 322 324 324 325 324 324 323 325 325 325 326
317 317 316 316 315 315 315 318 319 318 319 318 318 317 317 319 319 320 321 322 323 322 323 323 322 295 294 293 293 294 295 307 323 324 323 324 325 325 325 325 325 325
317 316 314 314 315 317 318 318 319 317 317 317 317 316 317 317 319 321 321 321 322 323 323 322 319 297 293 293 293 292 294 306 324 324 324 324 324 325 326 326 326 325
309 311 310 311 313 315 316 315 316 316 316 316 318 319 318 318 319 319 319 319 319 320 321 321 312 292 292 292 292 293 294 304 323 323 324 325 325 325 325 324 324 324
304 304 303 304 306 308 309 310 311 310 311 314 315 316 316 317 316 317 319 319 320 322 323 321 309 292 292 292 293 294 293 318 323 324 324 324 324 324 323 324 323 323
302 302 301 302 303 303 303 304 305 306 308 312 314 313 313 312 311 312 313 316 317 318 320 321 312 296 292 293 293 293 301 320 320 320 321 322 323 323 322 323 323 322
300 301 302 302 302 302 302 302 304 305 305 307 309 309 308 309 311 310 310 310 310 310 310 315 313 299 293 293 294 293 300 318 320 320 321 321 321 321 321 321 321 312
300 300 300 300 300 300 302 302 303 303 304 306 306 307 307 307 309 309 308 308 309 309 305 310 310 302 292 292 293 294 303 313 315 318 318 320 320 320 321 320 321 316
300 299 299 299 299 300 300 301 302 304 304 304 304 304 303 302 303 304 304 304 305 307 308 307 306 304 295 290 292 294 294 307 312 314 315 315 316 315 315 317 318 319

ECMWFNIL_sfc_thetae_066.txt.gz
Theta_e
338 336 334 334 333 333 333 332 333 332 332 331 329 331 330 333 334 334 335 335 334 333 332 334 334 335 335 335 336 332 333 337 336 338 338 338 337 338 336 335 335 333
336 334 334 335 334 334 334 334 333 332 332 332 332 331 333 333 334 335 334 334 333 332 332 334 334 334 334 332 334 333 332 336 334 334 338 338 338 338 338 337 335 334
335 336 336 334 334 335 335 335 335 333 331 332 333 333 333 335 334 335 334 333 333 331 332 334 333 332 333 333 334 333 332 333 333 334 335 335 337 337 338 337 336 334
336 335 335 335 336 335 335 334 334 333 333 331 331 332 333 334 335 334 333 332 332 331 331 332 331 329 329 331 333 330 331 331 331 333 333 334 336 337 337 337 336 334
335 335 336 335 334 334 334 333 331 331 331 331 332 332 330 332 333 332 332 331 332 329 328 329 331 331 330 330 330 329 329 328 330 330 328 330 333 336 336 336 335 334
335 334 334 334 334 332 331 332 330 331 332 333 331 330 330 330 330 330 330 330 329 327 326 327 328 330 330 329 329 329 328 327 329 329 327 328 332 335 333 336 335 334
334 334 335 333 334 332 332 332 332 332 332 332 330 330 331 330 329 330 330 330 328 326 325 326 327 329 330 329 328 327 327 327 327 326 325 327 331 333 334 335 334 333
334 335 334 334 334 333 332 331 332 331 333 331 330 330 329 327 327 328 330 329 326 324 324 323 325 327 328 327 325 325 326 326 325 325 325 327 329 329 334 334 335 332
333 333 333 333 333 332 332 330 330 331 331 330 329 327 328 326 326 329 329 327 325 324 322 322 323 325 327 325 324 324 323 325 325 325 325 325 326 328 328 332 333 332
332 333 334 333 332 331 331 331 331 330 329 328 327 327 325 326 328 327 327 326 324 322 322 321 322 325 324 323 323 323 323 323 323 324 324 324 323 324 325 328 328 328
331 332 333 333 332 330 331 331 330 329 327 326 326 325 325 326 326 327 326 324 324 322 321 321 321 323 324 324 325 325 324 323 322 323 324 324 324 323 326 326 327 327
330 331 331 332 332 331 332 331 330 328 327 327 325 324 324 325 325 325 323 322 322 321 320 321 321 322 323 323 323 324 324 324 324 323 323 323 323 324 324 325 324 325
329 331 331 331 331 331 331 330 329 329 327 326 325 324 324 324 324 324 324 322 321 321 320 320 320 321 323 324 323 323 323 323 324 324 323 323 323 322 323 325 324 324
328 331 331 331 331 330 329 329 328 328 326 326 324 323 323 323 323 323 324 323 323 322 322 323 322 322 322 322 323 323 323 323 323 324 322 323 323 322 323 322 323 323
330 330 331 330 328 328 328 328 328 328 327 326 325 324 324 324 324 323 322 323 322 324 323 323 323 323 324 324 324 322 324 323 323 322 323 322 323 323 323 323 323 323
325 325 325 325 326 326 327 327 327 328 327 326 325 324 324 324 323 323 321 322 322 322 323 325 325 328 317 300 308 326 324 323 324 324 323 323 322 322 323 323 323 325
324 322 321 321 323 324 325 325 324 325 325 325 325 325 324 323 324 323 324 322 321 322 322 324 327 326 297 298 300 304 321 325 324 323 324 323 323 322 322 323 323 323
321 320 320 320 320 319 320 321 323 324 322 322 322 322 324 325 324 324 325 326 324 323 323 324 328 296 294 296 296 295 304 331 325 324 324 323 323 322 323 324 324 325
319 319 319 319 319 319 319 320 322 322 323 322 322 324 325 323 323 322 322 324 325 322 324 326 322 294 293 294 295 294 294 308 325 325 324 323 323 324 324 325 325 327
320 319 318 319 321 322 322 321 321 321 322 323 323 322 322 321 321 322 323 323 324 325 324 320 312 297 293 293 294 293 294 299 328 327 326 325 325 324 326 327 328 328
321 320 320 321 321 321 320 320 320 320 320 322 323 323 322 321 320 320 321 322 323 324 320 315 308 293 293 292 294 293 295 297 328 329 327 327 327 328 329 329 329 329
315 317 319 319 319 319 319 318 318 319 319 321 321 321 321 320 320 322 322 322 323 323 321 316 307 291 291 293 293 295 293 319 328 328 327 328 329 331 330 330 329 329
309 309 310 312 314 313 312 313 315 319 321 323 321 321 320 319 318 318 320 320 321 323 322 316 310 295 291 292 293 291 298 327 327 326 326 327 328 329 328 328 329 328
307 306 306 306 306 307 308 309 311 313 315 317 317 317 317 316 315 313 313 313 315 318 319 314 308 297 291 292 292 292 296 323 325 325 326 325 326 328 327 327 326 313
308 308 308 307 306 308 310 310 310 310 312 313 311 311 312 313 313 312 312 313 312 310 308 310 308 300 291 291 291 292 302 322 323 324 324 324 324 324 327 326 327 317
307 307 307 307 307 308 309 309 310 311 310 309 308 307 307 309 310 310 310 310 311 310 310 311 311 306 295 290 291 293 292 309 321 320 319 319 321 320 320 322 323 322

ECMWFNIL_sfc_thetae_069.txt.gz
Theta_e
335 335 334 330 328 328 332 332 332 331 332 332 331 332 331 334 334 333 333 334 333 333 333 334 334 335 334 335 335 332 336 336 336 337 338 335 335 336 333 334 335 334
333 334 331 330 329 331 334 334 332 331 332 333 333 331 333 334 333 334 332 332 332 332 333 333 334 333 334 332 334 332 331 337 336 332 337 336 334 335 334 332 334 334
333 332 330 329 331 333 334 334 334 332 332 333 334 333 333 334 333 333 333 332 332 332 332 332 334 333 333 333 333 332 331 334 331 333 337 335 335 336 335 337 336 334
334 334 332 332 334 333 333 332 332 332 333 332 332 333 332 333 333 333 333 331 331 331 332 333 333 332 331 332 333 330 331 331 331 333 334 337 337 335 335 336 334 333
335 334 333 331 331 332 333 331 331 331 332 332 333 333 331 332 333 331 332 330 330 329 330 331 331 331 331 331 331 331 332 330 332 332 330 332 335 335 335 334 333 332
335 333 332 331 332 331 331 330 329 329 331 332 332 332 332 332 329 330 329 329 328 328 328 330 330 329 330 330 331 330 329 329 330 330 329 329 333 335 333 333 332 330
335 333 332 331 331 330 330 329 330 330 330 331 330 330 331 330 330 330 329 329 329 326 325 328 329 329 330 330 329 327 327 328 328 327 326 328 332 332 333 332 331 329
335 334 333 331 330 329 330 329 329 329 331 330 330 331 330 328 329 329 330 329 327 325 325 326 328 328 328 328 326 327 327 327 327 326 326 328 332 331 331 330 332 330
334 334 332 331 329 330 329 328 330 330 329 329 329 330 330 329 329 329 329 328 326 326 324 325 327 327 327 327 327 326 324 326 326 327 327 328 331 331 330 330 329 330
335 333 332 331 330 330 330 330 329 330 328 328 328 328 326 327 328 328 329 327 325 323 323 324 326 326 325 325 324 324 324 325 325 326 326 327 329 330 330 331 330 330
336 332 331 330 330 330 330 329 330 328 328 326 327 325 325 327 327 329 328 326 324 322 321 323 325 325 323 323 324 325 324 324 325 324 325 325 327 328 330 327 328 327
333 333 330 330 329 330 330 330 329 328 326 328 324 323 325 327 326 328 326 323 322 321 320 321 322 322 322 323 323 325 325 325 325 326 325 324 325 326 327 327 326 325
333 333 329 329 329 329 330 329 328 327 325 324 323 324 324 326 326 325 325 322 321 322 320 320 322 323 323 324 324 324 324 324 325 325 325 326 325 326 326 326 326 326
323 329 329 330 329 329 329 329 328 326 325 324 324 323 323 324 324 324 324 322 322 321 321 322 322 323 323 323 323 324 324 324 324 325 324 324 325 325 326 326 326 326
325 326 327 328 327 329 328 328 328 326 326 324 323 323 324 324 325 325 323 323 321 322 321 322 323 324 325 326 324 323 324 324 324 322 323 323 323 323 324 324 324 325
325 325 324 324 325 325 326 327 327 327 325 323 323 323 324 324 324 324 324 323 323 323 323 324 325 327 306 298 302 320 324 322 324 324 323 323 323 323 323 323 323 325
325 325 324 325 327 325 325 325 326 326 324 323 324 324 324 324 323 322 323 323 322 323 324 326 327 315 295 294 296 296 315 325 324 323 323 323 323 323 322 322 323 324
322 323 322 322 320 321 325 325 325 324 323 322 323 322 322 324 324 324 324 324 323 323 324 325 317 297 293 295 295 294 298 315 325 324 323 323 323 322 322 321 321 322
322 321 320 321 320 321 322 322 323 325 322 321 322 324 324 324 324 325 325 325 324 326 323 318 313 295 294 294 295 294 294 304 322 325 323 322 322 322 322 323 323 323
322 321 320 320 320 320 321 322 322 322 323 324 324 325 324 324 324 324 324 324 326 323 316 310 306 296 293 293 293 293 293 297 322 325 325 322 320 321 323 323 324 326
320 319 319 320 322 322 320 320 321 323 324 325 324 324 322 321 321 322 323 324 323 317 312 307 302 292 292 292 293 293 292 297 322 326 325 324 324 325 326 327 328 328
319 319 319 320 321 321 320 320 321 322 322 323 321 321 322 324 324 324 323 323 321 317 313 309 303 291 291 292 292 292 293 318 326 326 324 323 322 325 327 329 328 328
315 318 320 319 319 319 318 319 321 321 323 325 324 323 322 321 320 319 321 322 320 317 313 309 305 294 291 291 292 291 302 324 328 325 324 325 326 325 327 325 324 322
311 312 313 315 315 315 315 315 317 320 321 323 322 321 320 319 319 316 314 313 313 311 309 306 303 295 291 291 292 291 296 319 325 323 323 323 324 326 327 325 317 312
310 310 310 311 311 312 314 312 313 314 315 315 314 314 316 317 315 314 312 312 313 311 308 306 303 298 291 291 291 291 299 315 322 321 321 322 322 324 325 324 319 309
310 310 310 310 310 310 311 311 311 311 311 311 312 311 312 313 313 312 311 311 311 311 312 310 305 301 295 290 292 293 292 308 321 319 320 320 320 319 317 318 321 315

ECMWFNIL_sfc_thetae_072.txt.gz
Theta_e
335 334 333 332 332 334 332 331 332 333 334 334 332 332 335 336 335 338 336 338 337 335 337 336 336 337 336 336 332 332 337 335 336 336 336 335 334 334 334 334 333 332
335 334 333 333 332 331 332 332 333 334 335 334 334 334 335 334 336 335 334 334 335 335 336 336 335 335 334 333 336 335 333 336 337 335 335 335 334 335 333 333 333 333
334 334 332 331 330 330 331 332 336 334 335 334 334 334 334 334 336 334 334 332 333 333 336 336 336 336 335 333 334 337 333 335 331 331 332 333 333 333 333 333 333 332
334 333 332 332 331 330 332 334 334 335 334 334 332 335 332 333 335 334 336 333 331 333 336 335 335 335 333 333 334 334 332 333 334 335 334 334 335 333 331 333 333 332
334 333 333 332 332 333 333 332 332 334 332 334 334 333 331 332 334 331 334 332 330 332 334 334 335 334 331 332 334 331 332 332 333 334 332 333 333 333 332 333 331 331
334 332 331 332 333 333 331 331 331 332 332 334 333 332 332 332 331 330 331 330 329 329 332 331 331 332 333 331 332 331 332 331 332 332 329 330 331 333 331 332 331 330
331 331 332 332 332 332 331 330 331 331 333 332 331 333 332 331 330 328 328 330 327 327 327 331 330 332 331 332 331 331 331 329 331 330 327 329 331 331 329 330 329 328
332 332 331 331 331 331 329 331 330 331 331 331 331 332 332 330 328 332 329 330 326 324 328 328 330 329 330 331 331 329 328 332 331 330 328 328 331 329 330 330 330 328
332 331 331 331 330 329 329 329 330 330 330 331 331 329 332 331 329 330 329 329 326 326 325 328 328 327 330 331 328 328 327 330 329 329 329 329 330 329 327 328 329 329
332 330 331 330 329 330 329 328 329 329 330 329 330 330 329 334 330 329 330 331 327 324 326 326 327 329 330 326 326 328 327 325 326 328 329 330 330 329 327 327 327 328
331 331 328 328 329 329 328 329 329 329 328 327 329 330 329 333 328 332 328 328 327 323 323 325 326 326 327 326 329 328 328 327 325 325 327 328 329 329 330 328 327 328
329 330 328 328 329 329 328 327 328 328 327 328 326 325 326 332 328 331 326 323 324 322 323 326 324 326 324 324 323 327 328 328 329 327 326 326 326 326 326 328 327 326
327 327 326 328 328 327 327 326 326 326 326 325 326 329 326 330 327 327 330 323 323 323 323 325 325 326 327 327 325 327 326 327 326 328 327 326 328 326 327 326 326 326
325 327 327 328 328 328 327 327 326 325 325 324 326 324 327 328 328 325 328 326 327 322 323 326 325 324 323 326 327 325 327 327 327 328 327 326 327 325 326 327 326 326
325 325 326 326 324 326 327 325 324 325 324 324 324 325 329 328 326 324 325 325 321 325 321 323 318 312 308 310 320 325 328 326 327 326 326 326 325 326 326 326 326 326
326 326 326 326 326 325 326 325 325 325 323 322 322 324 328 326 325 326 327 321 322 321 323 319 316 308 300 296 300 314 321 322 327 326 325 325 324 323 324 325 324 319
324 324 325 326 325 325 326 324 323 322 322 322 323 325 324 324 325 326 324 323 323 322 319 316 308 302 295 293 294 296 315 322 325 327 327 325 325 322 323 323 324 322
322 322 323 323 324 325 325 324 322 322 322 322 322 323 324 325 325 324 325 324 321 318 317 313 308 297 293 294 294 294 298 316 321 321 327 325 323 324 323 323 322 322
320 318 318 319 321 322 322 323 323 322 321 321 322 324 325 324 324 325 325 323 319 315 313 311 307 295 293 294 294 294 293 306 320 323 322 322 323 323 324 324 322 323
319 318 318 318 318 319 319 321 322 321 322 322 323 323 323 323 323 324 322 318 315 314 310 307 302 296 293 293 294 293 294 299 321 323 324 324 323 322 323 321 321 319
319 318 318 318 316 316 317 319 320 320 321 321 321 320 320 321 322 321 319 315 313 311 308 304 300 292 292 293 293 294 294 302 320 325 324 323 323 323 322 321 321 322
318 318 318 317 317 317 317 317 318 318 317 317 318 319 320 319 319 321 318 316 314 312 308 305 300 291 291 292 292 292 297 319 324 325 325 324 322 323 322 322 321 321
317 318 318 318 318 318 318 319 319 319 320 320 319 318 316 315 314 315 318 315 311 309 307 303 300 293 291 291 292 291 303 319 323 324 323 323 320 319 319 315 315 319
314 315 314 314 314 313 313 314 315 315 316 318 318 317 316 315 314 312 310 309 306 305 304 302 300 295 291 292 293 292 297 316 320 321 321 321 320 319 318 311 306 308
312 313 313 313 312 311 311 311 312 312 312 313 313 315 314 314 312 311 310 309 308 306 305 302 300 297 293 292 293 294 301 314 317 316 317 319 319 318 317 310 305 301
310 308 309 310 311 311 310 310 310 311 311 310 311 312 313 312 311 310 308 307 307 308 306 304 301 299 295 292 294 295 297 309 309 309 310 313 315 316 318 313 309 303

ECMWFNIL_sfc_thetae_075.txt.gz
Theta_e
329 329 329 329 328 328 328 328 328 328 327 328 328 328 328 328 330 329 328 330 330 329 329 329 329 329 331 330 329 330 330 330 330 331 330 329 329 329 328 327 326 326
327 327 326 328 328 326 327 328 328 328 327 327 327 328 329 329 329 329 328 327 328 328 328 328 328 329 329 327 327 329 329 330 330 333 330 329 328 329 328 327 326 326
327 327 327 327 327 326 326 326 327 328 327 326 327 328 328 327 327 325 325 325 325 326 327 327 327 327 327 327 327 328 328 327 328 330 330 330 328 328 327 327 326 326
327 327 328 327 325 326 325 325 326 327 327 326 326 327 328 328 325 324 326 328 323 325 326 326 326 326 327 326 327 327 327 326 327 326 326 327 327 328 327 327 325 326
330 328 327 326 326 326 324 325 325 326 326 326 326 326 326 325 324 325 323 322 323 323 324 324 324 325 325 324 325 325 324 324 326 327 327 326 326 327 327 328 326 324
328 326 326 327 326 325 326 326 326 326 326 325 325 325 325 324 324 323 323 322 322 323 323 322 323 324 325 324 324 324 324 324 325 327 327 326 326 327 330 328 325 324
327 326 327 327 327 326 326 326 326 326 326 325 325 324 324 323 323 323 322 321 321 321 321 320 321 323 323 323 323 322 323 323 324 325 326 325 326 326 328 327 326 324
328 327 327 327 327 326 325 326 326 326 325 325 324 323 324 323 322 323 322 321 320 319 321 322 322 321 321 322 322 321 321 324 323 322 323 325 325 324 326 327 324 323
327 327 327 326 326 325 325 325 325 325 326 324 324 323 324 324 323 324 324 321 319 319 320 320 321 320 319 321 319 319 319 321 322 322 322 323 323 324 325 325 324 322
326 326 326 326 324 323 324 324 325 325 325 324 324 324 324 324 324 324 323 320 319 319 320 320 320 320 320 319 320 320 320 320 321 321 322 322 323 323 324 324 324 323
323 324 323 323 323 323 325 325 324 324 324 324 323 323 323 324 323 324 322 319 319 319 319 319 319 319 319 318 319 319 319 320 320 320 322 323 323 324 327 324 324 323
323 323 323 323 323 323 324 323 323 323 323 323 323 322 322 322 322 322 320 318 318 318 318 319 318 318 318 316 316 318 318 319 320 321 322 321 322 323 323 323 322 321
322 323 323 323 323 323 323 322 322 322 322 321 321 320 321 320 322 321 317 316 317 317 318 317 316 315 316 315 318 317 318 319 320 320 320 321 320 322 323 323 322 322
320 321 322 323 323 322 321 321 321 320 320 321 321 320 320 321 322 319 317 315 316 314 312 311 309 307 308 312 317 317 317 317 318 318 318 320 320 321 322 322 321 320
321 321 321 322 323 322 321 320 320 319 319 319 318 319 322 321 320 318 317 316 315 313 310 308 306 304 302 303 312 317 317 316 317 317 318 318 319 320 320 318 316 315
322 321 322 321 321 320 319 319 319 319 318 318 319 320 318 317 317 318 316 314 312 310 308 306 304 303 300 297 301 315 317 319 318 315 315 316 316 317 316 315 314 314
321 320 321 322 321 320 320 320 318 317 316 318 319 320 319 319 318 317 315 314 312 309 306 304 302 299 295 294 295 301 315 315 316 317 316 315 314 316 315 313 311 311
319 319 318 318 319 318 318 318 318 318 319 320 320 320 319 318 316 315 314 313 311 309 306 304 300 295 293 294 295 296 302 315 317 318 318 317 316 316 316 315 316 317
318 317 316 316 317 318 319 318 319 320 320 319 319 320 319 316 314 312 311 311 309 306 304 303 301 293 292 294 294 295 297 311 317 317 317 317 317 317 316 316 316 316
316 315 314 315 315 316 318 318 318 318 318 319 319 319 317 315 312 311 310 308 307 305 303 301 298 295 292 293 294 295 298 309 319 319 319 318 318 318 318 318 317 316
315 315 315 315 315 315 315 316 316 316 317 317 317 317 315 313 311 309 308 307 306 304 302 299 297 293 293 293 293 295 297 310 320 320 319 319 318 318 318 318 318 318
315 314 314 314 314 314 315 315 315 315 314 314 314 314 314 313 311 309 306 305 304 302 300 299 297 292 293 293 293 294 304 319 321 319 316 316 316 317 317 318 318 318
315 314 314 314 314 315 315 315 314 314 314 314 313 312 310 308 306 306 305 303 302 301 299 298 298 294 292 293 293 294 308 318 318 317 316 315 313 311 310 311 314 316
312 312 312 312 312 312 312 312 313 313 313 314 312 310 308 307 305 304 303 301 300 299 299 298 297 295 293 294 295 298 307 315 317 317 315 313 309 307 305 303 304 308
310 311 310 310 309 309 310 310 311 311 311 312 311 310 308 308 307 306 304 303 302 300 302 297 296 296 294 295 295 297 304 309 311 313 313 311 308 306 303 301 299 298
309 309 309 309 308 308 309 309 309 309 310 310 309 309 307 306 304 303 302 302 302 302 301 298 296 294 294 293 295 295 298 305 306 308 308 310 309 307 305 302 300 298

ECMWFNIL_sfc_thetae_078.txt.gz
Theta_e
327 327 326 325 326 327 328 327 327 327 326 326 326 327 328 328 328 328 328 329 328 328 328 328 327 328 330 329 329 330 329 328 327 326 326 325 323 324 324 323 321 322
326 327 326 326 324 325 326 327 326 326 324 325 327 326 327 327 327 328 328 327 327 327 328 327 327 328 328 328 327 328 326 327 326 329 326 325 324 324 324 322 321 320
326 326 325 325 325 324 323 323 324 325 326 326 326 327 327 326 326 326 326 326 326 326 326 326 326 327 326 325 325 326 326 325 326 325 326 325 324 325 323 321 321 322
325 326 326 326 324 324 323 323 323 325 325 324 325 327 328 327 324 324 325 329 324 324 325 325 325 325 325 325 324 324 326 326 326 326 324 322 323 324 323 322 320 321
324 326 327 326 325 325 324 325 325 325 325 325 325 324 325 322 322 323 323 323 324 323 323 324 324 324 323 324 324 323 322 323 323 326 325 323 322 324 322 323 322 321
326 326 325 326 326 324 324 324 326 325 325 324 324 324 323 323 322 321 321 322 323 323 322 322 323 322 322 323 323 323 322 323 323 325 325 325 323 322 327 323 322 321
326 325 324 325 325 324 323 325 326 325 325 325 324 323 323 323 322 321 322 323 323 322 321 321 322 320 321 322 322 321 321 322 323 324 325 323 323 321 324 322 321 321
326 325 324 324 323 323 324 324 325 325 325 324 323 323 323 322 322 322 321 322 321 320 320 321 321 321 320 321 321 320 320 323 323 323 323 322 322 323 321 324 321 321
325 325 323 324 323 323 324 324 325 325 325 323 323 322 323 322 322 321 321 320 320 320 320 320 321 320 319 320 320 320 319 319 322 322 322 322 322 323 323 322 320 320
323 324 324 324 323 323 323 323 324 324 324 323 323 322 322 322 322 321 320 319 320 320 320 320 319 319 319 320 319 318 319 319 320 320 322 322 322 323 323 322 321 319
322 322 323 322 322 322 323 323 324 324 323 323 323 322 322 322 322 321 319 319 320 320 320 319 319 319 317 316 318 318 319 319 320 320 321 321 322 323 326 322 320 320
321 320 321 321 322 322 322 323 324 323 322 323 323 322 321 321 321 320 319 318 319 320 319 318 317 317 317 317 317 316 317 318 319 320 321 322 322 323 323 322 321 318
321 320 321 321 322 322 323 323 323 323 322 322 322 322 320 320 321 319 318 317 316 316 314 313 313 312 313 314 316 316 318 319 319 320 320 321 322 322 320 319 318 319
321 320 321 321 322 322 323 323 322 321 321 320 321 320 320 320 318 315 314 314 312 311 309 309 309 308 309 312 314 316 317 318 318 317 318 319 320 320 320 319 318 318
319 320 320 320 322 322 322 322 321 319 319 319 319 319 319 317 315 314 312 311 310 309 307 307 306 304 304 304 311 315 315 316 317 317 317 317 318 318 318 317 314 312
319 320 320 320 320 320 320 320 319 318 318 317 317 316 315 315 314 313 311 310 308 307 306 305 304 303 301 299 304 314 315 315 315 316 317 316 316 312 311 311 312 312
320 320 320 320 319 318 318 318 316 317 317 317 316 315 314 313 312 311 310 309 307 306 304 303 302 300 295 294 298 307 314 314 314 313 314 315 313 310 309 311 313 314
319 319 318 318 318 316 317 317 318 318 317 315 314 313 313 312 311 310 309 308 307 305 304 302 300 297 293 294 297 302 308 315 315 315 314 313 312 313 314 315 315 315
318 317 316 315 316 316 317 317 318 317 316 314 312 312 311 310 309 308 307 307 306 305 303 302 300 295 293 295 298 302 304 311 315 315 314 314 316 316 315 315 314 314
316 316 316 316 316 316 317 316 316 315 314 313 312 311 309 308 307 307 306 305 304 303 301 300 299 295 293 294 299 302 303 308 316 316 316 316 316 316 315 314 314 313
315 315 314 315 316 317 316 315 315 314 314 312 311 310 309 307 306 305 304 304 303 302 302 300 298 293 293 294 298 303 303 307 317 317 316 316 316 316 316 316 315 315
314 313 314 313 313 315 315 314 313 312 311 311 309 308 307 306 304 303 302 301 301 302 302 300 299 293 293 295 298 304 306 314 316 316 315 314 314 315 316 316 313 311
312 313 313 313 313 313 313 312 311 310 309 309 306 305 303 302 302 301 302 301 301 301 300 299 298 295 293 295 298 304 307 315 314 312 310 308 306 306 307 308 309 308
310 310 311 311 312 311 311 311 310 310 308 308 305 304 302 301 301 300 300 299 298 298 299 298 296 295 293 295 297 301 308 314 311 308 306 303 301 301 301 301 303 306
309 309 309 309 309 309 310 309 308 307 307 307 306 305 303 303 302 300 299 298 298 298 301 297 295 295 293 294 295 299 308 312 310 307 304 302 301 299 299 299 299 298
307 308 308 308 308 308 308 308 308 308 307 306 305 304 302 302 301 300 298 297 297 297 297 297 296 295 294 293 294 296 301 310 309 306 303 302 301 300 299 298 298 297

ECMWFNIL_sfc_thetae_081.txt.gz
Theta_e
326 326 325 326 324 324 324 325 325 325 324 323 324 325 326 328 329 329 329 328 328 327 327 327 327 327 328 328 328 327 326 325 325 324 323 323 321 321 322 320 319 321
325 326 325 323 322 323 324 326 325 326 325 325 325 323 325 326 327 329 328 328 327 326 326 326 326 327 327 327 327 326 324 324 324 326 323 321 320 321 322 321 320 318
324 324 324 324 324 324 323 323 324 324 325 325 325 325 326 326 325 326 328 327 326 325 325 325 326 326 327 326 326 326 325 322 323 322 323 322 320 322 320 319 318 319
324 325 325 326 325 324 323 322 323 324 324 323 324 325 326 326 325 325 325 329 325 325 325 325 325 325 325 325 325 325 324 324 323 324 322 320 321 321 320 320 318 318
325 324 325 326 325 324 323 323 323 323 324 324 324 324 324 324 323 323 323 323 324 323 324 324 324 324 323 324 324 323 323 323 322 323 323 321 320 322 320 321 319 319
326 326 326 326 325 324 323 324 324 324 324 323 323 323 322 322 323 322 322 322 322 323 323 323 323 323 323 323 322 323 322 322 322 323 323 322 321 320 323 321 319 319
326 326 326 326 325 325 323 323 324 324 324 324 323 322 321 321 322 322 322 322 321 322 322 322 322 320 321 321 321 320 320 322 322 323 323 319 321 319 321 320 320 319
326 326 326 326 325 324 323 323 323 323 324 324 323 322 322 322 322 321 322 321 320 320 320 321 320 320 318 320 320 319 318 321 322 322 322 320 319 320 318 321 319 319
327 326 325 324 323 323 322 322 323 323 324 323 323 322 322 322 322 321 321 321 320 319 319 319 320 319 318 320 319 319 319 319 321 321 321 320 320 320 320 318 317 316
324 323 322 322 322 322 321 322 323 323 323 323 323 322 322 322 321 321 320 320 319 319 319 319 319 318 318 319 320 318 318 319 319 319 320 321 321 320 320 319 317 316
322 322 321 321 321 321 321 322 322 322 323 323 322 322 322 322 320 319 319 319 319 319 318 318 318 318 318 316 316 317 318 318 319 318 319 319 320 321 324 319 317 316
321 321 321 321 321 322 322 322 322 322 322 322 322 322 321 321 319 319 319 318 318 318 318 317 316 316 317 316 316 315 315 316 317 318 318 319 319 320 319 317 316 314
321 322 322 321 321 322 321 321 322 322 322 321 322 322 320 319 319 318 317 317 316 316 315 314 313 312 313 314 314 314 315 315 316 316 317 318 319 319 317 317 317 316
320 321 322 321 321 321 321 321 321 320 321 321 321 321 319 319 317 315 313 313 312 310 309 309 309 308 309 311 312 315 316 315 316 316 317 318 317 317 317 317 316 316
320 320 320 320 321 321 321 321 320 321 320 319 320 320 318 316 314 313 310 309 308 308 307 307 306 304 304 305 312 312 314 315 315 317 318 317 315 315 314 313 312 311
320 320 320 320 320 320 321 320 320 320 319 317 318 317 315 313 312 311 310 308 307 305 305 305 303 303 302 299 305 313 314 316 315 316 317 315 313 311 310 310 310 310
319 320 320 319 319 319 318 319 319 318 317 316 315 314 313 311 310 308 307 306 306 304 303 303 302 301 296 296 302 307 314 314 315 314 314 313 311 309 308 309 311 311
319 319 319 318 318 317 318 318 317 316 314 314 313 312 310 309 308 307 306 305 305 304 303 302 301 297 294 298 301 303 308 314 314 313 311 310 310 310 311 312 312 312
319 318 318 317 315 316 316 316 316 314 313 312 311 311 309 308 306 306 305 305 305 303 302 302 301 295 296 299 299 300 303 310 313 312 310 310 311 312 313 312 311 311
316 317 317 315 315 316 316 315 313 311 311 311 310 309 307 306 305 304 304 304 304 303 302 301 301 296 297 299 299 300 302 307 314 313 313 313 313 313 312 311 310 310
314 314 315 315 316 315 313 312 311 309 309 308 308 308 306 305 305 304 303 303 303 303 303 301 299 294 297 298 299 301 303 307 315 315 314 314 314 314 313 312 310 309
313 314 314 315 314 312 311 310 309 308 307 306 306 305 304 304 303 303 303 302 302 302 303 301 299 294 297 299 300 302 305 313 313 312 311 310 309 310 310 309 309 308
310 312 312 313 312 310 309 308 307 305 305 305 302 302 302 301 301 301 302 302 302 301 300 298 298 295 297 298 299 301 305 310 307 305 303 302 302 303 304 305 306 306
308 309 309 310 310 309 308 306 306 305 303 303 302 300 299 299 298 298 298 299 299 299 300 299 298 296 296 299 300 301 305 309 307 304 302 301 300 300 300 300 302 305
307 308 308 308 306 305 305 304 304 303 303 303 302 300 299 299 298 297 297 297 298 299 301 299 298 298 295 297 299 301 305 307 305 303 301 300 299 299 298 298 297 298
303 305 306 307 306 305 305 304 304 302 302 301 299 299 298 298 298 297 297 297 298 298 298 298 297 297 296 295 297 299 301 306 305 303 300 299 299 299 298 297 296 296

ECMWFNIL_sfc_thetae_084.txt.gz
Theta_e
324 324 324 325 325 326 326 328 329 329 329 328 327 327 327 327 328 328 328 328 328 328 328 328 328 328 329 328 328 327 327 326 326 326 326 325 324 324 323 323 323 324
323 323 324 325 325 324 325 327 328 328 328 327 326 326 326 327 327 328 327 327 327 327 327 328 328 328 328 328 327 327 326 326 325 326 325 324 324 323 324 323 323 323
323 323 324 324 324 324 325 325 326 326 327 327 326 325 325 327 326 327 327 327 327 326 325 327 327 328 328 328 327 327 326 325 325 325 325 324 323 323 323 323 322 323
323 324 324 325 324 325 324 324 324 324 324 324 324 325 326 326 326 326 326 329 327 326 325 325 326 327 328 328 327 326 326 326 326 325 324 322 323 324 322 322 321 321
323 324 324 325 326 326 324 324 323 323 324 324 324 325 326 325 325 325 325 326 325 324 324 324 325 325 326 326 326 325 325 324 324 325 324 323 322 323 321 322 322 321
324 324 324 325 326 325 324 324 324 323 324 323 323 324 325 325 324 324 324 324 323 324 323 323 323 324 325 326 325 325 324 324 324 324 324 323 322 322 323 322 322 322
324 324 323 325 325 325 324 324 324 324 324 324 323 323 323 323 323 324 324 323 322 323 323 323 323 323 323 324 324 323 324 324 323 324 324 322 323 322 323 322 323 322
324 325 325 325 324 323 323 324 324 324 324 324 323 323 323 323 323 323 323 323 323 323 323 323 323 323 322 323 323 322 322 323 324 324 323 322 322 323 322 322 322 321
325 325 325 324 324 324 324 324 323 323 324 323 323 322 322 323 322 322 323 323 323 322 322 322 322 322 322 323 322 322 322 322 323 324 323 322 322 323 322 321 321 321
324 324 324 324 323 324 324 324 323 323 323 323 323 322 321 322 322 322 322 322 322 322 322 321 321 320 321 322 322 322 322 322 322 323 323 323 323 323 322 321 321 320
322 322 322 323 323 323 323 323 323 323 323 323 322 321 321 321 321 321 321 321 321 321 321 321 320 320 320 320 320 321 322 321 321 322 322 322 323 323 324 321 321 321
321 320 320 321 322 322 322 322 322 323 323 322 322 321 321 321 320 320 321 321 321 321 321 321 320 320 320 319 319 319 319 320 321 321 321 322 322 322 322 320 320 319
320 321 320 320 320 321 322 322 323 323 323 322 322 321 320 320 319 319 320 320 320 320 320 319 319 318 318 318 318 318 318 319 319 319 320 321 321 321 320 320 320 320
320 321 322 321 321 321 321 322 322 322 322 322 321 320 320 320 319 318 317 317 317 317 316 316 316 315 315 316 317 317 318 318 319 319 319 320 319 319 319 319 320 320
321 322 322 322 321 321 321 321 321 321 321 320 320 320 320 319 316 315 313 311 311 311 311 312 313 313 313 315 316 316 317 317 318 319 319 318 317 317 315 315 314 314
321 321 321 321 321 321 320 321 321 320 320 320 319 319 317 315 314 313 312 311 309 308 308 308 307 306 305 307 311 317 317 317 318 319 318 317 315 312 311 311 311 313
320 320 320 320 320 320 320 320 320 320 318 318 318 316 315 313 312 311 310 310 309 308 307 306 303 303 298 295 302 307 316 318 318 317 316 315 314 312 310 310 310 311
316 319 319 319 319 320 320 320 320 318 317 316 315 314 312 311 310 309 308 307 307 306 305 304 303 298 295 295 299 303 309 317 317 315 314 313 312 311 312 312 312 312
313 317 318 318 319 319 318 318 317 316 315 314 314 312 310 309 308 307 307 307 307 306 304 304 303 296 296 296 298 301 303 311 315 314 312 312 312 313 313 313 313 312
311 315 316 316 316 316 316 316 315 313 313 313 311 310 309 307 307 306 306 306 306 306 304 303 303 297 296 297 298 299 301 306 313 313 313 313 313 313 313 312 312 312
310 313 313 314 314 314 313 312 310 309 309 308 308 308 307 306 306 305 305 305 305 305 305 303 301 296 296 297 297 299 301 305 314 314 313 313 312 311 311 310 310 311
308 311 311 310 309 309 308 307 307 306 305 305 305 304 303 304 304 305 305 305 305 306 306 305 301 295 296 298 299 300 304 313 312 311 309 308 307 307 308 308 309 309
306 308 308 308 307 305 304 304 303 303 303 303 302 301 300 300 300 302 303 304 305 305 305 304 303 296 296 298 300 300 304 309 308 306 304 302 302 301 302 304 306 305
305 306 305 305 305 304 303 302 301 301 300 301 300 299 298 298 299 299 300 301 302 303 305 305 303 297 295 297 299 300 304 308 306 304 302 301 300 299 299 299 301 304
303 304 305 304 303 302 302 301 300 300 300 300 299 299 298 299 299 299 299 299 300 302 305 302 302 300 296 296 298 299 304 306 305 303 301 299 299 298 299 298 298 298
299 302 303 304 303 302 301 300 300 299 299 299 298 298 298 298 299 298 297 297 298 298 299 299 300 299 297 295 297 298 300 306 305 303 300 299 299 298 297 298 298 298

ECMWFNIL_sfc_thetae_087.txt.gz
Theta_e
333 332 332 332 332 333 335 334 335 335 335 335 333 333 333 332 331 331 332 333 334 334 334 334 335 335 335 335 335 335 335 335 334 332 332 333 334 335 333 334 335 334
332 332 331 331 331 332 333 334 333 332 333 334 334 334 334 333 332 331 331 331 332 334 334 335 334 335 334 334 335 335 335 333 332 332 332 333 334 335 335 335 336 336
332 332 331 330 329 331 332 332 333 333 333 334 334 334 333 333 333 331 331 330 331 333 334 334 333 334 334 332 331 330 333 334 331 331 332 333 334 333 334 335 336 335
330 330 329 329 330 330 331 331 332 332 333 333 333 333 333 333 332 332 332 331 332 333 333 333 332 332 331 329 329 329 331 333 334 333 332 334 332 332 334 337 335 335
327 328 329 329 329 329 330 330 330 331 330 331 332 333 332 332 332 332 333 332 333 332 332 332 332 331 331 329 329 328 330 330 333 334 333 332 333 332 334 334 333 333
327 327 328 328 329 330 329 329 330 331 330 331 332 332 332 332 332 332 332 332 332 332 331 331 330 330 330 330 329 328 329 330 331 331 331 333 332 333 332 333 334 333
327 328 327 328 330 330 330 329 330 331 330 330 331 332 332 332 331 332 332 332 331 330 330 330 330 329 329 329 329 328 329 330 328 329 329 329 328 330 332 334 333 333
327 328 328 328 328 329 327 328 329 330 330 329 329 330 331 331 332 332 332 332 332 331 330 330 330 329 329 329 329 329 328 329 330 329 329 329 331 330 333 333 335 333
327 327 328 328 325 326 327 328 329 330 330 329 329 330 331 332 333 333 332 332 331 330 330 330 329 329 329 330 330 329 327 328 329 329 329 329 331 332 332 332 331 330
325 326 326 327 325 327 328 329 329 329 329 329 329 330 330 331 333 333 331 330 330 330 330 329 329 328 330 331 331 331 329 328 328 328 329 332 333 333 333 332 331 330
324 325 325 325 326 327 328 329 328 327 327 327 329 329 329 330 331 332 330 330 328 329 330 330 329 329 331 332 334 334 331 330 330 329 330 334 335 335 333 333 333 332
324 325 325 325 325 326 327 328 328 327 327 327 328 328 328 329 330 330 330 329 330 330 332 331 330 331 332 333 334 335 332 331 332 331 333 335 334 335 334 335 334 334
322 324 325 325 325 325 326 326 327 328 327 326 328 328 328 327 327 326 327 329 330 330 330 330 330 331 333 334 334 334 334 334 334 333 332 335 334 334 334 335 335 334
319 321 324 325 325 326 326 326 326 326 326 327 327 328 328 327 324 324 326 327 328 328 327 327 328 330 332 333 333 333 333 333 333 333 332 332 333 333 334 335 335 335
316 318 321 324 325 325 325 324 325 325 326 326 326 327 327 327 325 325 325 326 327 326 324 325 327 329 331 332 332 331 333 332 333 332 332 331 330 332 332 332 333 333
314 316 318 320 322 323 324 324 325 325 325 325 325 326 327 327 325 325 325 326 324 323 324 325 327 328 323 315 318 330 331 331 332 333 332 331 330 330 329 328 329 330
312 314 316 318 321 322 324 324 324 324 324 324 325 325 325 325 324 323 324 325 324 322 321 321 321 318 302 304 307 311 327 331 332 332 332 331 330 328 326 325 324 323
311 314 317 319 321 322 323 323 324 323 322 320 320 321 322 323 324 322 322 322 322 322 320 318 315 301 295 299 301 305 315 331 331 331 330 329 327 327 325 324 322 321
310 313 316 318 319 320 321 322 322 322 320 320 320 320 319 319 319 318 315 315 316 317 316 314 311 295 295 297 300 302 306 319 329 329 328 326 324 323 322 322 322 321
309 311 312 314 315 316 317 319 321 320 319 320 318 317 317 316 315 315 313 313 315 315 315 315 313 297 295 297 299 300 304 314 327 325 324 323 322 321 321 321 321 321
308 309 310 311 312 311 310 309 311 313 313 313 312 314 314 313 312 311 312 313 314 315 315 313 308 294 295 297 298 299 302 309 322 321 321 320 320 321 321 322 322 322
306 307 308 309 309 309 307 305 304 305 306 307 308 309 309 309 308 310 311 312 314 315 313 309 303 294 296 297 298 301 304 318 319 318 317 317 317 318 318 320 321 321
305 306 306 306 306 307 306 304 302 302 303 304 303 303 302 302 302 305 308 312 313 313 310 307 305 298 296 297 299 302 308 316 314 314 314 314 313 313 313 314 316 318
304 305 305 304 304 303 303 304 303 302 301 302 301 300 300 300 302 303 304 306 308 309 310 309 307 299 296 298 299 301 307 314 313 313 312 311 310 308 308 307 306 307
302 304 304 304 303 303 303 303 302 301 301 301 301 300 299 300 300 300 300 301 303 304 304 305 305 301 295 295 297 300 309 313 311 310 309 308 305 303 306 305 305 302
302 303 304 303 303 303 303 304 303 302 301 300 300 300 299 299 299 298 297 297 298 300 300 301 300 299 297 294 296 298 300 310 310 308 304 303 304 304 305 306 306 303

ECMWFNIL_sfc_thetae_090.txt.gz
Theta_e
337 337 336 336 335 336 336 337 339 338 338 337 336 337 337 339 337 338 339 339 340 341 340 340 338 335 334 333 334 334 333 334 334 334 334 334 335 335 334 335 334 334
335 336 335 335 334 334 334 336 338 339 338 339 338 338 340 339 338 338 337 337 338 339 339 340 338 335 335 335 337 335 333 331 331 332 335 333 335 334 331 331 337 335
334 334 334 333 333 333 334 335 336 337 338 339 341 340 338 339 338 338 337 337 337 337 339 340 336 333 334 334 336 334 332 332 334 333 333 335 333 330 333 336 333 336
332 333 332 333 334 333 335 334 335 334 337 337 339 340 339 338 337 337 337 337 336 336 338 339 338 336 334 334 334 334 333 336 337 337 335 335 334 333 334 334 334 333
331 331 332 332 333 334 334 333 333 334 334 337 339 339 338 337 335 334 336 336 336 336 336 338 339 336 332 331 335 336 336 336 336 335 334 334 332 333 336 335 331 330
331 330 331 332 333 333 333 333 334 334 335 336 338 338 339 337 335 334 335 335 335 335 335 335 336 336 334 333 335 335 335 335 335 334 334 333 333 336 335 334 332 330
329 331 331 332 333 333 333 333 334 334 334 336 337 337 337 336 334 333 334 335 335 334 335 335 336 336 335 335 334 334 335 335 334 333 332 332 332 332 332 333 333 331
328 330 331 332 332 333 332 332 333 334 333 333 333 334 336 336 335 335 335 337 336 335 336 336 336 335 334 334 333 332 334 334 334 333 333 332 333 332 331 333 331 332
327 328 329 330 331 331 332 332 332 332 333 332 332 332 334 335 335 336 337 335 335 336 334 335 335 334 334 334 333 333 332 333 332 332 332 333 333 333 330 331 332 334
326 327 328 329 329 330 331 332 334 333 333 331 330 333 332 334 335 336 337 336 336 334 335 335 335 335 334 333 333 333 332 332 332 332 332 333 334 333 331 331 332 333
324 325 326 328 329 329 330 330 332 332 333 332 332 331 332 332 333 336 337 335 334 332 334 335 335 335 334 334 334 333 334 333 332 332 332 334 336 335 332 331 333 335
322 323 323 324 326 329 329 329 330 330 330 331 330 330 331 332 333 334 335 333 335 335 336 334 336 335 334 334 335 334 334 333 334 333 333 335 335 335 332 332 333 334
319 320 321 322 324 327 329 329 328 329 328 329 330 329 329 330 332 331 330 333 336 336 336 337 336 335 335 334 332 331 330 330 331 334 335 335 334 332 333 332 334 334
318 319 321 322 323 324 326 328 328 329 329 329 329 329 329 329 330 331 332 334 334 335 336 337 336 335 334 332 331 330 331 332 333 335 335 333 331 331 332 334 335 334
317 319 320 322 324 325 325 326 327 328 329 329 329 330 331 330 331 330 328 330 333 335 335 337 335 332 336 332 332 332 330 329 334 333 331 331 330 331 334 335 335 335
316 318 319 321 322 324 325 326 326 327 328 328 328 329 330 329 329 329 329 329 331 331 332 332 330 331 328 318 319 326 329 330 332 332 331 331 332 332 334 335 334 335
315 317 319 320 320 321 323 324 325 326 327 327 328 328 329 329 328 328 329 330 329 329 330 329 329 330 315 307 310 312 326 329 331 332 334 334 334 334 333 334 335 335
314 316 318 319 320 319 319 320 322 324 325 325 326 327 329 330 329 327 327 328 329 328 328 328 327 313 302 303 307 309 315 330 329 328 332 334 334 334 334 334 335 335
312 314 316 318 318 318 317 316 316 319 322 324 324 326 327 326 326 327 327 328 327 326 326 327 324 300 297 300 303 306 309 319 332 332 334 334 334 333 334 333 333 332
310 312 313 315 316 316 315 313 311 312 314 318 324 326 325 326 326 325 325 326 326 326 326 326 322 300 295 298 301 303 306 314 332 335 334 334 333 333 333 333 333 331
309 310 312 314 315 314 313 311 309 308 309 311 314 317 317 316 316 317 317 318 321 324 324 323 315 295 294 296 298 301 305 312 333 333 330 331 331 331 331 332 332 331
308 309 311 313 313 312 310 309 307 307 306 307 309 310 311 313 313 314 315 317 319 321 317 313 306 294 295 296 298 301 308 328 330 330 329 328 329 328 325 329 330 330
308 308 309 310 311 310 309 308 306 306 305 306 306 306 306 306 307 308 309 312 312 312 311 310 309 298 296 297 299 302 314 328 327 326 325 325 326 327 326 327 328 327
308 308 309 309 309 308 308 308 307 307 306 305 304 303 302 302 302 301 302 304 304 306 308 308 308 299 295 297 298 300 315 324 322 321 320 318 315 316 317 315 312 311
309 308 307 307 308 309 308 307 307 307 307 306 305 304 302 301 300 299 299 300 301 301 301 303 305 301 295 295 295 299 315 321 320 318 314 311 312 312 312 311 310 305
309 308 307 306 307 309 309 308 308 307 307 306 305 303 301 301 300 298 297 298 299 299 299 300 301 301 297 294 296 298 302 315 315 313 310 309 311 312 310 310 309 308

ECMWFNIL_sfc_thetae_093.txt.gz
Theta_e
336 337 337 337 336 337 337 337 338 336 337 335 335 337 339 340 342 341 341 341 341 340 340 338 340 335 336 339 340 340 338 337 338 338 337 337 337 338 335 335 333 332
335 335 336 336 336 336 337 337 337 336 335 338 335 336 338 339 339 341 340 340 340 340 341 341 338 337 337 339 337 337 337 338 338 338 336 336 337 335 334 334 333 333
333 334 334 334 334 335 336 336 337 337 337 339 340 339 336 336 336 336 338 339 339 338 339 339 337 338 338 338 337 336 337 337 335 336 336 336 338 334 335 335 334 333
331 332 333 334 334 334 335 335 335 336 336 337 337 339 338 337 335 335 336 335 336 338 338 339 337 337 338 339 337 336 337 336 336 336 335 336 336 334 333 335 335 333
331 331 332 333 334 335 335 334 334 334 335 335 335 339 339 337 335 336 335 337 339 339 339 337 339 336 337 338 336 336 336 336 336 334 333 334 336 335 335 334 333 332
330 330 331 331 333 334 334 333 333 334 334 335 334 334 338 338 335 334 332 332 338 337 336 334 335 337 337 336 336 336 336 335 335 333 331 332 333 335 334 333 332 331
328 329 330 331 332 332 333 334 334 334 334 337 336 336 334 333 333 332 330 331 335 336 337 337 336 335 338 338 336 336 335 335 334 332 330 332 334 331 333 331 331 330
327 328 329 330 330 331 331 332 333 333 335 336 337 338 335 331 330 332 333 332 331 335 337 336 337 338 337 335 334 336 334 336 334 331 332 331 330 328 331 333 332 331
326 327 328 328 328 330 331 332 333 334 334 335 335 336 336 333 332 333 332 332 333 336 336 336 336 334 334 335 334 333 333 332 333 331 331 330 329 330 331 331 330 332
324 325 326 326 326 327 329 331 333 333 333 333 333 333 333 334 334 331 330 331 331 330 334 336 335 334 332 332 333 333 331 331 331 330 330 332 331 331 333 330 328 329
323 324 324 324 325 325 327 328 330 332 333 333 334 334 333 334 334 332 331 331 330 329 330 330 334 331 332 334 332 332 332 331 333 331 332 333 332 334 333 332 330 330
322 322 322 323 324 325 326 327 327 329 331 332 333 332 334 334 333 332 331 331 332 331 331 330 332 334 331 331 332 335 336 335 332 332 332 331 333 332 332 332 332 332
320 321 321 322 323 324 326 327 328 328 329 330 331 331 331 332 331 331 330 331 332 332 332 332 332 331 332 332 332 331 332 334 335 332 332 333 332 331 331 332 333 332
320 321 321 322 323 324 324 325 327 328 329 331 331 330 330 330 330 329 331 333 333 331 329 329 331 329 330 331 332 334 335 334 333 331 330 330 330 330 335 333 333 335
319 320 321 323 323 323 323 323 323 324 326 329 330 331 331 331 331 331 330 330 333 332 330 331 330 330 331 331 333 331 333 334 333 332 332 331 327 329 332 334 333 333
318 319 320 321 322 321 322 322 321 321 322 323 327 329 330 331 332 331 329 329 331 331 331 332 330 331 326 318 318 333 334 334 333 333 332 331 329 329 332 333 333 334
316 317 319 320 321 321 320 319 318 318 318 318 319 324 328 329 328 328 329 329 330 330 331 330 327 327 312 307 310 315 329 334 333 332 332 331 328 329 329 330 330 329
315 316 317 318 319 319 318 317 316 316 314 313 314 317 322 326 328 329 328 330 327 328 329 328 328 313 303 303 305 309 317 334 333 332 331 331 330 329 328 328 329 329
314 315 316 317 318 317 317 316 314 313 311 310 311 314 317 321 324 326 327 328 328 328 326 327 328 301 303 303 303 302 305 321 335 332 331 330 330 329 327 329 329 329
313 314 315 316 317 316 315 314 312 311 310 309 310 311 312 314 316 320 324 325 325 327 326 328 321 297 297 300 302 301 302 311 332 332 331 330 327 327 328 328 330 328
313 312 313 314 315 315 314 313 312 311 310 308 308 308 308 308 310 311 316 320 323 326 325 316 307 294 294 294 296 296 298 304 331 331 331 328 330 329 328 327 330 327
312 311 311 313 314 314 312 311 310 309 308 307 308 307 307 306 306 307 308 311 314 316 316 313 308 293 294 294 295 296 294 324 327 328 327 329 330 327 328 331 329 329
312 311 311 312 313 312 311 310 309 308 307 307 306 305 304 304 304 304 305 305 307 309 311 310 307 296 292 294 295 295 305 327 328 326 327 328 326 323 321 316 313 321
311 311 311 311 311 310 309 309 309 308 307 306 304 304 303 302 303 303 302 302 302 303 304 306 305 298 293 294 294 296 310 325 326 324 320 319 315 315 316 314 310 305
310 310 310 311 310 310 309 308 307 307 307 306 305 304 303 302 302 302 301 300 300 300 300 301 302 299 293 293 295 297 313 327 321 318 317 317 315 313 313 313 311 305
309 308 309 310 310 310 309 307 307 307 306 306 305 304 303 303 303 302 300 299 300 300 299 298 299 299 295 293 295 296 303 320 318 316 314 313 313 310 308 308 307 305

ECMWFNIL_sfc_thetae_096.txt.gz
Theta_e
334 334 334 333 334 335 335 336 336 336 337 337 337 337 338 338 336 334 336 337 334 333 333 334 335 334 333 335 335 335 333 332 332 334 333 332 331 331 330 331 332 332
333 333 333 333 333 334 335 336 335 335 335 336 337 337 338 338 339 339 337 337 333 333 333 334 333 334 335 332 332 331 332 331 330 334 332 331 330 331 330 331 331 332
331 331 330 330 331 332 334 335 335 336 335 335 337 338 338 339 339 338 338 336 335 334 334 334 332 332 334 335 333 332 331 331 331 332 332 331 330 330 329 332 331 332
328 328 329 329 330 331 332 333 334 335 335 334 335 336 337 338 337 336 337 337 335 334 333 333 333 334 333 332 331 331 332 333 331 331 330 330 330 331 330 331 330 332
326 327 328 328 329 330 331 331 332 333 333 334 335 336 336 336 336 334 336 335 335 334 333 329 329 330 333 333 331 331 332 331 332 332 331 329 331 331 330 330 330 330
326 326 327 328 329 329 329 329 330 331 331 332 334 334 334 335 335 335 336 335 335 334 333 331 332 332 332 332 331 331 331 330 331 331 331 329 330 332 332 331 331 331
324 326 327 327 327 327 327 328 329 330 332 333 333 333 334 334 335 333 333 333 333 331 330 331 329 329 330 331 330 330 330 331 332 331 329 330 330 330 331 332 330 331
324 325 325 325 326 326 326 325 326 327 329 331 332 333 333 333 334 334 334 333 332 331 331 331 331 330 330 330 331 330 328 330 329 330 329 329 331 329 330 331 331 330
323 323 323 324 324 324 324 325 326 326 327 327 329 332 333 333 333 333 332 331 332 332 332 331 330 330 330 331 330 330 328 329 329 328 327 329 329 329 330 331 331 330
322 322 322 322 322 323 324 325 325 327 327 327 328 330 331 333 333 332 332 332 331 331 331 331 330 330 331 332 331 330 328 327 329 329 329 329 330 330 330 331 330 329
321 321 321 321 322 323 325 325 325 326 327 327 328 327 329 331 331 332 331 332 329 331 330 330 329 330 329 329 329 329 329 329 328 328 329 330 330 329 331 330 330 329
319 320 319 320 322 323 324 324 323 322 323 324 325 326 328 329 330 330 331 331 331 330 331 332 331 331 330 329 329 330 329 329 329 329 329 329 329 330 330 331 329 329
318 319 319 320 322 322 322 321 320 320 319 319 321 322 322 325 328 329 329 330 329 330 330 330 331 332 332 330 330 330 329 328 327 327 328 329 328 329 329 329 330 329
317 318 318 320 321 321 320 320 318 317 317 317 317 317 319 320 322 327 329 330 329 329 329 330 330 330 331 330 329 330 329 328 328 328 329 328 329 329 330 328 329 330
317 317 318 319 319 319 318 317 316 316 315 315 314 315 316 318 321 325 327 328 330 328 327 328 329 330 330 330 329 329 330 329 328 328 328 327 328 328 328 328 327 328
315 316 317 318 318 317 316 315 314 314 313 312 312 312 313 316 318 321 323 325 327 327 327 327 328 329 327 318 319 330 328 328 327 327 328 326 327 327 326 328 329 327
314 314 316 315 316 316 315 313 313 313 312 311 311 311 311 312 314 314 317 321 324 326 326 325 326 328 311 305 305 311 328 328 327 327 328 327 327 326 327 327 328 327
313 313 313 314 315 313 313 312 312 311 310 310 309 309 309 309 309 310 312 316 319 321 323 325 327 313 301 301 300 300 312 327 326 325 325 325 326 324 326 328 326 325
312 312 312 313 313 313 312 312 311 310 309 308 307 308 307 307 307 307 308 310 312 315 317 315 314 297 294 295 298 300 303 318 326 325 324 325 325 326 326 326 327 325
311 311 311 312 312 312 311 310 309 308 307 307 307 306 305 305 305 305 305 306 307 309 313 311 307 297 292 294 294 294 296 306 326 326 325 327 327 325 324 324 324 323
311 311 311 311 311 311 310 308 308 307 306 306 306 305 304 303 304 303 302 303 303 304 308 309 307 295 292 292 293 293 293 305 325 326 325 324 325 325 324 325 325 325
310 310 310 310 310 309 308 307 307 307 305 305 305 304 304 303 303 302 301 301 301 301 302 304 305 296 293 292 293 294 301 321 325 325 323 321 317 315 315 318 323 324
309 309 309 310 309 308 307 306 306 306 306 306 304 304 303 302 302 301 301 300 300 299 299 301 302 298 293 293 293 298 313 323 322 319 317 315 312 311 310 310 314 323
307 308 308 308 308 306 306 306 307 306 306 306 304 303 302 302 302 302 301 301 300 298 298 298 300 298 293 293 296 302 312 320 318 315 313 312 310 310 309 306 304 305
305 306 307 307 307 307 307 306 306 306 305 305 305 304 303 303 303 302 301 301 301 300 299 297 297 297 294 293 297 300 311 319 317 314 312 310 308 306 306 305 303 300
304 304 304 304 305 307 306 306 306 306 305 304 304 304 303 303 302 302 301 301 301 300 299 297 296 296 295 292 295 297 302 314 314 311 307 306 306 305 303 302 301 300

ECMWFNIL_sfc_thetae_099.txt.gz
Theta_e
326 326 325 325 326 328 328 328 329 329 329 330 330 331 331 331 331 331 330 331 330 329 329 330 330 330 331 331 330 330 329 330 330 330 329 331 331 330 329 327 327 327
324 324 324 324 324 325 326 327 327 328 328 328 329 329 331 331 332 330 330 331 331 330 329 328 327 329 329 329 330 329 329 329 328 331 328 327 329 329 328 327 328 329
322 321 321 321 322 322 324 326 326 327 327 329 330 330 331 331 331 330 330 330 330 330 329 328 327 328 328 328 329 328 327 328 327 329 328 328 330 329 329 328 328 328
320 321 322 323 323 323 323 324 324 325 326 326 327 331 332 332 330 329 330 333 331 330 329 328 327 327 329 329 328 326 327 329 329 328 327 328 329 330 330 329 328 327
319 321 323 323 323 322 322 322 322 323 323 324 326 328 329 329 328 329 329 328 329 329 329 327 326 326 327 328 328 326 327 328 328 328 327 327 327 328 328 328 327 327
320 321 320 320 321 320 320 320 320 321 322 322 323 325 327 328 328 329 326 327 328 329 329 328 326 326 327 327 328 327 327 326 327 328 327 326 327 328 328 328 327 327
318 318 318 319 319 319 318 319 320 320 321 322 323 323 325 327 327 328 328 327 328 328 327 326 325 324 325 325 326 326 326 327 328 328 328 328 327 327 328 327 326 326
316 316 316 317 317 318 318 319 319 320 321 322 321 323 324 325 326 327 328 327 327 327 327 327 326 326 325 325 325 325 325 327 327 327 327 327 327 327 327 329 328 325
316 315 316 316 316 317 318 319 320 319 319 317 318 319 320 322 322 325 328 326 326 326 326 326 326 326 325 325 325 325 325 326 327 326 324 324 325 326 327 328 328 325
315 315 315 315 315 317 318 317 316 316 316 315 315 316 316 317 319 322 325 327 326 325 325 326 326 325 325 326 326 326 326 327 327 326 325 325 325 326 326 327 327 326
313 314 314 314 315 317 315 315 314 314 314 314 313 313 314 315 317 319 321 325 326 327 326 326 326 326 325 325 325 325 327 327 327 326 326 326 326 325 327 326 326 326
312 313 313 313 315 315 313 313 312 312 312 313 313 312 313 314 315 316 320 323 325 326 326 325 326 326 327 327 326 325 324 325 326 326 327 326 325 326 327 326 326 326
311 312 312 313 314 313 312 312 311 311 312 311 312 312 311 311 313 314 315 318 322 324 325 326 326 326 326 326 327 326 325 325 325 325 325 325 326 327 327 326 326 327
310 311 312 314 313 312 311 311 311 311 311 310 311 310 310 310 310 310 311 314 317 321 323 324 325 324 325 326 326 326 326 326 325 324 323 323 324 325 326 327 326 326
310 311 312 312 312 311 310 310 311 310 310 309 309 308 308 308 309 308 309 310 312 315 318 320 322 321 314 307 314 323 326 326 326 325 325 324 324 324 325 326 325 325
310 311 311 311 311 310 310 309 309 309 308 307 308 307 307 307 307 306 306 307 307 309 313 315 314 309 304 298 299 307 315 324 327 324 324 324 323 323 324 325 325 325
311 311 311 311 311 310 309 309 308 308 307 306 306 306 305 305 305 304 303 304 304 305 307 311 311 307 298 294 294 297 308 317 323 323 324 323 323 323 322 322 323 324
310 310 310 310 310 309 308 308 308 307 306 305 305 304 304 304 303 302 302 302 302 303 303 306 308 305 295 294 294 293 299 312 322 323 322 321 322 323 322 321 322 321
309 310 309 308 307 308 308 307 307 306 305 305 304 304 304 303 302 302 301 301 301 300 301 303 304 300 295 294 293 293 293 301 320 322 320 321 322 322 323 322 320 320
308 309 308 306 306 307 307 306 305 305 305 305 304 304 303 302 302 301 301 301 300 299 299 301 302 299 294 293 293 292 292 296 319 320 319 322 323 323 322 321 321 320
307 307 307 306 305 305 305 305 304 304 304 304 304 303 302 301 301 301 301 301 300 299 299 299 300 296 293 292 292 292 292 294 321 322 319 318 320 321 320 320 321 321
304 305 305 306 304 303 304 304 303 302 302 304 303 303 303 302 302 301 300 300 300 299 298 297 298 295 293 293 293 292 291 314 319 315 313 311 310 311 311 312 318 320
303 303 302 303 303 302 301 302 301 300 301 303 302 302 301 301 301 300 300 300 300 299 297 296 297 296 292 294 296 298 307 314 312 310 309 307 306 307 306 305 307 317
303 303 302 301 301 301 300 300 299 299 299 301 300 300 300 300 300 300 299 299 299 298 298 296 296 296 293 294 296 299 306 311 309 308 306 305 304 303 303 303 303 302
302 302 301 301 300 301 302 300 299 298 298 298 299 300 300 300 300 299 299 298 299 299 299 296 296 295 293 293 294 297 305 310 307 304 302 302 302 301 301 301 300 300
301 302 301 300 299 299 299 300 299 298 297 297 297 298 298 299 299 299 298 297 298 298 298 297 296 295 294 292 293 294 297 305 304 302 300 299 300 300 299 299 298 298

ECMWFNIL_sfc_thetae_102.txt.gz
Theta_e
321 321 321 320 320 321 321 322 323 323 324 326 326 327 327 328 328 328 329 329 328 328 328 328 328 329 329 328 328 328 328 328 328 328 328 328 327 327 326 327 328 327
320 320 320 319 320 320 320 320 320 321 321 322 323 323 325 327 329 329 329 328 328 328 328 327 327 328 328 328 328 328 328 328 327 329 328 328 328 329 328 329 328 328
318 318 319 319 318 317 318 319 319 320 320 321 321 322 324 326 328 330 330 328 328 327 327 327 327 327 327 327 328 327 326 326 326 327 328 328 328 327 328 328 327 327
316 318 320 319 317 317 318 318 318 319 319 320 320 322 323 325 325 325 326 329 328 327 327 327 327 326 326 327 328 328 327 326 326 326 326 327 327 328 327 328 326 326
315 315 315 316 316 317 316 316 317 318 318 318 319 320 321 321 322 323 324 326 326 327 327 326 327 327 326 326 327 327 327 326 326 326 326 326 327 327 327 328 328 326
313 314 315 316 316 316 317 317 317 317 316 315 316 317 317 318 318 319 321 322 325 326 325 325 326 326 325 325 324 325 326 326 326 326 326 326 326 327 327 328 328 327
313 313 314 315 315 316 316 315 315 314 313 313 313 313 314 314 315 316 318 320 324 326 326 325 324 324 324 324 325 326 327 327 327 327 326 325 326 326 327 327 327 327
312 312 313 314 314 313 313 312 312 311 312 312 311 312 312 312 313 315 317 319 322 325 326 326 326 326 325 324 324 324 324 326 326 326 326 326 326 326 327 327 327 326
311 312 312 313 312 311 310 310 310 310 312 310 310 310 311 312 313 314 315 318 321 324 325 325 325 325 324 324 324 325 325 325 326 326 326 326 326 326 327 327 326 325
310 311 311 311 309 309 309 309 309 310 310 309 309 310 310 311 312 311 312 313 316 319 322 323 324 324 323 323 324 325 325 325 325 326 326 326 326 326 326 326 326 326
309 310 309 309 308 308 308 309 310 309 310 309 309 308 309 310 310 309 309 310 312 314 317 319 321 323 324 324 325 325 325 326 326 327 327 327 326 325 326 326 325 325
308 309 309 308 308 308 309 310 309 309 308 309 308 307 308 308 307 307 307 308 309 311 313 315 318 321 316 314 314 317 322 326 326 327 327 327 327 326 326 325 325 326
308 308 308 308 308 309 309 309 308 308 308 307 307 306 306 306 306 305 306 306 306 307 308 310 315 314 310 307 307 308 313 320 325 326 326 326 327 327 326 325 325 325
308 308 309 309 309 309 308 308 307 307 307 307 306 305 305 305 305 304 304 304 305 305 306 307 311 311 308 305 303 303 305 312 320 324 325 325 325 326 325 325 325 326
309 309 309 308 308 308 308 307 306 306 306 306 305 305 305 305 304 304 303 303 303 303 303 304 307 309 308 305 300 299 301 303 312 321 325 324 324 324 324 324 324 325
308 307 307 307 307 307 307 306 306 306 305 305 304 304 304 304 304 303 303 302 302 302 302 302 304 306 307 302 299 298 298 300 306 316 322 324 323 323 323 323 324 324
306 305 305 305 306 306 305 305 305 305 305 304 304 304 303 303 303 302 302 302 301 301 300 301 302 304 300 295 295 295 296 298 302 310 320 323 323 322 322 322 323 324
304 304 304 304 304 304 303 304 304 304 304 303 303 303 303 303 302 301 301 301 301 301 300 300 301 302 296 294 293 293 294 297 300 307 319 322 322 321 321 321 321 322
304 303 302 302 303 302 302 301 302 302 303 303 302 303 302 301 301 300 300 300 300 299 299 299 299 298 294 293 293 293 293 294 301 310 320 320 320 321 320 320 320 320
303 303 301 300 301 300 300 299 299 299 301 302 302 302 301 300 300 299 299 299 299 299 298 298 299 296 293 294 296 293 292 293 302 315 318 316 314 315 317 319 320 320
301 300 301 300 299 298 298 297 297 297 299 301 301 300 300 299 299 298 299 299 299 298 298 297 298 294 293 294 297 299 299 300 313 311 309 309 308 308 307 308 312 318
299 299 299 299 299 297 297 296 296 296 297 299 300 300 300 300 299 299 298 298 299 298 297 296 297 293 292 293 295 297 301 308 308 307 305 305 305 305 304 305 306 307
298 298 297 297 298 297 295 295 295 295 295 297 298 299 299 299 298 298 298 298 298 298 297 296 296 294 292 293 294 296 301 306 305 304 304 303 302 302 302 302 302 304
297 296 296 296 296 296 295 294 294 295 294 296 296 297 298 298 298 298 298 298 298 297 297 296 296 295 292 292 293 294 301 304 303 302 301 301 301 301 301 300 301 301
296 295 295 295 295 295 295 294 294 293 294 294 295 297 298 298 298 297 297 297 298 298 299 296 296 295 293 292 293 293 299 302 302 301 300 299 299 299 300 299 299 299
296 295 294 294 293 294 294 294 294 293 293 293 294 295 297 297 297 297 296 296 297 297 297 297 296 295 294 292 293 293 294 300 300 299 298 298 298 298 297 298 298 298

ECMWFNIL_sfc_thetae_105.txt.gz
Theta_e
321 321 321 320 319 320 319 319 319 319 319 320 320 320 320 321 323 323 324 325 326 326 326 326 326 326 327 327 328 329 329 329 329 329 328 328 327 327 326 326 326 325
318 319 319 317 317 316 316 315 316 316 316 316 317 317 319 320 321 321 322 323 324 325 326 326 325 326 326 327 328 328 328 328 327 329 328 327 327 327 327 327 327 327
314 314 314 314 315 314 315 315 315 315 315 315 315 316 317 318 318 318 319 320 321 322 324 325 325 325 325 326 328 328 328 327 327 328 328 327 327 327 327 327 327 327
313 313 314 314 314 314 314 314 313 313 313 312 312 313 315 315 315 315 316 319 318 320 322 324 325 325 325 326 327 327 327 327 328 328 327 327 327 327 327 327 327 327
312 313 314 314 314 314 313 312 311 311 311 311 311 312 312 311 311 313 314 315 316 318 321 323 323 324 325 326 327 327 327 327 328 328 326 326 326 326 326 326 325 325
312 312 313 312 312 311 310 310 309 310 310 309 310 311 310 310 310 311 313 313 314 316 320 323 323 323 323 323 325 326 326 326 327 327 326 326 326 327 327 327 326 325
310 311 310 311 309 310 309 308 308 309 308 309 309 308 309 309 311 311 311 311 312 317 321 323 324 323 324 324 324 325 326 326 326 327 326 326 326 326 327 326 326 326
309 309 309 308 308 307 308 308 308 307 308 308 307 307 308 309 311 310 308 309 311 314 317 318 321 322 323 324 324 324 325 326 326 326 325 325 326 325 326 326 326 325
308 308 308 307 306 306 306 308 308 308 309 308 307 307 308 309 309 307 307 308 309 311 312 313 316 318 321 320 319 321 322 324 325 325 325 325 325 325 326 327 326 326
307 307 306 306 306 306 307 308 308 308 309 308 307 307 307 307 308 306 306 307 307 307 308 309 310 313 317 314 313 313 313 315 319 324 325 325 325 326 326 326 326 325
306 306 305 306 306 307 307 308 307 307 308 307 307 306 307 307 306 306 306 305 305 305 305 305 306 308 312 311 309 308 307 308 311 315 320 324 326 326 327 327 326 325
305 306 306 307 308 307 307 307 307 307 306 306 306 305 305 305 305 304 305 304 304 304 304 304 305 306 309 310 308 306 305 305 306 309 313 318 324 326 327 327 326 326
305 307 308 308 307 307 306 306 306 306 306 305 306 305 304 304 304 304 304 304 304 304 303 303 304 305 306 308 307 305 303 302 303 304 307 312 319 325 326 327 327 326
305 306 307 307 307 306 305 305 305 305 304 304 305 303 304 303 303 303 303 303 303 303 303 303 303 303 304 306 305 303 301 300 301 302 304 308 313 321 325 326 326 326
304 304 304 304 304 303 303 304 304 304 304 303 303 303 304 303 303 303 302 302 302 302 302 302 302 302 303 304 301 300 299 299 299 300 303 306 311 317 323 325 325 325
302 303 302 302 302 301 301 302 303 303 303 302 302 302 302 303 302 302 301 301 301 301 301 301 301 302 303 299 298 297 297 298 298 300 303 306 310 314 321 324 324 324
301 301 301 301 300 300 300 300 301 302 301 301 301 302 301 301 301 300 300 300 300 300 299 300 300 301 297 293 293 295 297 297 298 300 303 306 309 314 320 322 322 323
300 299 299 299 298 298 298 298 299 299 300 300 300 300 301 301 300 300 300 300 300 299 299 299 299 298 293 293 294 295 296 298 299 301 304 309 314 315 315 317 318 320
300 298 297 297 297 297 297 297 297 297 299 300 300 301 300 299 299 299 299 299 299 298 298 298 297 295 293 294 294 295 296 297 302 308 309 309 307 307 306 307 309 311
298 298 297 296 296 296 296 295 295 295 297 300 300 300 299 299 299 298 299 299 299 298 298 297 296 294 293 293 294 295 296 301 307 306 306 305 304 303 303 303 304 306
296 296 297 296 295 295 294 294 294 295 296 298 299 299 298 298 298 298 298 298 298 298 297 296 295 293 292 293 293 294 297 300 305 305 304 303 303 302 301 301 302 303
295 295 295 295 294 293 293 293 293 294 295 297 298 298 299 298 298 298 297 297 297 297 296 295 295 292 292 293 293 294 298 304 303 303 302 302 301 301 301 301 301 301
294 294 294 294 293 293 292 292 292 293 294 297 297 297 297 297 297 297 297 297 297 297 296 295 295 293 292 292 293 294 298 302 302 301 300 300 300 300 300 300 300 300
293 293 292 293 292 292 291 291 292 293 294 296 296 296 296 296 297 296 296 297 296 296 296 295 295 294 292 292 292 293 297 300 300 299 299 299 299 299 299 299 300 300
293 292 292 291 291 291 292 291 292 292 294 295 296 296 296 296 296 295 295 295 296 296 298 295 295 295 293 292 292 292 297 298 298 298 297 297 297 298 298 298 298 298
292 293 292 291 290 291 291 291 292 292 292 293 294 295 295 295 294 293 293 293 294 295 296 296 295 295 294 292 292 292 293 297 297 296 296 296 296 297 296 297 297 297

ECMWFNIL_sfc_thetae_108.txt.gz
Theta_e
318 319 318 317 317 317 316 315 315 314 314 314 313 314 315 316 317 316 317 318 320 321 322 323 325 326 327 327 328 329 329 329 330 330 329 329 328 328 327 327 327 327
314 316 316 315 314 314 314 313 312 312 312 312 312 312 313 313 313 314 315 316 317 318 319 321 324 325 326 327 327 327 328 329 328 330 329 328 328 328 327 328 327 328
313 313 312 312 311 311 311 311 311 311 311 311 311 311 311 312 312 312 313 315 315 316 317 320 323 325 325 326 327 327 327 328 328 329 328 328 328 328 328 328 328 328
312 312 311 311 310 310 310 309 309 309 309 309 309 310 311 311 311 311 312 312 312 313 315 319 322 324 324 324 325 326 327 327 328 328 328 328 328 328 328 327 327 327
310 310 310 310 309 309 308 308 307 308 308 308 308 309 309 308 309 310 309 309 309 311 315 319 323 324 324 323 324 324 325 326 327 328 327 327 327 327 328 327 326 326
309 309 309 309 308 308 307 307 307 307 307 307 307 308 307 308 309 308 308 307 308 310 313 315 316 319 321 322 323 323 324 324 326 326 326 326 327 328 327 327 326 326
307 307 307 308 307 307 307 307 307 308 308 308 308 307 307 307 307 307 306 307 307 308 308 309 310 312 315 319 319 318 318 319 321 323 324 326 326 326 327 327 326 326
306 307 307 307 307 306 307 307 307 308 308 308 307 307 308 307 307 306 306 306 306 306 306 306 307 307 308 313 315 314 313 315 315 315 316 320 325 325 326 327 326 326
306 306 307 306 306 306 306 307 307 308 308 307 307 307 307 307 307 306 306 306 306 306 306 305 305 306 307 309 311 311 310 310 310 310 311 313 316 320 324 326 325 325
306 306 306 306 305 306 306 307 307 307 307 306 306 306 305 306 306 305 306 305 305 305 305 304 305 305 305 307 308 309 308 307 307 307 307 309 311 314 318 322 324 324
305 306 306 306 305 305 305 306 306 306 306 305 305 304 305 305 305 305 305 305 304 303 303 303 304 304 304 304 305 308 308 307 305 305 306 307 308 311 315 317 321 323
305 306 306 305 305 304 304 305 305 304 304 304 304 304 304 305 304 304 304 303 303 303 303 303 303 303 303 303 304 305 305 305 304 304 304 304 306 308 311 314 317 321
304 304 304 304 303 303 304 304 304 304 303 303 304 304 303 303 303 303 303 303 303 303 302 302 302 303 302 303 302 302 301 301 301 302 302 303 304 306 309 312 315 320
302 303 302 302 302 302 302 302 303 303 303 303 304 303 303 302 302 302 302 302 302 302 302 302 301 301 302 301 299 299 299 299 299 300 301 302 303 306 309 312 315 319
301 302 301 300 300 300 300 300 301 302 303 303 303 302 302 302 302 302 301 301 301 301 301 301 300 300 300 299 297 298 299 299 299 300 300 301 303 306 310 312 315 319
300 300 299 299 298 298 298 298 299 301 302 302 302 302 301 302 301 301 301 300 300 300 300 300 299 299 300 297 297 299 300 301 300 300 301 302 304 307 311 313 316 318
298 298 298 297 297 297 297 297 298 300 301 301 301 301 301 301 300 300 300 300 300 299 298 298 298 298 294 293 294 296 302 302 301 302 304 306 307 306 306 307 309 310
298 297 296 296 296 296 296 296 298 299 300 300 300 300 300 300 299 299 299 299 299 299 298 297 296 296 292 293 294 294 298 304 305 305 305 304 304 304 304 304 304 305
298 296 295 295 295 295 296 297 298 298 299 299 299 300 299 299 298 299 298 299 298 298 297 297 296 294 292 293 294 294 295 302 305 305 304 303 303 302 302 302 302 304
296 296 295 294 294 294 295 297 297 297 298 299 299 299 298 298 298 298 298 298 298 297 297 297 295 294 292 292 293 293 294 298 304 303 303 302 301 301 301 301 301 301
295 294 294 294 294 294 295 296 296 297 297 298 298 298 297 297 297 297 297 298 297 297 297 296 296 293 292 292 292 293 294 298 303 302 302 301 301 300 300 300 300 300
294 293 293 293 293 293 294 295 295 296 296 298 298 297 297 297 297 297 296 296 297 297 296 295 295 292 292 292 292 292 295 301 301 301 301 300 300 300 300 300 300 300
293 292 292 292 292 293 293 294 294 295 296 297 296 296 296 296 296 296 296 296 296 296 295 295 295 293 291 292 292 291 296 300 300 299 299 299 299 299 299 299 299 299
292 292 291 292 291 292 292 293 294 295 295 296 295 295 294 295 295 295 295 295 295 294 296 294 294 294 292 292 292 291 296 298 298 297 297 297 298 299 299 299 299 299
291 291 291 291 291 291 291 291 292 292 293 293 293 294 294 294 295 293 294 295 295 295 296 295 294 294 293 291 292 292 295 297 297 296 296 296 296 296 298 298 298 298
291 292 291 290 290 291 291 291 292 292 291 292 293 293 293 294 295 295 294 294 295 294 294 294 294 294 294 291 292 292 292 296 296 295 295 295 295 295 295 296 297 297

ECMWFNIL_sfc_thetae_111.txt.gz
Theta_e
326 325 323 322 321 321 320 320 320 319 319 319 317 318 318 319 319 319 319 320 321 321 322 324 326 327 328 329 332 331 331 333 333 334 333 333 332 331 330 330 331 331
322 322 321 320 319 319 318 319 318 318 317 318 317 317 318 317 318 318 317 318 318 318 320 322 324 326 327 327 328 328 329 331 331 332 331 331 332 332 331 331 330 330
320 319 318 317 317 317 317 318 317 317 316 316 316 316 315 316 316 316 316 316 316 317 318 321 323 325 326 325 326 326 327 328 328 330 331 330 331 330 332 333 332 331
317 317 317 316 316 316 316 316 316 315 315 314 313 314 314 315 315 314 314 315 314 315 317 318 319 320 322 323 325 326 327 327 327 327 328 330 330 330 331 331 331 330
316 316 316 316 315 316 316 315 313 313 312 312 313 313 313 313 313 312 312 312 312 313 314 314 315 316 316 317 320 323 324 323 324 326 326 324 327 329 330 330 330 330
315 315 315 314 315 315 314 313 312 312 311 311 311 311 311 312 311 310 311 311 311 311 312 312 312 313 314 315 316 318 319 318 319 321 321 322 322 324 326 329 329 328
314 315 314 314 314 314 313 312 312 312 311 311 311 310 311 310 310 310 310 310 310 310 310 311 310 311 311 312 313 314 315 315 315 316 316 317 318 319 321 324 327 327
314 314 314 314 313 313 312 311 311 311 312 312 311 310 310 310 310 310 310 310 309 309 310 310 309 309 310 311 310 310 312 313 313 312 312 313 315 316 317 319 321 323
314 313 313 313 312 312 311 311 311 311 311 310 310 310 310 309 309 310 310 309 309 308 308 308 308 308 308 308 308 308 309 310 311 311 310 311 311 313 314 316 317 319
313 313 312 312 311 310 310 310 310 310 310 309 309 309 309 309 309 309 308 308 307 307 307 306 306 306 306 307 307 307 307 307 307 308 308 309 309 310 312 313 315 316
312 311 310 310 309 309 309 309 308 308 308 308 308 308 308 308 308 308 308 307 306 305 305 305 304 305 305 305 305 306 305 305 305 306 307 307 308 308 310 311 313 315
310 310 309 309 308 308 308 308 307 307 307 308 307 307 307 307 307 306 306 305 305 305 304 304 304 304 304 303 303 303 304 304 305 305 305 306 306 307 308 310 311 313
308 308 308 308 308 308 308 307 306 307 307 306 306 306 305 305 305 305 305 305 304 304 304 303 303 303 302 302 302 302 304 305 305 305 305 306 307 308 309 310 311 313
307 307 307 307 307 307 306 306 306 306 306 306 306 305 304 304 304 304 305 305 304 303 303 303 302 301 301 300 301 302 305 306 306 306 305 307 308 310 311 312 313 315
306 306 307 307 306 306 305 305 305 306 305 305 305 305 305 304 304 304 304 303 304 304 303 303 301 300 300 299 300 301 305 307 307 306 307 307 308 308 309 309 310 311
305 305 306 305 305 304 304 305 304 305 305 304 303 304 304 304 303 304 304 304 303 304 303 301 300 299 299 296 297 300 304 307 306 306 306 305 305 305 306 307 307 309
304 304 305 304 304 304 304 304 304 304 304 303 303 303 303 303 303 302 302 303 303 303 302 301 300 298 294 293 293 295 303 306 305 305 304 304 304 304 304 304 306 307
303 304 304 303 303 303 303 303 304 304 303 303 302 302 302 303 302 303 303 303 303 303 302 301 300 296 292 293 293 294 297 305 305 304 304 303 303 302 303 303 304 305
303 303 302 302 302 303 303 303 303 302 302 302 301 302 303 302 302 302 302 303 303 302 302 301 300 294 292 293 293 293 294 301 305 304 303 303 303 302 302 302 303 304
302 303 301 301 302 302 302 302 302 301 302 302 302 302 303 303 303 302 302 302 302 303 302 301 299 294 292 292 292 292 293 298 304 304 303 303 302 302 302 301 301 302
302 302 301 302 302 302 302 302 302 302 301 302 302 302 302 302 302 302 301 302 302 303 302 301 298 292 292 292 292 292 293 298 304 304 303 302 302 302 302 301 301 301
301 302 302 302 302 302 301 301 301 302 301 302 302 302 302 302 302 302 301 301 301 302 301 301 299 292 291 292 292 291 295 305 304 302 301 301 301 301 301 301 301 301
301 301 301 301 301 301 300 300 301 301 301 302 301 301 300 300 300 300 301 300 300 300 301 301 300 294 291 291 292 291 298 303 303 301 300 300 299 300 300 301 300 300
300 300 300 300 300 300 300 300 301 301 301 302 301 300 300 300 300 300 300 300 299 299 299 300 300 296 291 291 292 291 297 302 302 301 300 299 299 300 300 300 300 299
300 300 300 300 299 300 300 300 300 301 301 302 301 301 301 301 300 299 299 300 300 300 298 299 300 297 292 291 291 291 298 303 301 300 299 298 298 298 299 299 299 299
300 300 300 300 299 300 300 300 301 301 301 301 301 301 300 300 300 300 299 299 300 300 299 299 299 299 296 291 292 292 292 300 300 298 297 297 297 296 297 298 298 298

ECMWFNIL_sfc_thetae_114.txt.gz
Theta_e
330 330 328 328 326 326 326 325 325 325 325 325 325 325 325 325 324 324 324 325 325 325 325 326 327 329 330 331 333 333 333 334 334 334 334 334 334 334 333 334 335 333
327 326 325 326 324 325 325 325 325 324 324 324 324 323 325 323 323 322 322 322 322 323 323 325 326 327 328 329 330 330 330 331 331 333 333 333 332 333 333 334 334 334
325 325 324 324 323 323 324 324 325 324 323 323 323 322 321 322 321 321 321 320 320 321 321 322 322 323 324 325 326 327 328 328 329 330 329 329 329 330 332 333 333 333
324 324 324 324 324 323 324 324 323 322 322 320 319 319 318 319 319 319 319 318 318 319 320 320 320 321 321 322 323 323 325 325 326 327 326 327 328 328 328 329 330 332
324 323 323 323 323 322 323 321 320 319 319 318 318 318 317 317 317 317 317 318 318 318 318 318 319 319 320 320 320 320 321 322 323 323 322 322 325 326 326 326 327 328
323 322 322 321 322 321 320 319 318 318 318 318 317 317 317 317 316 316 316 317 317 317 318 318 318 317 317 318 318 319 319 320 320 320 319 319 320 322 324 325 325 326
321 321 321 321 320 320 320 319 318 318 318 318 317 315 316 316 316 316 315 316 316 316 316 316 316 316 317 318 318 318 318 318 317 316 316 317 317 318 320 322 324 324
320 320 320 319 319 318 318 317 317 316 317 316 316 315 315 314 315 315 315 316 315 315 315 315 315 316 317 317 316 316 317 316 315 314 314 314 315 315 316 318 320 321
319 319 318 317 317 316 315 315 314 315 315 315 314 314 314 314 314 314 314 314 314 314 314 314 314 315 316 315 314 314 313 314 314 313 312 311 312 314 315 315 316 319
318 317 316 315 315 314 313 313 313 313 313 313 313 313 312 313 313 313 313 313 312 312 312 312 313 314 315 314 313 313 313 313 313 313 311 311 311 312 313 314 315 316
316 315 315 314 314 313 312 313 313 313 312 312 312 312 312 312 312 312 312 311 311 311 311 311 312 312 312 312 313 313 313 313 313 313 312 312 311 311 312 312 312 313
314 314 313 313 313 312 312 312 312 312 312 311 311 311 312 312 312 311 311 311 311 311 311 311 311 310 310 310 311 313 312 313 313 312 312 312 312 312 313 313 313 314
313 313 313 313 312 311 311 311 311 311 311 310 311 311 311 311 311 310 311 311 312 312 311 310 309 309 308 308 309 311 311 313 313 313 313 312 311 311 312 312 311 312
312 312 312 311 311 311 310 310 310 310 310 310 310 310 311 311 310 311 312 312 312 312 311 309 307 305 304 304 306 308 311 312 313 313 313 312 311 310 310 310 311 311
312 312 311 311 310 310 309 309 310 310 310 310 310 310 311 311 311 311 311 311 312 312 310 307 304 303 302 300 302 305 312 312 312 312 312 310 309 309 310 312 312 312
311 311 310 310 310 309 309 309 309 310 310 310 310 310 310 311 311 311 311 311 310 310 309 307 303 302 298 295 296 301 308 312 311 310 310 310 309 310 311 312 312 312
310 310 309 308 309 309 309 309 310 310 310 310 310 310 310 310 311 310 310 310 310 309 308 307 303 299 293 292 293 294 303 311 310 309 309 309 309 309 309 310 311 311
310 309 308 308 308 308 308 309 310 310 309 309 309 309 310 310 309 309 309 310 310 309 308 306 304 295 292 293 293 293 296 307 310 309 309 308 308 308 308 308 308 309
309 308 308 308 308 308 309 310 309 308 308 308 308 309 310 309 308 308 308 309 309 308 307 305 302 294 292 292 293 293 293 301 310 309 308 308 308 308 307 307 307 307
309 308 308 308 309 309 309 309 308 307 308 309 309 309 309 308 308 307 307 308 308 308 307 305 301 294 292 292 293 293 292 298 310 309 308 308 307 307 306 306 305 305
308 308 308 308 308 308 308 308 307 307 307 308 308 308 308 307 307 307 306 307 307 307 307 305 300 291 292 292 292 293 292 301 309 309 308 307 306 306 306 305 305 305
308 307 307 307 308 308 307 307 307 307 307 307 307 306 307 306 307 307 306 306 306 306 306 304 302 291 291 292 292 291 294 309 309 308 307 306 305 305 305 304 303 303
307 307 307 307 307 307 306 307 307 307 307 308 307 306 305 305 305 305 305 305 305 306 305 304 302 295 291 291 292 291 299 309 308 307 306 305 304 304 304 304 303 301
307 306 306 306 305 305 306 306 307 307 307 307 306 305 304 305 305 305 305 305 304 304 304 304 302 296 291 291 291 291 296 307 307 306 306 305 305 305 304 303 302 300
306 305 305 305 305 306 306 306 306 306 307 307 306 306 305 305 305 305 305 305 304 303 301 303 303 298 292 291 291 291 297 307 305 305 304 303 303 303 303 303 302 301
305 305 306 305 305 306 306 306 307 306 306 306 306 305 304 304 304 304 304 304 304 303 302 303 303 301 296 291 291 292 291 303 306 303 302 302 302 301 301 302 302 302

ECMWFNIL_sfc_thetae_117.txt.gz
Theta_e
333 332 331 330 329 329 329 328 328 328 327 328 327 328 326 327 326 326 326 326 326 326 326 327 327 327 328 329 331 331 331 331 331 332 332 332 332 333 332 332 333 333
330 329 328 327 326 327 327 328 327 326 326 326 326 325 326 325 324 324 323 323 324 324 324 325 325 324 325 326 327 327 328 330 330 331 330 330 330 330 329 330 331 332
327 328 327 326 325 325 325 326 326 325 325 324 324 324 323 323 322 322 323 322 322 322 323 323 323 323 324 324 325 325 326 326 327 328 328 327 327 327 328 329 329 329
325 325 325 325 325 325 326 325 325 324 324 322 321 321 321 322 321 321 321 321 321 321 322 322 322 322 322 323 323 323 324 324 325 325 324 324 325 325 325 326 327 327
324 324 325 324 324 324 323 322 322 321 321 320 320 321 320 320 321 320 321 320 320 320 321 321 321 321 321 321 322 321 322 321 322 322 321 321 322 323 323 324 323 323
323 323 323 323 323 323 322 321 320 321 320 320 319 319 319 319 319 319 319 319 320 320 320 320 320 320 321 321 321 321 321 320 321 320 319 319 320 321 320 321 320 320
322 322 322 322 322 321 320 320 319 320 320 320 319 318 319 318 318 318 318 319 319 318 318 319 319 319 320 320 320 319 320 320 320 319 318 318 318 318 319 320 319 319
321 321 320 320 320 320 319 318 318 318 319 319 318 317 318 317 317 317 317 317 317 317 317 318 318 318 319 319 318 318 318 319 318 317 317 317 317 316 317 318 318 318
320 319 319 318 318 317 317 316 316 317 317 317 316 316 316 316 316 316 316 316 316 316 317 317 317 317 318 318 317 317 316 317 317 316 316 316 315 315 315 316 316 316
318 317 317 317 316 315 315 316 315 316 316 316 315 316 315 316 315 315 315 316 315 316 316 316 316 316 316 316 316 316 316 316 316 316 316 316 315 314 314 315 315 315
317 317 315 315 314 314 315 315 315 315 315 315 315 315 315 315 315 315 315 315 316 315 315 314 314 313 313 313 313 315 315 316 316 316 316 316 315 314 314 313 313 313
316 316 314 314 314 314 314 314 314 315 314 314 314 314 314 314 314 314 315 315 315 315 314 312 312 311 310 309 310 312 314 315 316 316 316 315 314 313 312 313 313 313
315 314 313 313 313 313 314 313 313 314 313 313 314 314 314 314 314 314 315 315 315 314 312 311 310 309 307 307 308 310 311 314 314 314 314 314 314 314 315 315 315 314
313 313 313 313 313 313 313 313 313 313 313 313 313 314 313 314 314 314 315 315 314 313 312 310 309 307 305 305 306 309 310 313 313 313 312 313 313 313 314 314 314 314
312 312 312 312 312 312 312 312 313 313 313 313 313 313 313 314 314 314 314 313 313 312 311 310 308 305 304 301 302 306 307 311 312 312 312 311 312 312 313 313 313 314
312 312 311 311 311 311 312 312 312 313 313 312 312 313 313 313 313 313 313 312 311 310 310 309 307 305 299 295 295 300 305 311 312 311 311 311 311 311 311 312 312 313
311 311 312 311 311 312 312 312 311 312 312 312 312 312 312 312 312 311 311 311 310 309 308 307 306 302 293 292 293 294 301 310 311 310 310 310 310 309 309 309 310 311
311 311 311 311 311 311 311 312 312 311 311 311 311 311 311 311 311 310 310 311 310 309 307 306 306 296 291 293 293 292 295 304 311 310 309 309 309 308 308 307 307 308
311 311 310 310 310 311 311 311 311 310 310 310 310 311 311 309 309 309 309 310 310 308 307 305 304 295 292 292 293 292 292 299 311 309 308 308 307 307 307 306 306 306
311 310 310 310 311 311 311 310 310 309 310 310 310 311 310 309 309 309 309 308 308 308 307 305 302 294 292 292 293 292 292 295 311 309 308 308 307 306 306 305 304 304
311 310 310 310 310 310 310 309 309 309 309 310 310 309 309 308 308 308 308 308 308 307 306 305 302 292 291 291 292 292 292 298 310 308 307 306 306 306 305 305 303 303
310 310 309 309 309 309 308 308 308 308 308 309 309 308 308 308 308 308 307 307 307 307 305 303 301 291 291 292 292 292 293 309 308 308 306 306 305 305 305 304 303 302
310 309 309 308 308 308 308 308 308 308 308 308 307 308 307 307 307 307 307 306 306 306 304 302 302 295 291 291 292 291 297 309 308 307 306 305 305 305 304 304 302 301
310 309 308 308 308 307 307 308 308 308 308 308 307 307 307 307 306 305 305 305 305 305 304 302 301 297 291 292 292 292 296 307 306 306 305 305 304 304 304 304 303 301
309 308 307 307 307 307 308 307 307 307 307 308 307 307 307 307 306 305 304 304 303 304 303 303 301 299 293 291 292 292 297 307 305 304 303 303 303 303 304 304 304 302
307 307 307 306 306 306 306 306 307 307 308 308 307 306 305 306 306 306 305 304 304 302 302 303 302 300 297 291 292 293 292 302 306 303 302 302 303 302 302 302 302 302